ftp/pub/palmer/observations_modified/2019/August/original_files/AR190802_BASE.txt

Download

Sample DateTime	Unit Id	WS Avg 2min	WD Avg 2min	WGS 10min	WGD 10min	Air Temp	Rel Humidity	Dew Point	Pyranometer	Quantum	Air Pressure	Snow Level	Rainfall	PW Current	Visibility	CBase 1	CBase 2	CBase 3	Vert Vis
2019/08/02 00:00:00	BASE	10.73	133	20.27	98	-8.0	59	-14.5	0	0	997.6	NA	0.0000		9999	0	0	0	0
2019/08/02 00:01:00	BASE	8.95	136	20.27	98	-7.9	60	-14.4	0	0	997.7	NA	0.0000		9999	0	0	0	0
2019/08/02 00:02:00	BASE	8.00	144	20.27	98	-7.9	59	-14.5	0	0	997.6	NA	0.0000		9999	0	0	0	0
2019/08/02 00:03:00	BASE	10.55	145	20.27	98	-8.0	59	-14.6	0	0	997.5	NA	0.0000		9999	0	0	0	0
2019/08/02 00:04:00	BASE	11.78	155	17.65	100	-8.1	59	-14.6	0	0	997.4	NA	0.0000		9999	0	0	0	0
2019/08/02 00:05:00	BASE	11.40	154	13.63	111	-8.1	59	-14.6	0	0	997.5	NA	0.0000		9999	0	0	0	0
2019/08/02 00:06:00	BASE	11.30	151	13.63	111	-8.1	59	-14.7	0	0	997.5	NA	0.0000		9999	0	0	0	0
2019/08/02 00:07:00	BASE	11.18	156	13.63	111	-8.2	60	-14.6	0	0	997.5	NA	0.0000		9999	0	0	0	0
2019/08/02 00:08:00	BASE	11.30	154	13.89	155	-8.1	60	-14.4	0	0	997.5	NA	0.0000		9999	0	0	0	0
2019/08/02 00:09:00	BASE	12.48	152	14.20	153	-8.1	61	-14.3	0	0	997.4	NA	0.0000		9999	0	0	0	0
2019/08/02 00:10:00	BASE	12.49	152	14.20	153	-8.1	62	-14.1	0	0	997.5	NA	0.0000		9999	0	0	0	0
2019/08/02 00:11:00	BASE	10.93	142	14.20	153	-8.1	63	-13.9	0	0	997.6	NA	0.0000		9999	0	0	0	0
2019/08/02 00:12:00	BASE	9.97	137	14.20	153	-8.1	64	-13.8	0	0	997.6	NA	0.0000		9999	0	0	0	0
2019/08/02 00:13:00	BASE	9.59	139	14.20	153	-8.1	64	-13.7	0	0	997.7	NA	0.0000		9999	0	0	0	0
2019/08/02 00:14:00	BASE	8.81	137	14.20	153	-8.2	64	-13.7	0	0	997.7	NA	0.0000		9999	0	0	0	0
2019/08/02 00:15:00	BASE	7.92	136	14.20	153	-8.2	64	-13.8	0	0	997.7	NA	0.0000		9999	0	0	0	0
2019/08/02 00:16:00	BASE	7.85	139	14.20	153	-8.2	63	-14.0	0	0	997.7	NA	0.0000		9999	0	0	0	0
2019/08/02 00:17:00	BASE	7.29	139	14.20	153	-8.2	62	-14.2	0	0	997.8	NA	0.0000		9999	0	0	0	0
2019/08/02 00:18:00	BASE	6.19	142	14.20	153	-8.2	61	-14.3	0	0	997.7	NA	0.0000		9999	0	0	0	0
2019/08/02 00:19:00	BASE	5.89	146	12.24	161	-8.3	61	-14.5	0	0	997.6	NA	0.0000		9999	0	0	0	0
2019/08/02 00:20:00	BASE	6.96	141	11.16	137	-8.4	60	-14.7	0	0	997.6	NA	0.0000		9999	0	0	0	0
2019/08/02 00:21:00	BASE	8.56	145	10.60	144	-8.5	60	-14.8	0	0	997.5	NA	0.0000		9999	0	0	0	0
2019/08/02 00:22:00	BASE	10.04	146	12.45	130	-8.6	60	-14.9	0	0	997.5	NA	0.0000		9999	0	0	0	0
2019/08/02 00:23:00	BASE	11.97	124	14.35	108	-8.7	60	-14.9	0	0	997.6	NA	0.0000		9999	0	0	0	0
2019/08/02 00:24:00	BASE	11.35	113	14.35	108	-8.7	61	-14.9	0	0	997.7	NA	0.0000		9999	0	0	0	0
2019/08/02 00:25:00	BASE	9.80	125	14.35	108	-8.7	61	-14.8	0	0	997.6	NA	0.0000		9999	0	0	0	0
2019/08/02 00:26:00	BASE	10.76	137	14.35	108	-8.7	62	-14.7	0	0	997.4	NA	0.0000		9999	0	0	0	0
2019/08/02 00:27:00	BASE	12.06	141	14.35	108	-8.7	62	-14.6	0	0	997.4	NA	0.0000		9999	0	0	0	0
2019/08/02 00:28:00	BASE	12.25	143	14.35	108	-8.7	63	-14.4	0	0	997.3	NA	0.0000		9999	0	0	0	0
2019/08/02 00:29:00	BASE	11.38	142	14.35	108	-8.8	64	-14.4	0	0	997.4	NA	0.0000		9999	0	0	0	0
2019/08/02 00:30:00	BASE	12.85	125	16.51	119	-8.8	65	-14.3	0	0	997.5	NA	0.0000		9999	0	0	0	0
2019/08/02 00:31:00	BASE	14.26	122	16.51	119	-8.9	65	-14.2	0	0	997.5	NA	0.0000		9999	0	0	0	0
2019/08/02 00:32:00	BASE	13.28	137	16.51	119	-8.9	66	-14.1	0	0	997.4	NA	0.0000		9999	0	0	0	0
2019/08/02 00:33:00	BASE	12.34	136	16.51	119	-8.9	66	-14.0	0	0	997.5	NA	0.0000		9999	0	0	0	0
2019/08/02 00:34:00	BASE	11.03	123	16.51	119	-8.8	67	-13.8	0	0	997.5	NA	0.0000		9999	0	0	0	0
2019/08/02 00:35:00	BASE	10.28	125	16.51	119	-8.7	67	-13.7	0	0	997.4	NA	0.0000		9999	0	0	0	0
2019/08/02 00:36:00	BASE	9.88	126	16.51	119	-8.7	67	-13.6	0	0	997.4	NA	0.0000		9999	0	0	0	0
2019/08/02 00:37:00	BASE	10.28	119	16.51	119	-8.6	67	-13.6	0	0	997.5	NA	0.0000		9999	0	0	0	0
2019/08/02 00:38:00	BASE	10.07	127	16.51	119	-8.6	67	-13.5	0	0	997.4	NA	0.0000		9999	0	0	0	0
2019/08/02 00:39:00	BASE	9.39	148	16.51	119	-8.6	67	-13.6	0	0	997.2	NA	0.0000		9999	0	0	0	0
2019/08/02 00:40:00	BASE	9.74	156	15.54	121	-8.6	67	-13.7	0	0	997.2	NA	0.0000		9999	0	0	0	0
2019/08/02 00:41:00	BASE	10.41	140	14.71	147	-8.7	66	-13.8	0	0	997.3	NA	0.0000		9999	0	0	0	0
2019/08/02 00:42:00	BASE	11.47	126	12.66	126	-8.7	66	-13.9	0	0	997.3	NA	0.0000		9999	0	0	0	0
2019/08/02 00:43:00	BASE	11.89	130	12.91	124	-8.7	67	-13.8	0	0	997.3	NA	0.0000		9999	0	0	0	0
2019/08/02 00:44:00	BASE	11.77	138	12.91	124	-8.7	67	-13.8	0	0	997.2	NA	0.0000		9999	0	0	0	0
2019/08/02 00:45:00	BASE	11.75	134	12.96	131	-8.7	67	-13.8	0	0	997.3	NA	0.0000		9999	0	0	0	0
2019/08/02 00:46:00	BASE	12.68	120	14.35	114	-8.7	67	-13.7	0	0	997.4	NA	0.0000		9999	0	0	0	0
2019/08/02 00:47:00	BASE	13.19	112	14.35	114	-8.7	67	-13.7	0	0	997.6	NA	0.0000		9999	0	0	0	0
2019/08/02 00:48:00	BASE	12.66	108	14.35	114	-8.7	67	-13.8	0	0	997.5	NA	0.0000		9999	0	0	0	0
2019/08/02 00:49:00	BASE	11.26	106	14.35	114	-8.7	66	-13.9	0	0	997.6	NA	0.0000		9999	0	0	0	0
2019/08/02 00:50:00	BASE	9.54	112	14.35	114	-8.7	65	-14.1	0	0	997.5	NA	0.0000		9999	0	0	0	0
2019/08/02 00:51:00	BASE	8.89	121	14.35	114	-8.6	64	-14.3	0	0	997.4	NA	0.0000		9999	0	0	0	0
2019/08/02 00:52:00	BASE	8.62	130	14.35	114	-8.6	62	-14.5	0	0	997.4	NA	0.0000		9999	0	0	0	0
2019/08/02 00:53:00	BASE	7.22	128	14.35	114	-8.5	61	-14.6	0	0	997.4	NA	0.0000		9999	0	0	0	0
2019/08/02 00:54:00	BASE	6.10	112	14.35	114	-8.4	60	-14.8	0	0	997.4	NA	0.0000		9999	0	0	0	0
2019/08/02 00:55:00	BASE	7.01	103	14.35	114	-8.4	59	-15.0	0	0	997.4	NA	0.0000		9999	0	0	0	0
2019/08/02 00:56:00	BASE	8.29	105	13.94	98	-8.6	58	-15.3	0	0	997.3	NA	0.0000		9999	0	0	0	0
2019/08/02 00:57:00	BASE	8.77	112	13.94	98	-8.7	58	-15.4	0	0	997.3	NA	0.0000		9999	0	0	0	0
2019/08/02 00:58:00	BASE	9.06	119	11.78	96	-8.8	59	-15.4	0	0	997.3	NA	0.0000		9999	0	0	0	0
2019/08/02 00:59:00	BASE	8.75	127	10.80	124	-8.9	60	-15.3	0	0	997.3	NA	0.0000		9999	0	0	0	0
2019/08/02 01:00:00	BASE	8.19	135	10.80	124	-8.8	60	-15.1	0	0	997.3	NA	0.0000		9999	0	0	0	0
2019/08/02 01:01:00	BASE	8.43	146	10.80	124	-8.8	61	-14.9	0	0	997.2	NA	0.0000		9999	0	0	0	0
2019/08/02 01:02:00	BASE	7.86	148	10.80	124	-8.7	61	-14.9	0	0	997.3	NA	0.0000		9999	0	0	0	0
2019/08/02 01:03:00	BASE	7.06	133	10.80	124	-8.8	61	-14.8	0	0	997.4	NA	0.0000		9999	0	0	0	0
2019/08/02 01:04:00	BASE	6.90	124	10.80	124	-8.8	62	-14.9	0	0	997.4	NA	0.0000		9999	0	0	0	0
2019/08/02 01:05:00	BASE	7.59	131	10.80	124	-8.9	62	-14.9	0	0	997.2	NA	0.0000		9999	0	0	0	0
2019/08/02 01:06:00	BASE	8.97	137	10.80	134	-9.0	62	-14.9	0	0	997.1	NA	0.0000		9999	0	0	0	0
2019/08/02 01:07:00	BASE	10.03	135	11.47	131	-9.0	63	-14.8	0	0	997.1	NA	0.0000		9999	0	0	0	0
2019/08/02 01:08:00	BASE	9.48	131	11.47	131	-9.0	63	-14.7	0	0	997.1	NA	0.0000		9999	0	0	0	0
2019/08/02 01:09:00	BASE	8.84	125	11.47	131	-9.0	63	-14.7	0	0	997.0	NA	0.0000		9999	0	0	0	0
2019/08/02 01:10:00	BASE	7.38	127	11.47	131	-8.8	64	-14.5	0	0	996.9	NA	0.0000		9999	0	0	0	0
2019/08/02 01:11:00	BASE	6.53	142	11.47	131	-8.7	64	-14.3	0	0	996.9	NA	0.0000		9999	0	0	0	0
2019/08/02 01:12:00	BASE	7.77	147	11.47	131	-8.5	63	-14.3	0	0	997.0	NA	0.0000		9999	0	0	0	0
2019/08/02 01:13:00	BASE	7.88	143	11.47	131	-8.4	63	-14.2	0	0	997.0	NA	0.0000		9999	0	0	0	0
2019/08/02 01:14:00	BASE	7.70	138	11.47	131	-8.3	62	-14.2	0	0	997.1	NA	0.0000		9999	0	0	0	0
2019/08/02 01:15:00	BASE	7.98	130	11.47	131	-8.3	62	-14.3	0	0	997.2	NA	0.0000		9999	0	0	0	0
2019/08/02 01:16:00	BASE	8.61	127	11.47	131	-8.4	62	-14.4	0	0	997.2	NA	0.0000		9999	0	0	0	0
2019/08/02 01:17:00	BASE	8.58	137	11.06	122	-8.4	62	-14.4	0	0	997.1	NA	0.0000		9999	0	0	0	0
2019/08/02 01:18:00	BASE	7.39	150	11.06	122	-8.5	62	-14.4	0	0	997.1	NA	0.0000		9999	0	0	0	0
2019/08/02 01:19:00	BASE	6.32	150	9.31	134	-8.6	63	-14.4	0	0	997.1	NA	0.0000		9999	0	0	0	0
2019/08/02 01:20:00	BASE	6.03	131	9.31	134	-8.7	63	-14.4	0	0	997.2	NA	0.0000		9999	0	0	0	0
2019/08/02 01:21:00	BASE	6.04	122	9.31	134	-8.8	64	-14.4	0	0	997.1	NA	0.0000		9999	0	0	0	0
2019/08/02 01:22:00	BASE	6.61	130	9.31	134	-8.9	64	-14.4	0	0	997.0	NA	0.0000		9999	0	0	0	0
2019/08/02 01:23:00	BASE	7.33	148	9.31	134	-8.9	65	-14.4	0	0	996.9	NA	0.0000		9999	0	0	0	0
2019/08/02 01:24:00	BASE	7.83	168	9.31	178	-8.9	65	-14.3	0	0	996.8	NA	0.0000		9999	0	0	0	0
2019/08/02 01:25:00	BASE	7.86	172	9.31	178	-8.9	65	-14.2	0	0	996.8	NA	0.0000		9999	0	0	0	0
2019/08/02 01:26:00	BASE	7.41	155	9.31	178	-8.8	65	-14.2	0	0	996.8	NA	0.0000		9999	0	0	0	0
2019/08/02 01:27:00	BASE	7.43	138	9.31	178	-8.9	65	-14.3	0	0	996.9	NA	0.0000		9999	0	0	0	0
2019/08/02 01:28:00	BASE	7.83	140	9.31	178	-8.9	65	-14.3	0	0	996.8	NA	0.0000		9999	0	0	0	0
2019/08/02 01:29:00	BASE	7.98	152	9.31	178	-8.9	65	-14.2	0	0	996.7	NA	0.0000		9999	0	0	0	0
2019/08/02 01:30:00	BASE	7.27	163	9.31	178	-8.9	66	-14.2	0	0	996.8	NA	0.0000		9999	0	0	0	0
2019/08/02 01:31:00	BASE	5.68	165	9.31	178	-8.9	66	-14.1	0	0	996.8	NA	0.0000		9999	0	0	0	0
2019/08/02 01:32:00	BASE	3.54	145	9.31	178	-8.8	66	-13.9	0	0	996.9	NA	0.0000		9999	0	0	0	0
2019/08/02 01:33:00	BASE	2.45	99	9.31	178	-8.7	66	-13.9	0	0	997.0	NA	0.0000		9999	0	0	0	0
2019/08/02 01:34:00	BASE	2.03	85	8.54	149	-8.7	67	-13.8	0	0	996.9	NA	0.0000		9999	0	0	0	0
2019/08/02 01:35:00	BASE	1.43	120	8.54	149	-8.7	67	-13.8	0	0	996.8	NA	0.0000		9999	0	0	0	0
2019/08/02 01:36:00	BASE	1.81	164	8.54	149	-8.7	67	-13.7	0	0	996.7	NA	0.0000		9999	0	0	0	0
2019/08/02 01:37:00	BASE	2.04	195	8.54	149	-8.6	67	-13.7	0	0	996.7	NA	0.0000		9999	0	0	0	0
2019/08/02 01:38:00	BASE	1.01	184	8.28	159	-8.5	67	-13.5	0	0	996.7	NA	0.0000		9999	0	0	0	0
2019/08/02 01:39:00	BASE	1.13	102	7.56	166	-8.4	66	-13.5	0	0	996.7	NA	0.0000		9999	0	0	0	0
2019/08/02 01:40:00	BASE	1.48	78	6.02	170	-8.3	66	-13.6	0	0	996.7	NA	0.0000		9999	0	0	0	0
2019/08/02 01:41:00	BASE	0.49	91	3.60	146	-8.3	66	-13.6	0	0	996.7	NA	0.0000		9999	0	0	0	0
2019/08/02 01:42:00	BASE	0.00	119	3.09	66	-8.4	65	-13.7	0	0	996.6	NA	0.0000		9999	0	0	0	0
2019/08/02 01:43:00	BASE	0.53	156	2.78	202	-8.4	65	-13.8	0	0	996.6	NA	0.0000		9999	0	0	0	0
2019/08/02 01:44:00	BASE	1.27	174	2.78	202	-8.4	65	-13.8	0	0	996.6	NA	0.0000		9999	0	0	0	0
2019/08/02 01:45:00	BASE	1.64	169	2.78	202	-8.3	65	-13.8	0	0	996.6	NA	0.0000		9999	0	0	0	0
2019/08/02 01:46:00	BASE	2.31	158	3.81	150	-8.3	65	-13.8	0	0	996.5	NA	0.0000		9999	0	0	0	0
2019/08/02 01:47:00	BASE	3.46	155	4.48	158	-8.4	64	-13.9	0	0	996.5	NA	0.0000		9999	0	0	0	0
2019/08/02 01:48:00	BASE	4.27	157	4.84	155	-8.5	64	-14.1	0	0	996.5	NA	0.0000		9999	0	0	0	0
2019/08/02 01:49:00	BASE	4.91	159	5.92	169	-8.7	64	-14.3	0	0	996.4	NA	0.0000		9999	0	0	0	0
2019/08/02 01:50:00	BASE	5.40	158	5.92	169	-8.9	64	-14.5	0	0	996.4	NA	0.0000		9999	0	0	0	0
2019/08/02 01:51:00	BASE	5.77	150	7.00	137	-9.2	65	-14.6	0	0	996.5	NA	0.0000		9999	0	0	0	0
2019/08/02 01:52:00	BASE	6.43	139	7.25	133	-9.4	65	-14.8	0	0	996.5	NA	0.0000		9999	0	0	0	0
2019/08/02 01:53:00	BASE	6.87	133	7.72	130	-9.6	66	-14.9	0	0	996.6	NA	0.0000		9999	0	0	0	0
2019/08/02 01:54:00	BASE	6.97	124	7.72	130	-9.7	66	-14.8	0	0	996.6	NA	0.0000		9999	0	0	0	0
2019/08/02 01:55:00	BASE	7.74	117	9.62	125	-9.7	67	-14.6	0	0	996.6	NA	0.0000		9999	0	0	0	0
2019/08/02 01:56:00	BASE	8.72	120	9.62	126	-9.6	67	-14.5	0	0	996.6	NA	0.0000		9999	0	0	0	0
2019/08/02 01:57:00	BASE	8.24	125	9.62	126	-9.4	68	-14.3	0	0	996.5	NA	0.0000		9999	0	0	0	0
2019/08/02 01:58:00	BASE	7.87	130	9.62	126	-9.2	68	-14.1	0	0	996.5	NA	0.0000		9999	0	0	0	0
2019/08/02 01:59:00	BASE	8.11	133	9.62	126	-9.1	67	-14.1	0	0	996.5	NA	0.0000		9999	0	0	0	0
2019/08/02 02:00:00	BASE	7.40	128	9.62	126	-9.1	66	-14.2	0	0	996.6	NA	0.0000		9999	0	0	0	0
2019/08/02 02:01:00	BASE	6.47	117	9.62	126	-9.0	66	-14.2	0	0	996.6	NA	0.0000		9999	0	0	0	0
2019/08/02 02:02:00	BASE	7.43	98	10.08	90	-9.0	65	-14.3	0	0	996.6	NA	0.0000		9999	0	0	0	0
2019/08/02 02:03:00	BASE	7.38	78	10.08	90	-9.2	65	-14.5	0	0	996.6	NA	0.0000		9999	0	0	0	0
2019/08/02 02:04:00	BASE	4.97	76	10.08	90	-9.3	65	-14.6	0	0	996.6	NA	0.0000		9999	0	0	0	0
2019/08/02 02:05:00	BASE	3.51	102	10.08	90	-9.2	65	-14.6	0	0	996.6	NA	0.0000		9999	0	0	0	0
2019/08/02 02:06:00	BASE	3.11	124	10.08	90	-9.2	65	-14.6	0	0	996.6	NA	0.0000		9999	0	0	0	0
2019/08/02 02:07:00	BASE	3.05	122	10.08	90	-9.1	65	-14.6	0	0	996.6	NA	0.0000		9999	0	0	0	0
2019/08/02 02:08:00	BASE	3.12	120	10.08	90	-9.0	64	-14.6	0	0	996.7	NA	0.0000		9999	0	0	0	0
2019/08/02 02:09:00	BASE	4.43	121	10.08	90	-9.1	64	-14.7	0	0	996.7	NA	0.0000		9999	0	0	0	0
2019/08/02 02:10:00	BASE	6.50	122	10.08	90	-9.3	63	-15.0	0	0	996.6	NA	0.0000		9999	0	0	0	0
2019/08/02 02:11:00	BASE	7.49	134	10.08	90	-9.4	64	-15.0	0	0	996.5	NA	0.0000		9999	0	0	0	0
2019/08/02 02:12:00	BASE	7.64	147	8.39	155	-9.5	64	-15.0	0	0	996.5	NA	0.0000		9999	0	0	0	0
2019/08/02 02:13:00	BASE	7.74	150	8.39	144	-9.6	65	-15.0	0	0	996.4	NA	0.0000		9999	0	0	0	0
2019/08/02 02:14:00	BASE	7.92	139	9.31	125	-9.7	66	-14.8	0	0	996.4	NA	0.0000		9999	0	0	0	0
2019/08/02 02:15:00	BASE	8.38	130	9.72	126	-9.6	67	-14.5	0	0	996.4	NA	0.0000		9999	0	0	0	0
2019/08/02 02:16:00	BASE	9.13	127	10.08	129	-9.6	68	-14.4	0	0	996.3	NA	0.0000		9999	0	0	0	0
2019/08/02 02:17:00	BASE	9.15	127	10.08	129	-9.5	68	-14.3	0	0	996.3	NA	0.0000		9999	0	0	0	0
2019/08/02 02:18:00	BASE	9.95	127	13.12	129	-9.4	68	-14.2	0	0	996.2	NA	0.0000		9999	0	0	0	0
2019/08/02 02:19:00	BASE	10.98	125	13.12	129	-9.1	68	-14.0	0	0	996.2	NA	0.0000		9999	0	0	0	0
2019/08/02 02:20:00	BASE	10.12	126	13.12	129	-8.9	67	-14.0	0	0	996.1	NA	0.0000		9999	0	0	0	0
2019/08/02 02:21:00	BASE	9.21	128	13.12	129	-8.8	65	-14.2	0	0	996.1	NA	0.0000		9999	0	0	0	0
2019/08/02 02:22:00	BASE	8.53	125	13.12	129	-8.8	64	-14.4	0	0	996.1	NA	0.0000		9999	0	0	0	0
2019/08/02 02:23:00	BASE	7.82	121	13.12	129	-8.8	63	-14.6	0	0	996.1	NA	0.0000		9999	0	0	0	0
2019/08/02 02:24:00	BASE	8.45	120	13.12	129	-8.9	62	-14.7	0	0	996.1	NA	0.0000		9999	0	0	0	0
2019/08/02 02:25:00	BASE	9.82	122	13.12	129	-8.9	62	-14.8	0	0	996.1	NA	0.0000		9999	0	0	0	0
2019/08/02 02:26:00	BASE	10.61	124	13.12	129	-8.9	63	-14.7	0	0	996.0	NA	0.0000		9999	0	0	0	0
2019/08/02 02:27:00	BASE	10.48	128	13.12	129	-8.8	63	-14.6	0	0	996.0	NA	0.0000		9999	0	0	0	0
2019/08/02 02:28:00	BASE	10.04	133	11.68	127	-8.8	64	-14.5	0	0	996.0	NA	0.0000		9999	0	0	0	0
2019/08/02 02:29:00	BASE	9.80	135	11.47	119	-8.9	64	-14.4	0	0	996.0	NA	0.0000		9999	0	0	0	0
2019/08/02 02:30:00	BASE	9.87	134	11.47	119	-8.9	65	-14.3	0	0	996.0	NA	0.0000		9999	0	0	0	0
2019/08/02 02:31:00	BASE	10.71	130	12.55	128	-8.9	65	-14.2	0	0	996.0	NA	0.0000		9999	0	0	0	0
2019/08/02 02:32:00	BASE	11.97	125	13.17	120	-8.9	66	-14.1	0	0	996.0	NA	0.0000		9999	0	0	0	0
2019/08/02 02:33:00	BASE	12.28	121	13.27	121	-8.8	66	-14.0	0	0	996.0	NA	0.0000		9999	0	0	0	0
2019/08/02 02:34:00	BASE	10.97	125	13.27	121	-8.7	65	-14.0	0	0	996.0	NA	0.0000		9999	0	0	0	0
2019/08/02 02:35:00	BASE	9.06	134	13.27	121	-8.6	64	-14.1	0	0	995.9	NA	0.0000		9999	0	0	0	0
2019/08/02 02:36:00	BASE	8.26	134	13.27	121	-8.6	63	-14.4	0	0	995.9	NA	0.0000		9999	0	0	0	0
2019/08/02 02:37:00	BASE	8.84	124	13.27	121	-8.7	62	-14.7	0	0	996.0	NA	0.0000		9999	0	0	0	0
2019/08/02 02:38:00	BASE	9.37	115	13.27	121	-8.8	61	-14.9	0	0	996.0	NA	0.0000		9999	0	0	0	0
2019/08/02 02:39:00	BASE	9.29	111	13.27	121	-8.8	61	-15.0	0	0	996.0	NA	0.0000		9999	0	0	0	0
2019/08/02 02:40:00	BASE	9.15	112	13.27	121	-8.9	61	-15.1	0	0	996.0	NA	0.0000		9999	0	0	0	0
2019/08/02 02:41:00	BASE	8.51	119	13.27	121	-8.9	62	-14.9	0	0	995.9	NA	0.0000		9999	0	0	0	0
2019/08/02 02:42:00	BASE	8.13	121	13.27	121	-9.0	62	-14.9	0	0	995.8	NA	0.0000		9999	0	0	0	0
2019/08/02 02:43:00	BASE	8.76	118	11.32	128	-9.0	62	-14.9	0	0	995.8	NA	0.0000		9999	0	0	0	0
2019/08/02 02:44:00	BASE	8.75	118	10.44	119	-9.0	62	-14.9	0	0	995.9	NA	0.0000		9999	0	0	0	0
2019/08/02 02:45:00	BASE	7.88	118	10.44	119	-9.0	63	-14.8	0	0	995.9	NA	0.0000		9999	0	0	0	0
2019/08/02 02:46:00	BASE	6.67	118	10.44	119	-9.0	63	-14.9	0	0	995.9	NA	0.0000		9999	0	0	0	0
2019/08/02 02:47:00	BASE	6.66	113	10.24	110	-9.1	63	-14.9	0	0	995.9	NA	0.0000		9999	0	0	0	0
2019/08/02 02:48:00	BASE	7.71	106	9.98	104	-9.2	63	-15.0	0	0	995.9	NA	0.0000		9999	0	0	0	0
2019/08/02 02:49:00	BASE	8.27	108	9.83	125	-9.3	63	-15.2	0	0	995.8	NA	0.0000		9999	0	0	0	0
2019/08/02 02:50:00	BASE	8.13	117	9.83	125	-9.5	63	-15.3	0	0	995.8	NA	0.0000		9999	0	0	0	0
2019/08/02 02:51:00	BASE	7.11	123	9.83	125	-9.5	63	-15.1	0	0	995.8	NA	0.0000		9999	0	0	0	0
2019/08/02 02:52:00	BASE	6.36	124	9.83	125	-9.4	64	-14.9	0	0	995.8	NA	0.0000		9999	0	0	0	0
2019/08/02 02:53:00	BASE	5.85	112	9.26	124	-9.3	64	-14.7	0	0	995.8	NA	0.0000		9999	0	0	0	0
2019/08/02 02:54:00	BASE	6.02	89	8.80	105	-9.2	65	-14.6	0	0	995.8	NA	0.0000		9999	0	0	0	0
2019/08/02 02:55:00	BASE	7.25	71	8.80	105	-9.2	65	-14.6	0	0	995.8	NA	0.0000		9999	0	0	0	0
2019/08/02 02:56:00	BASE	7.26	76	8.80	105	-9.3	65	-14.6	0	0	995.8	NA	0.0000		9999	0	0	0	0
2019/08/02 02:57:00	BASE	5.63	99	8.80	105	-9.3	66	-14.6	0	0	995.7	NA	0.0000		9999	0	0	0	0
2019/08/02 02:58:00	BASE	4.23	122	8.75	69	-9.4	66	-14.6	0	0	995.7	NA	0.0000		9999	0	0	0	0
2019/08/02 02:59:00	BASE	4.31	132	8.75	69	-9.3	66	-14.4	0	0	995.7	NA	0.0000		9999	0	0	0	0
2019/08/02 03:00:00	BASE	5.06	127	8.75	69	-9.2	67	-14.2	0	0	995.7	NA	0.0000		9999	0	0	0	0
2019/08/02 03:01:00	BASE	5.76	115	8.75	69	-9.1	67	-14.1	0	0	995.7	NA	0.0000		9999	0	0	0	0
2019/08/02 03:02:00	BASE	6.10	107	8.75	69	-9.0	67	-14.0	0	0	995.7	NA	0.0000		9999	0	0	0	0
2019/08/02 03:03:00	BASE	6.28	104	8.75	69	-8.8	67	-13.8	0	0	995.8	NA	0.0000		9999	0	0	0	0
2019/08/02 03:04:00	BASE	6.74	100	8.75	69	-8.8	67	-13.7	0	0	995.8	NA	0.0000		9999	0	0	0	0
2019/08/02 03:05:00	BASE	6.81	96	7.46	96	-8.7	67	-13.7	0	0	995.7	NA	0.0000		9999	0	0	0	0
2019/08/02 03:06:00	BASE	6.41	97	7.46	96	-8.6	67	-13.6	0	0	995.7	NA	0.0000		9999	0	0	0	0
2019/08/02 03:07:00	BASE	5.61	99	7.46	96	-8.7	66	-13.8	0	0	995.7	NA	0.0000		9999	0	0	0	0
2019/08/02 03:08:00	BASE	4.81	101	7.46	96	-8.9	65	-14.2	0	0	995.6	NA	0.0000		9999	0	0	0	0
2019/08/02 03:09:00	BASE	4.21	106	7.46	96	-9.1	64	-14.6	0	0	995.5	NA	0.0000		9999	0	0	0	0
2019/08/02 03:10:00	BASE	3.96	109	7.46	96	-9.1	63	-14.9	0	0	995.6	NA	0.0000		9999	0	0	0	0
2019/08/02 03:11:00	BASE	4.48	102	7.46	96	-9.0	62	-15.0	0	0	995.6	NA	0.0000		9999	0	0	0	0
2019/08/02 03:12:00	BASE	6.23	94	8.95	92	-9.0	61	-15.2	0	0	995.6	NA	0.0000		9999	0	0	0	0
2019/08/02 03:13:00	BASE	7.43	92	8.95	92	-9.1	60	-15.4	0	0	995.6	NA	0.0000		9999	0	0	0	0
2019/08/02 03:14:00	BASE	6.44	93	8.95	92	-9.0	60	-15.3	0	0	995.6	NA	0.0000		9999	0	0	0	0
2019/08/02 03:15:00	BASE	5.75	99	8.95	92	-9.0	60	-15.4	0	0	995.6	NA	0.0000		9999	0	0	0	0
2019/08/02 03:16:00	BASE	5.50	98	8.95	92	-9.0	60	-15.5	0	0	995.6	NA	0.0000		9999	0	0	0	0
2019/08/02 03:17:00	BASE	5.55	96	8.95	92	-8.9	60	-15.3	0	0	995.5	NA	0.0000		9999	0	0	0	0
2019/08/02 03:18:00	BASE	6.75	96	8.95	92	-8.9	60	-15.3	0	0	995.5	NA	0.0000		9999	0	0	0	0
2019/08/02 03:19:00	BASE	7.25	91	8.95	92	-8.9	60	-15.3	0	0	995.5	NA	0.0000		9999	0	0	0	0
2019/08/02 03:20:00	BASE	6.69	87	8.95	92	-8.9	61	-15.2	0	0	995.5	NA	0.0000		9999	0	0	0	0
2019/08/02 03:21:00	BASE	6.42	80	8.95	92	-8.9	61	-15.1	0	0	995.5	NA	0.0000		9999	0	0	0	0
2019/08/02 03:22:00	BASE	7.13	76	8.64	99	-8.8	61	-15.0	0	0	995.5	NA	0.0000		9999	0	0	0	0
2019/08/02 03:23:00	BASE	8.02	77	8.59	72	-8.8	61	-15.0	0	0	995.5	NA	0.0000		9999	0	0	0	0
2019/08/02 03:24:00	BASE	7.55	80	8.59	72	-8.8	60	-15.2	0	0	995.5	NA	0.0000		9999	0	0	0	0
2019/08/02 03:25:00	BASE	6.25	86	8.59	72	-9.0	59	-15.5	0	0	995.5	NA	0.0000		9999	0	0	0	0
2019/08/02 03:26:00	BASE	6.20	89	8.59	72	-9.2	58	-15.8	0	0	995.4	NA	0.0000		9999	0	0	0	0
2019/08/02 03:27:00	BASE	6.82	90	8.59	72	-9.5	58	-16.2	0	0	995.4	NA	0.0000		9999	0	0	0	0
2019/08/02 03:28:00	BASE	6.49	98	8.59	72	-9.6	59	-16.2	0	0	995.4	NA	0.0000		9999	0	0	0	0
2019/08/02 03:29:00	BASE	5.51	113	8.59	72	-9.6	59	-16.1	0	0	995.3	NA	0.0000		9999	10790	0	0	0
2019/08/02 03:30:00	BASE	4.38	129	8.59	72	-9.6	60	-15.9	0	0	995.3	NA	0.0000		9999	10760	0	0	0
2019/08/02 03:31:00	BASE	3.41	137	8.59	72	-9.4	61	-15.6	0	0	995.3	NA	0.0000		9999	0	0	0	0
2019/08/02 03:32:00	BASE	3.15	139	8.59	72	-9.2	62	-15.2	0	0	995.3	NA	0.0000		9999	10830	0	0	0
2019/08/02 03:33:00	BASE	3.48	139	7.82	92	-9.0	62	-15.0	0	0	995.3	NA	0.0000		9999	10630	0	0	0
2019/08/02 03:34:00	BASE	3.58	128	7.82	92	-8.8	62	-14.7	0	0	995.3	NA	0.0000		9999	10960	0	0	0
2019/08/02 03:35:00	BASE	3.71	119	7.82	92	-8.7	62	-14.7	0	0	995.3	NA	0.0000		9999	0	0	0	0
2019/08/02 03:36:00	BASE	3.72	126	7.82	92	-8.8	62	-14.8	0	0	995.3	NA	0.0000		9999	11120	0	0	0
2019/08/02 03:37:00	BASE	3.39	134	6.48	109	-8.9	62	-14.9	0	0	995.3	NA	0.0000		9999	10700	0	0	0
2019/08/02 03:38:00	BASE	3.43	142	6.17	108	-9.0	62	-14.9	0	0	995.3	NA	0.0000		9999	10790	0	0	0
2019/08/02 03:39:00	BASE	3.43	147	4.94	133	-9.0	62	-14.9	0	0	995.2	NA	0.0000		9999	11220	0	0	0
2019/08/02 03:40:00	BASE	3.25	144	4.22	114	-9.0	62	-14.9	0	0	995.3	NA	0.0000		9999	0	0	0	0
2019/08/02 03:41:00	BASE	3.33	146	4.22	114	-9.0	63	-14.9	0	0	995.2	NA	0.0000		9999	0	0	0	0
2019/08/02 03:42:00	BASE	3.54	157	4.22	114	-9.0	63	-14.8	0	0	995.2	NA	0.0000		9999	0	0	0	0
2019/08/02 03:43:00	BASE	3.95	162	4.73	161	-9.0	63	-14.8	0	0	995.2	NA	0.0000		9999	0	0	0	0
2019/08/02 03:44:00	BASE	4.22	162	4.73	161	-9.1	63	-14.9	0	0	995.2	NA	0.0000		9999	0	0	0	0
2019/08/02 03:45:00	BASE	4.13	162	4.73	161	-9.2	63	-14.9	0	0	995.2	NA	0.0000		9999	0	0	0	0
2019/08/02 03:46:00	BASE	4.08	155	4.73	161	-9.2	63	-14.9	0	0	995.2	NA	0.0000		9999	0	0	0	0
2019/08/02 03:47:00	BASE	4.15	156	4.73	161	-9.3	64	-14.9	0	0	995.2	NA	0.0000		9999	0	0	0	0
2019/08/02 03:48:00	BASE	4.28	166	5.45	184	-9.4	64	-15.0	0	0	995.1	NA	0.0000		9999	0	0	0	0
2019/08/02 03:49:00	BASE	5.00	170	6.58	170	-9.4	65	-14.8	0	0	995.1	NA	0.0000		9999	0	0	0	0
2019/08/02 03:50:00	BASE	5.22	159	6.58	170	-9.5	66	-14.8	0	0	995.0	NA	0.0000		9999	0	0	0	0
2019/08/02 03:51:00	BASE	5.29	152	6.89	149	-9.5	66	-14.6	0	0	994.9	NA	0.0000		9999	0	0	0	0
2019/08/02 03:52:00	BASE	5.10	150	6.89	149	-9.4	67	-14.5	0	0	994.9	NA	0.0000		9999	0	0	0	0
2019/08/02 03:53:00	BASE	4.63	146	6.89	149	-9.3	67	-14.2	0	0	994.8	NA	0.0000		9999	0	0	0	0
2019/08/02 03:54:00	BASE	5.01	141	6.89	149	-9.1	67	-14.1	0	0	994.8	NA	0.0000		9999	0	0	0	0
2019/08/02 03:55:00	BASE	5.47	136	6.89	149	-9.1	67	-14.0	0	0	994.8	NA	0.0000		9999	0	0	0	0
2019/08/02 03:56:00	BASE	6.31	136	7.92	153	-9.0	67	-14.0	0	0	994.8	NA	0.0000		9999	0	0	0	0
2019/08/02 03:57:00	BASE	7.00	143	7.97	151	-9.0	67	-14.1	0	0	994.8	NA	0.0000		9999	0	0	0	0
2019/08/02 03:58:00	BASE	7.41	147	8.39	143	-9.1	66	-14.3	0	0	994.7	NA	0.0000		9999	0	0	0	0
2019/08/02 03:59:00	BASE	7.62	145	8.39	143	-9.2	66	-14.4	0	0	994.7	NA	0.0000		9999	0	0	0	0
2019/08/02 04:00:00	BASE	8.09	142	9.16	140	-9.2	66	-14.4	0	0	994.7	NA	0.0000		9999	0	0	0	0
2019/08/02 04:01:00	BASE	8.65	144	9.16	151	-9.2	66	-14.4	0	0	994.6	NA	0.0000		9999	0	0	0	0
2019/08/02 04:03:00	BASE	8.60	149	9.16	151	-9.2	66	-14.4	0	0	994.6	NA	0.0000		9999	0	0	0	0
2019/08/02 04:04:00	BASE	8.61	153	9.31	158	-9.2	66	-14.4	0	0	994.6	NA	0.0000		9999	0	0	0	0
2019/08/02 04:05:00	BASE	8.30	154	9.31	158	-9.2	66	-14.4	0	0	994.6	NA	0.0000		9999	0	0	0	0
2019/08/02 04:06:00	BASE	7.78	145	9.31	158	-9.1	66	-14.3	0	0	994.6	NA	0.0000		9999	0	0	0	0
2019/08/02 04:07:00	BASE	7.96	138	9.31	158	-9.0	66	-14.3	0	0	994.6	NA	0.0000		9999	0	0	0	0
2019/08/02 04:08:00	BASE	8.36	138	9.31	158	-9.0	66	-14.2	0	0	994.5	NA	0.0000		9999	0	0	0	0
2019/08/02 04:09:00	BASE	7.94	142	9.31	158	-8.9	66	-14.1	0	0	994.5	NA	0.0000		9999	0	0	0	0
2019/08/02 04:10:00	BASE	7.31	153	9.31	158	-8.9	66	-14.1	0	0	994.5	NA	0.0000		9999	0	0	0	0
2019/08/02 04:11:00	BASE	7.35	154	9.31	158	-9.0	66	-14.2	0	0	994.5	NA	0.0000		9999	0	0	0	0
2019/08/02 04:12:00	BASE	7.24	142	9.31	158	-9.1	66	-14.2	0	0	994.5	NA	0.0000		9999	0	0	0	0
2019/08/02 04:13:00	BASE	7.21	127	9.31	158	-9.2	66	-14.4	0	0	994.5	NA	0.0000		9999	0	0	0	0
2019/08/02 04:14:00	BASE	7.65	119	9.05	136	-9.3	67	-14.3	0	0	994.5	NA	0.0000		9999	0	0	0	0
2019/08/02 04:15:00	BASE	7.41	120	9.05	136	-9.2	68	-14.1	0	0	994.4	NA	0.0000		9999	0	0	0	0
2019/08/02 04:16:00	BASE	6.61	119	9.05	136	-9.1	68	-13.9	0	0	994.4	NA	0.0000		9999	0	0	0	0
2019/08/02 04:17:00	BASE	5.87	120	9.05	136	-9.0	69	-13.7	0	0	994.4	NA	0.0000		9999	0	0	0	0
2019/08/02 04:18:00	BASE	5.28	125	8.44	118	-8.8	69	-13.5	0	0	994.4	NA	0.0000		9999	0	0	0	0
2019/08/02 04:19:00	BASE	5.14	122	8.44	118	-8.9	68	-13.6	0	0	994.3	NA	0.0000		9999	0	0	0	0
2019/08/02 04:20:00	BASE	6.18	110	8.44	118	-9.2	68	-14.0	0	0	994.2	NA	0.0000		9999	0	0	0	0
2019/08/02 04:21:00	BASE	7.13	100	8.44	97	-9.4	67	-14.3	0	0	994.2	NA	0.0000		9999	0	0	0	0
2019/08/02 04:22:00	BASE	6.10	100	8.44	97	-9.5	67	-14.5	0	0	994.2	NA	0.0000		9999	0	0	0	0
2019/08/02 04:23:00	BASE	4.71	107	8.44	97	-9.7	67	-14.7	0	0	994.2	NA	0.0000		9999	0	0	0	0
2019/08/02 04:24:00	BASE	5.35	106	8.44	97	-9.7	66	-14.8	0	0	994.2	NA	0.0000		9999	0	0	0	0
2019/08/02 04:25:00	BASE	6.25	103	8.44	97	-9.6	66	-14.8	0	0	994.2	NA	0.0000		9999	0	0	0	0
2019/08/02 04:26:00	BASE	6.66	105	8.44	97	-9.5	65	-15.0	0	0	994.2	NA	0.0000		9999	0	0	0	0
2019/08/02 04:27:00	BASE	6.65	111	8.44	97	-9.5	63	-15.2	0	0	994.2	NA	0.0000		9999	0	0	0	0
2019/08/02 04:28:00	BASE	5.96	118	8.44	97	-9.4	62	-15.4	0	0	994.2	NA	0.0000		9999	0	0	0	0
2019/08/02 04:29:00	BASE	5.48	118	8.44	97	-9.2	61	-15.5	0	0	994.2	NA	0.0000		9999	0	0	0	0
2019/08/02 04:30:00	BASE	4.89	117	8.44	97	-9.2	59	-15.7	0	0	994.2	NA	0.0000		9999	0	0	0	0
2019/08/02 04:31:00	BASE	4.76	121	8.08	102	-9.1	58	-15.8	0	0	994.2	NA	0.0000		9999	0	0	0	0
2019/08/02 04:32:00	BASE	4.84	130	8.08	102	-9.1	58	-15.9	0	0	994.2	NA	0.0000		9999	0	0	0	0
2019/08/02 04:33:00	BASE	4.37	142	8.08	102	-9.1	58	-15.9	0	0	994.1	NA	0.0000		9999	0	0	0	0
2019/08/02 04:34:00	BASE	3.59	149	8.08	102	-9.1	57	-16.0	0	0	994.1	NA	0.0000		9999	0	0	0	0
2019/08/02 04:35:00	BASE	3.39	142	8.08	102	-9.0	58	-15.8	0	0	994.2	NA	0.0000		9999	0	0	0	0
2019/08/02 04:36:00	BASE	3.46	131	6.53	118	-8.9	58	-15.8	0	0	994.2	NA	0.0000		9999	0	0	0	0
2019/08/02 04:37:00	BASE	3.00	131	6.17	118	-8.8	58	-15.7	0	0	994.2	NA	0.0000		9999	0	0	0	0
2019/08/02 04:38:00	BASE	2.80	137	5.50	119	-8.8	57	-15.7	0	0	994.1	NA	0.0000		9999	0	0	0	0
2019/08/02 04:39:00	BASE	2.92	132	5.50	119	-8.7	57	-15.7	0	0	994.2	NA	0.0000		9999	0	0	0	0
2019/08/02 04:40:00	BASE	2.88	115	5.50	119	-8.7	57	-15.8	0	0	994.2	NA	0.0000		9999	0	0	0	0
2019/08/02 04:41:00	BASE	3.40	98	5.50	119	-8.7	56	-15.8	0	0	994.2	NA	0.0000		9999	0	0	0	0
2019/08/02 04:42:00	BASE	4.75	89	7.46	83	-8.6	56	-15.8	0	0	994.1	NA	0.0000		9999	0	0	0	0
2019/08/02 04:43:00	BASE	4.97	88	7.46	83	-8.7	56	-15.9	0	0	994.1	NA	0.0000		9999	0	0	0	0
2019/08/02 04:44:00	BASE	4.05	90	7.46	83	-8.8	55	-16.1	0	0	994.1	NA	0.0000		9999	12010	0	0	0
2019/08/02 04:45:00	BASE	3.72	96	7.46	83	-8.7	55	-16.2	0	0	994.1	NA	0.0000		9999	0	0	0	0
2019/08/02 04:46:00	BASE	3.39	106	7.46	83	-8.6	54	-16.3	0	0	994.1	NA	0.0000		9999	0	0	0	0
2019/08/02 04:47:00	BASE	3.27	114	7.46	83	-8.5	53	-16.4	0	0	994.1	NA	0.0000		9999	0	0	0	0
2019/08/02 04:48:00	BASE	3.36	126	7.46	83	-8.4	52	-16.5	0	0	994.0	NA	0.0000		9999	0	0	0	0
2019/08/02 04:49:00	BASE	3.41	135	7.46	83	-8.5	52	-16.6	0	0	993.9	NA	0.0000		9999	11810	0	0	0
2019/08/02 04:50:00	BASE	3.44	133	7.46	83	-8.5	52	-16.6	0	0	993.9	NA	0.0000		9999	11980	0	0	0
2019/08/02 04:51:00	BASE	3.80	119	7.46	83	-8.6	52	-16.6	0	0	993.9	NA	0.0000		9999	11910	0	0	0
2019/08/02 04:52:00	BASE	4.98	114	6.07	121	-8.7	53	-16.6	0	0	993.8	NA	0.0000		9999	0	0	0	0
2019/08/02 04:53:00	BASE	5.75	122	6.28	132	-8.8	54	-16.5	0	0	993.7	NA	0.0000		9999	0	0	0	0
2019/08/02 04:54:00	BASE	6.29	132	7.41	141	-8.7	55	-16.2	0	0	993.6	NA	0.0000		9999	0	0	0	0
2019/08/02 04:55:00	BASE	6.56	140	7.41	141	-8.8	55	-16.1	0	0	993.6	NA	0.0000		9999	11910	0	0	0
2019/08/02 04:56:00	BASE	5.97	137	7.41	141	-8.9	56	-16.1	0	0	993.7	NA	0.0000		9999	11940	0	0	0
2019/08/02 04:57:00	BASE	5.87	121	7.41	141	-9.0	57	-16.0	0	0	993.8	NA	0.0000		9999	0	0	0	0
2019/08/02 04:58:00	BASE	6.33	109	7.92	105	-9.0	58	-15.8	0	0	993.7	NA	0.0000		9999	0	0	0	0
2019/08/02 04:59:00	BASE	6.30	113	7.92	105	-9.0	58	-15.7	0	0	993.7	NA	0.0000		9999	0	0	0	0
2019/08/02 05:00:00	BASE	5.91	118	7.92	105	-9.0	58	-15.8	0	0	993.7	NA	0.0000		9999	0	0	0	0
2019/08/02 05:01:00	BASE	5.93	124	7.92	105	-9.0	58	-15.7	0	0	993.7	NA	0.0000		9999	0	0	0	0
2019/08/02 05:02:00	BASE	5.61	121	7.92	105	-8.9	59	-15.5	0	0	993.7	NA	0.0000		9999	0	0	0	0
2019/08/02 05:03:00	BASE	5.19	111	7.92	105	-8.9	58	-15.6	0	0	993.8	NA	0.0000		9999	11290	0	0	0
2019/08/02 05:04:00	BASE	4.90	104	7.92	105	-8.9	58	-15.6	0	0	993.7	NA	0.0000		9999	0	0	0	0
2019/08/02 05:05:00	BASE	4.34	101	7.92	105	-8.7	58	-15.4	0	0	993.7	NA	0.0000		9999	0	0	0	0
2019/08/02 05:06:00	BASE	5.04	111	7.92	105	-8.6	58	-15.4	0	0	993.6	NA	0.0000		9999	0	0	0	0
2019/08/02 05:07:00	BASE	6.65	118	7.97	121	-8.6	58	-15.5	0	0	993.6	NA	0.0000		9999	0	0	0	0
2019/08/02 05:08:00	BASE	6.87	109	7.97	121	-8.7	58	-15.6	0	0	993.6	NA	0.0000		9999	0	0	0	0
2019/08/02 05:09:00	BASE	5.56	96	7.97	121	-8.8	58	-15.7	0	0	993.6	NA	0.0000		9999	0	0	0	0
2019/08/02 05:10:00	BASE	5.42	89	7.97	121	-8.9	58	-15.7	0	0	993.6	NA	0.0000		9999	0	0	0	0
2019/08/02 05:11:00	BASE	6.28	94	7.97	121	-9.1	58	-15.9	0	0	993.6	NA	0.0000		9999	0	0	0	0
2019/08/02 05:12:00	BASE	6.76	113	8.39	130	-9.1	58	-15.8	0	0	993.6	NA	0.0000		9999	0	0	0	0
2019/08/02 05:13:00	BASE	6.34	114	8.39	130	-8.9	58	-15.7	0	0	993.6	NA	0.0000		9999	12140	0	0	0
2019/08/02 05:14:00	BASE	5.44	105	8.39	130	-8.8	58	-15.6	0	0	993.6	NA	0.0000		9999	12010	0	0	0
2019/08/02 05:15:00	BASE	5.73	107	8.39	130	-8.8	57	-15.7	0	0	993.5	NA	0.0000		9999	0	0	0	0
2019/08/02 05:16:00	BASE	6.36	107	8.39	130	-8.6	57	-15.6	0	0	993.5	NA	0.0000		9999	12010	0	0	0
2019/08/02 05:17:00	BASE	6.39	106	8.39	130	-8.5	56	-15.7	0	0	993.5	NA	0.0000		9999	11750	0	0	0
2019/08/02 05:18:00	BASE	6.39	111	8.39	130	-8.5	56	-15.8	0	0	993.5	NA	0.0000		9999	11650	0	0	0
2019/08/02 05:19:00	BASE	6.77	112	8.39	130	-8.4	55	-15.8	0	0	993.5	NA	0.0000		9999	12040	0	0	0
2019/08/02 05:20:00	BASE	6.68	110	8.39	130	-8.3	55	-15.8	0	0	993.5	NA	0.0000		9999	12010	0	0	0
2019/08/02 05:21:00	BASE	6.84	112	8.39	130	-8.4	55	-15.9	0	0	993.5	NA	0.0000		9999	12040	0	0	0
2019/08/02 05:22:00	BASE	7.91	111	9.41	107	-8.6	55	-16.0	0	0	993.4	NA	0.0000		9999	11940	0	0	0
2019/08/02 05:23:00	BASE	8.50	111	9.93	116	-8.7	56	-15.9	0	0	993.4	NA	0.0000		9999	12010	0	0	0
2019/08/02 05:24:00	BASE	9.59	110	11.21	104	-8.8	57	-15.8	0	0	993.4	NA	0.0000		9999	11940	0	0	0
2019/08/02 05:25:00	BASE	10.67	109	11.68	116	-8.8	57	-15.7	0	0	993.4	NA	0.0000		9999	11880	0	0	0
2019/08/02 05:26:00	BASE	11.23	113	13.27	120	-8.8	58	-15.6	0	0	993.4	NA	0.0000		9999	11910	0	0	0
2019/08/02 05:27:00	BASE	12.25	117	13.43	117	-8.6	58	-15.3	0	0	993.3	NA	0.0000		9999	11880	0	0	0
2019/08/02 05:28:00	BASE	12.74	116	13.84	112	-8.4	59	-15.1	0	0	993.3	NA	0.0000		9999	11680	0	0	0
2019/08/02 05:29:00	BASE	12.62	113	13.84	112	-8.3	59	-14.9	0	0	993.3	NA	0.0000		9999	11680	0	0	0
2019/08/02 05:30:00	BASE	12.93	113	14.25	113	-8.1	59	-14.8	0	0	993.3	NA	0.0000		9999	11710	0	0	0
2019/08/02 05:31:00	BASE	13.02	112	14.25	113	-7.9	58	-14.7	0	0	993.3	NA	0.0000		9999	11680	0	0	0
2019/08/02 05:32:00	BASE	12.35	110	14.25	113	-7.9	57	-14.8	0	0	993.3	NA	0.0000		9999	11880	0	0	0
2019/08/02 05:33:00	BASE	11.63	112	14.25	113	-7.9	57	-15.0	0	0	993.3	NA	0.0000		9999	12010	0	0	0
2019/08/02 05:34:00	BASE	10.60	111	14.25	113	-7.9	57	-15.1	0	0	993.3	NA	0.0000		9999	11780	0	0	0
2019/08/02 05:35:00	BASE	10.46	109	14.25	113	-8.0	57	-15.1	0	0	993.3	NA	0.0000		9999	11610	12430	0	0
2019/08/02 05:36:00	BASE	11.14	113	14.25	113	-8.1	57	-15.1	0	0	993.3	NA	0.0000		9999	12300	0	0	0
2019/08/02 05:37:00	BASE	12.08	117	14.25	113	-8.0	57	-15.1	0	0	993.3	NA	0.0000		9999	12270	0	0	0
2019/08/02 05:38:00	BASE	12.46	124	14.25	113	-8.0	57	-15.0	0	0	993.2	NA	0.0000		9999	0	0	0	0
2019/08/02 05:39:00	BASE	12.49	128	14.25	128	-7.8	57	-14.9	0	0	993.2	NA	0.0000		9999	0	0	0	0
2019/08/02 05:40:00	BASE	12.80	123	14.25	128	-7.7	56	-14.9	0	0	993.2	NA	0.0000		9999	0	0	0	0
2019/08/02 05:41:00	BASE	12.49	119	14.25	128	-7.5	56	-14.9	0	0	993.2	NA	0.0000		9999	0	0	0	0
2019/08/02 05:42:00	BASE	12.52	116	14.25	128	-7.4	55	-14.9	0	0	993.2	NA	0.0000		9999	0	0	0	0
2019/08/02 05:43:00	BASE	11.88	107	14.71	105	-7.4	54	-15.0	0	0	993.3	NA	0.0000		9999	0	0	0	0
2019/08/02 05:44:00	BASE	9.32	101	14.71	105	-7.4	54	-15.2	0	0	993.2	NA	0.0000		9999	0	0	0	0
2019/08/02 05:45:00	BASE	7.76	104	14.71	105	-7.5	53	-15.4	0	0	993.2	NA	0.0000		9999	0	0	0	0
2019/08/02 05:46:00	BASE	8.17	107	14.71	105	-7.6	53	-15.6	0	0	993.2	NA	0.0000		9999	0	0	0	0
2019/08/02 05:47:00	BASE	8.46	103	14.71	105	-7.7	52	-15.8	0	0	993.2	NA	0.0000		9999	11550	0	0	0
2019/08/02 05:48:00	BASE	9.10	102	14.71	105	-7.8	52	-15.9	0	0	993.2	NA	0.0000		9999	0	0	0	0
2019/08/02 05:49:00	BASE	10.54	102	14.71	105	-8.0	52	-16.1	0	0	993.2	NA	0.0000		9999	0	0	0	0
2019/08/02 05:50:00	BASE	11.74	97	14.71	105	-8.2	53	-16.1	0	0	993.1	NA	0.0000		9999	0	0	0	0
2019/08/02 05:51:00	BASE	13.02	93	14.71	105	-8.3	54	-15.9	0	0	993.0	NA	0.0000		9999	0	0	0	0
2019/08/02 05:52:00	BASE	13.56	94	14.71	105	-8.5	55	-15.9	0	0	992.9	NA	0.0000		9999	0	0	0	0
2019/08/02 05:53:00	BASE	12.93	95	14.46	95	-8.6	56	-15.7	0	0	993.0	NA	0.0000		9999	12430	0	0	0
2019/08/02 05:54:00	BASE	12.02	95	14.46	95	-8.7	57	-15.6	0	0	993.1	NA	0.0000		9999	12500	0	0	0
2019/08/02 05:55:00	BASE	12.45	94	14.46	95	-8.8	58	-15.6	0	0	993.0	NA	0.0000		9999	12500	0	0	0
2019/08/02 05:56:00	BASE	13.44	93	14.82	93	-8.9	58	-15.6	0	0	993.0	NA	0.0000		9999	12400	0	0	0
2019/08/02 05:57:00	BASE	13.31	95	14.82	93	-9.0	59	-15.6	0	0	993.0	NA	0.0000		9999	12470	0	0	0
2019/08/02 05:58:00	BASE	12.29	98	14.82	93	-9.1	59	-15.6	0	0	992.9	NA	0.0000		9999	12400	0	0	0
2019/08/02 05:59:00	BASE	11.49	102	14.82	93	-9.1	60	-15.5	0	0	992.9	NA	0.0000		9999	12340	0	0	0
2019/08/02 06:00:00	BASE	11.29	105	14.82	93	-9.1	61	-15.3	0	0	992.9	NA	0.0000		9999	12140	0	0	0
2019/08/02 06:01:00	BASE	11.11	105	14.82	93	-9.1	61	-15.2	0	0	992.9	NA	0.0000		9999	12300	0	0	0
2019/08/02 06:02:00	BASE	10.96	109	14.82	93	-9.0	61	-15.1	0	0	992.9	NA	0.0000		9999	12660	0	0	0
2019/08/02 06:03:00	BASE	10.88	115	14.82	93	-8.8	62	-14.8	0	0	992.9	NA	0.0000		9999	12570	0	0	0
2019/08/02 06:04:00	BASE	11.26	116	14.82	93	-8.6	62	-14.5	0	0	992.9	NA	0.0000		9999	10300	12760	0	0
2019/08/02 06:05:00	BASE	11.62	113	14.82	93	-8.3	62	-14.3	0	0	992.9	NA	0.0000		9999	10170	0	0	0
2019/08/02 06:06:00	BASE	11.89	107	13.74	95	-8.2	62	-14.2	0	0	992.9	NA	0.0000		9999	10040	12210	0	0
2019/08/02 06:07:00	BASE	12.33	103	13.32	109	-8.2	62	-14.2	0	0	992.9	NA	0.0000		9999	10140	0	0	0
2019/08/02 06:08:01	BASE	12.86	105	13.94	119	-8.1	62	-14.2	0	0	992.8	NA	0.0000		9999	10110	0	0	0
2019/08/02 06:09:01	BASE	14.52	105	16.67	104	-8.2	62	-14.2	0	0	992.8	NA	0.0000		9999	10110	0	0	0
2019/08/02 06:10:01	BASE	14.54	102	16.67	104	-8.3	62	-14.3	0	0	992.8	NA	0.0000		9999	10040	0	0	0
2019/08/02 06:11:01	BASE	13.47	101	16.67	104	-8.2	62	-14.3	0	0	992.8	NA	0.0000		9999	9940	0	0	0
2019/08/02 06:12:01	BASE	14.86	100	17.85	100	-8.2	62	-14.2	0	0	992.7	NA	0.0000		9999	9880	0	0	0
2019/08/02 06:13:01	BASE	15.46	100	17.85	100	-8.1	61	-14.2	0	0	992.7	NA	0.0000		9999	9910	0	0	0
2019/08/02 06:14:01	BASE	15.64	99	17.85	100	-8.0	61	-14.2	0	0	992.7	NA	0.0000		9999	9970	0	0	0
2019/08/02 06:15:01	BASE	16.72	97	18.52	92	-7.9	60	-14.3	0	0	992.7	NA	0.0000		9999	9910	0	0	0
2019/08/02 06:16:01	BASE	16.76	97	18.52	92	-7.9	60	-14.3	0	0	992.7	NA	0.0000		9999	9940	0	0	0
2019/08/02 06:17:01	BASE	15.92	99	18.52	92	-7.8	60	-14.3	0	0	992.7	NA	0.0000		9999	9840	0	0	0
2019/08/02 06:18:01	BASE	15.77	100	18.52	92	-7.8	60	-14.3	0	0	992.7	NA	0.0000		9999	10010	0	0	0
2019/08/02 06:19:01	BASE	15.75	99	18.52	92	-7.9	60	-14.3	0	0	992.6	NA	0.0000		9999	9940	0	0	0
2019/08/02 06:20:01	BASE	15.50	95	18.52	92	-7.9	60	-14.3	0	0	992.6	NA	0.0000		9999	9940	0	0	0
2019/08/02 06:21:01	BASE	15.04	92	18.52	92	-8.1	61	-14.4	0	0	992.6	NA	0.0000		9999	10270	0	0	0
2019/08/02 06:22:01	BASE	14.59	91	18.52	92	-8.3	61	-14.5	0	0	992.6	NA	0.0000		9999	10340	0	0	0
2019/08/02 06:23:01	BASE	14.68	91	18.52	92	-8.5	62	-14.6	0	0	992.7	NA	0.0000		9999	9480	0	0	0
2019/08/02 06:24:01	BASE	13.86	95	18.52	92	-8.7	62	-14.6	0	0	992.7	NA	0.0000		9999	9350	0	0	0
2019/08/02 06:25:01	BASE	13.40	100	18.21	102	-8.7	63	-14.5	0	0	992.7	NA	0.0000		9999	9220	0	0	0
2019/08/02 06:26:01	BASE	13.22	102	17.49	95	-8.7	64	-14.3	0	0	992.7	NA	0.0000		9999	10430	0	0	0
2019/08/02 06:27:01	BASE	12.88	100	17.49	95	-8.5	64	-14.1	0	0	992.7	NA	0.0000		9999	10470	0	0	0
2019/08/02 06:28:01	BASE	13.80	97	17.49	95	-8.4	64	-13.9	0	0	992.7	NA	0.0000		9999	8660	0	0	0
2019/08/02 06:29:01	BASE	14.21	97	16.82	91	-8.3	64	-13.8	0	0	992.6	NA	0.0000		9999	9840	0	0	0
2019/08/02 06:30:00	BASE	13.15	94	16.82	91	-8.2	64	-13.9	0	0	992.7	NA	0.0000		9999	9910	0	0	0
2019/08/02 06:31:00	BASE	12.03	96	16.82	91	-8.2	63	-14.0	0	0	992.6	NA	0.0000		9999	10010	0	0	0
2019/08/02 06:32:00	BASE	11.52	107	16.77	101	-8.3	63	-14.1	0	0	992.6	NA	0.0000		9999	9910	0	0	0
2019/08/02 06:33:00	BASE	10.47	105	16.77	101	-8.3	62	-14.2	0	0	992.7	NA	0.0000		9999	9970	0	0	0
2019/08/02 06:34:00	BASE	11.10	92	16.77	101	-8.2	62	-14.2	0	0	992.7	NA	0.0000		9999	10040	0	0	0
2019/08/02 06:35:00	BASE	13.39	91	16.77	101	-8.1	62	-14.1	0	0	992.7	NA	0.0000		9999	9090	0	0	0
2019/08/02 06:36:00	BASE	13.70	97	16.77	101	-8.1	62	-14.1	0	0	992.6	NA	0.0000		9999	9060	0	0	0
2019/08/02 06:37:00	BASE	11.99	108	16.77	101	-8.1	62	-14.2	0	0	992.6	NA	0.0000		9999	9910	0	0	0
2019/08/02 06:38:00	BASE	10.41	120	16.77	101	-8.1	62	-14.2	0	0	992.6	NA	0.0000		9999	8920	0	0	0
2019/08/02 06:39:00	BASE	10.75	120	16.05	93	-8.1	62	-14.1	0	0	992.6	NA	0.0000		9999	10010	0	0	0
2019/08/02 06:40:00	BASE	11.49	112	16.05	93	-8.0	62	-14.0	0	0	992.6	NA	0.0000		9999	10010	0	0	0
2019/08/02 06:41:00	BASE	11.05	106	16.05	93	-7.9	62	-13.9	0	0	992.6	NA	0.0000		9999	9970	0	0	0
2019/08/02 06:42:00	BASE	10.10	105	16.05	93	-7.8	62	-13.8	0	0	992.6	NA	0.0000		9999	9910	0	0	0
2019/08/02 06:43:00	BASE	9.57	106	16.05	93	-7.7	62	-13.7	0	0	992.6	NA	0.0000		9999	9880	0	0	0
2019/08/02 06:44:00	BASE	9.69	109	16.05	93	-7.7	62	-13.8	0	0	992.6	NA	0.0000		9999	9910	0	0	0
2019/08/02 06:45:00	BASE	10.12	107	14.82	98	-7.7	62	-13.8	0	0	992.6	NA	0.0000		9999	9910	0	0	0
2019/08/02 06:46:00	BASE	10.26	103	12.81	100	-7.7	62	-13.8	0	0	992.5	NA	0.0000		9999	9910	0	0	0
2019/08/02 06:47:01	BASE	9.79	107	12.81	100	-7.7	62	-13.8	0	0	992.4	NA	0.0000		9999	10070	0	0	0
2019/08/02 06:48:00	BASE	10.19	106	12.81	100	-7.7	61	-13.8	0	0	992.4	NA	0.0000		9999	10010	0	0	0
2019/08/02 06:49:00	BASE	11.31	101	13.32	101	-7.6	61	-13.9	0	0	992.4	NA	0.0000		9999	10010	0	0	0
2019/08/02 06:50:00	BASE	12.69	103	15.48	101	-7.7	60	-14.0	0	0	992.3	NA	0.0000		9999	10110	0	0	0
2019/08/02 06:51:00	BASE	14.64	104	16.93	103	-7.6	60	-14.0	0	0	992.3	NA	0.0000		9999	10200	0	0	0
2019/08/02 06:52:00	BASE	14.73	103	16.93	103	-7.6	60	-14.0	0	0	992.3	NA	0.0000		9999	10240	0	0	0
2019/08/02 06:53:00	BASE	13.17	101	16.93	103	-7.6	60	-13.9	0	0	992.3	NA	0.0000		9999	10170	0	0	0
2019/08/02 06:54:00	BASE	12.58	103	16.93	103	-7.5	61	-13.8	0	0	992.3	NA	0.0000		9999	10110	0	0	0
2019/08/02 06:55:01	BASE	12.43	98	16.93	103	-7.5	61	-13.8	0	0	992.3	NA	0.0000		9999	10170	0	0	0
2019/08/02 06:56:01	BASE	12.48	95	16.93	103	-7.6	61	-13.9	0	0	992.3	NA	0.0000		9999	10600	0	0	0
2019/08/02 06:57:00	BASE	13.26	101	16.93	103	-7.7	61	-14.0	0	0	992.2	NA	0.0000		9999	10730	0	0	0
2019/08/02 06:58:01	BASE	13.14	105	16.93	103	-7.8	61	-14.1	0	0	992.2	NA	0.0000		9999	10860	0	0	0
2019/08/02 06:59:00	BASE	12.92	103	16.93	103	-7.8	60	-14.2	0	0	992.2	NA	0.0000		9999	10930	0	0	0
2019/08/02 07:00:00	BASE	13.90	93	16.93	103	-7.8	60	-14.2	0	0	992.2	NA	0.0000		9999	10890	0	0	0
2019/08/02 07:01:00	BASE	14.04	88	15.64	86	-7.9	60	-14.3	0	0	992.2	NA	0.0000		9999	9090	0	0	0
2019/08/02 07:02:00	BASE	13.35	94	15.64	86	-8.0	60	-14.5	0	0	992.2	NA	0.0000		9999	9020	0	0	0
2019/08/02 07:03:00	BASE	13.19	94	15.64	86	-8.1	60	-14.6	0	0	992.2	NA	0.0000		9999	8890	0	0	0
2019/08/02 07:04:00	BASE	14.35	88	16.05	87	-8.3	60	-14.7	0	0	992.2	NA	0.0000		9999	8890	0	0	0
2019/08/02 07:05:00	BASE	15.43	88	16.31	86	-8.5	61	-14.8	0	0	992.1	NA	0.0000		9999	10340	0	0	0
2019/08/02 07:06:00	BASE	15.09	90	16.46	85	-8.5	61	-14.7	0	0	992.1	NA	0.0000		9999	10270	0	0	0
2019/08/02 07:07:00	BASE	15.12	91	17.18	95	-8.5	62	-14.6	0	0	992.1	NA	0.0000		9999	8960	0	0	0
2019/08/02 07:08:00	BASE	15.49	93	18.01	89	-8.5	62	-14.4	0	0	992.1	NA	0.0000		9999	8960	0	0	0
2019/08/02 07:09:00	BASE	14.97	97	18.01	89	-8.4	62	-14.3	0	0	992.1	NA	0.0000		9999	8920	0	0	0
2019/08/02 07:10:00	BASE	13.56	101	18.01	89	-8.2	63	-14.1	0	0	992.2	NA	0.0000		9999	8920	0	0	0
2019/08/02 07:11:00	BASE	12.50	104	18.01	89	-8.1	63	-13.9	0	0	992.1	NA	0.0000		9999	8920	0	0	0
2019/08/02 07:12:00	BASE	11.50	107	18.01	89	-8.0	63	-13.8	0	0	992.1	NA	0.0000		9999	10140	0	0	0
2019/08/02 07:13:00	BASE	10.37	104	18.01	89	-7.8	63	-13.7	0	0	992.1	NA	0.0000		9999	8600	0	0	0
2019/08/02 07:14:00	BASE	11.85	96	18.01	89	-7.8	62	-13.7	0	0	992.0	NA	0.0000		9999	8530	0	0	0
2019/08/02 07:15:00	BASE	13.71	94	18.01	89	-7.8	62	-13.8	0	0	992.0	NA	0.0000		9999	9910	0	0	0
2019/08/02 07:16:00	BASE	14.45	93	18.01	89	-7.9	62	-13.9	0	0	991.9	NA	0.0000		9999	9650	0	0	0
2019/08/02 07:17:00	BASE	15.71	89	18.52	91	-8.0	62	-13.9	0	0	991.9	NA	0.0000		9999	9320	0	0	0
2019/08/02 07:18:00	BASE	16.36	91	18.52	91	-8.1	63	-14.0	0	0	991.8	NA	0.0000		9999	8960	0	0	0
2019/08/02 07:19:00	BASE	16.71	93	18.52	91	-8.2	63	-13.9	0	0	991.8	NA	0.0000		9999	8730	0	0	0
2019/08/02 07:20:00	BASE	16.14	93	18.52	91	-8.2	64	-13.8	0	0	991.8	NA	0.0000		9999	0	0	0	0
2019/08/02 07:21:00	BASE	15.19	95	18.52	91	-8.1	64	-13.7	0	0	991.7	NA	0.0000		9999	0	0	0	0
2019/08/02 07:22:00	BASE	14.43	101	18.52	91	-8.1	64	-13.7	0	0	991.8	NA	0.0000		9999	0	0	0	0
2019/08/02 07:23:00	BASE	13.77	105	18.52	91	-8.0	64	-13.6	0	0	991.8	NA	0.0000		9999	0	0	0	0
2019/08/02 07:24:00	BASE	13.90	102	18.52	91	-7.8	64	-13.5	0	0	991.8	NA	0.0000		9999	0	0	0	0
2019/08/02 07:25:00	BASE	14.63	98	18.52	91	-7.7	64	-13.4	0	0	991.7	NA	0.0000		9999	0	0	0	0
2019/08/02 07:26:00	BASE	14.58	101	18.52	91	-7.5	63	-13.3	0	0	991.7	NA	0.0000		9999	0	0	0	0
2019/08/02 07:27:00	BASE	13.00	106	18.31	92	-7.3	63	-13.3	0	0	991.8	NA	0.0000		9999	0	0	0	0
2019/08/02 07:28:00	BASE	12.08	108	18.31	92	-7.2	62	-13.3	0	0	991.7	NA	0.0000		9999	0	0	0	0
2019/08/02 07:29:00	BASE	12.02	110	16.31	100	-7.2	61	-13.4	0	0	991.8	NA	0.0000		9999	0	0	0	0
2019/08/02 07:30:00	BASE	12.21	111	16.31	100	-7.2	61	-13.4	0	0	991.7	NA	0.0000		9999	0	0	0	0
2019/08/02 07:31:00	BASE	13.67	104	16.62	99	-7.2	61	-13.5	0	0	991.6	NA	0.0000		9999	0	0	0	0
2019/08/02 07:32:00	BASE	15.05	105	16.62	99	-7.2	61	-13.5	0	0	991.6	NA	0.0000		9999	0	0	0	0
2019/08/02 07:33:00	BASE	15.24	113	16.62	99	-7.2	61	-13.5	0	0	991.5	NA	0.0000		9999	0	0	0	0
2019/08/02 07:34:00	BASE	14.76	114	16.62	99	-7.2	61	-13.5	0	0	991.5	NA	0.0000		9999	0	0	0	0
2019/08/02 07:35:00	BASE	13.69	109	16.62	99	-7.1	60	-13.5	0	0	991.6	NA	0.0000		9999	0	0	0	0
2019/08/02 07:36:00	BASE	14.09	101	16.77	90	-7.1	60	-13.6	0	0	991.6	NA	0.0000		9999	0	0	0	0
2019/08/02 07:37:00	BASE	15.13	97	18.26	98	-7.2	59	-13.7	0	0	991.5	NA	0.0000		9999	0	0	0	0
2019/08/02 07:38:00	BASE	15.62	101	18.47	103	-7.2	59	-13.8	0	0	991.5	NA	0.0000		9999	0	0	0	0
2019/08/02 07:39:00	BASE	15.36	108	18.47	103	-7.3	60	-13.8	0	0	991.5	NA	0.0000		9999	0	0	0	0
2019/08/02 07:40:00	BASE	13.65	110	18.47	103	-7.3	60	-13.8	0	0	991.5	NA	0.0000		9999	0	0	0	0
2019/08/02 07:41:00	BASE	13.41	105	18.47	103	-7.3	60	-13.7	0	0	991.4	NA	0.0000		9999	0	0	0	0
2019/08/02 07:42:00	BASE	15.24	100	18.47	103	-7.2	60	-13.6	0	0	991.4	NA	0.0000		9999	0	0	0	0
2019/08/02 07:43:00	BASE	16.20	97	18.47	103	-7.0	60	-13.5	0	0	991.4	NA	0.0000		9999	0	0	0	0
2019/08/02 07:44:00	BASE	16.26	97	18.47	103	-6.9	59	-13.6	0	0	991.3	NA	0.0000		9999	0	0	0	0
2019/08/02 07:45:00	BASE	16.68	102	18.47	103	-6.9	58	-13.7	0	0	991.3	NA	0.0000		9999	0	0	0	0
2019/08/02 07:46:00	BASE	16.72	103	18.47	103	-7.0	58	-13.9	0	0	991.4	NA	0.0000		9999	0	0	0	0
2019/08/02 07:47:00	BASE	16.47	100	18.47	103	-7.0	57	-14.0	0	0	991.3	NA	0.0000		9999	0	0	0	0
2019/08/02 07:48:00	BASE	16.39	99	18.01	104	-7.1	57	-14.2	0	0	991.4	NA	0.0000		9999	0	0	0	0
2019/08/02 07:49:00	BASE	16.52	99	18.01	104	-7.2	57	-14.4	0	0	991.3	NA	0.0000		9999	0	0	0	0
2019/08/02 07:50:00	BASE	15.59	101	18.01	104	-7.2	57	-14.4	0	0	991.4	NA	0.0000		9999	0	0	0	0
2019/08/02 07:51:00	BASE	14.98	102	18.01	104	-7.3	57	-14.4	0	0	991.4	NA	0.0000		9999	0	0	0	0
2019/08/02 07:52:00	BASE	15.53	97	18.01	104	-7.4	57	-14.4	0	0	991.4	NA	0.0000		9999	0	0	0	0
2019/08/02 07:53:00	BASE	15.63	94	18.01	104	-7.5	58	-14.4	0	0	991.4	NA	0.0000		9999	0	0	0	0
2019/08/02 07:54:00	BASE	15.06	94	18.01	104	-7.7	59	-14.3	0	0	991.5	NA	0.0000		9999	0	0	0	0
2019/08/02 07:55:00	BASE	15.35	97	17.90	95	-7.8	60	-14.2	0	0	991.4	NA	0.0000		9999	0	0	0	0
2019/08/02 07:56:00	BASE	16.60	99	18.73	104	-7.8	61	-14.1	0	0	991.4	NA	0.0000		9999	0	0	0	0
2019/08/02 07:57:00	BASE	15.67	98	18.73	104	-7.8	62	-13.9	0	0	991.4	NA	0.0000		9999	0	0	0	0
2019/08/02 07:58:00	BASE	15.56	97	20.01	104	-7.7	62	-13.8	0	0	991.3	NA	0.0000		9999	0	0	0	0
2019/08/02 07:59:00	BASE	17.68	98	20.89	99	-7.6	62	-13.6	0	0	991.2	NA	0.0000		9999	0	0	0	0
2019/08/02 08:00:00	BASE	17.20	102	20.89	99	-7.5	62	-13.6	0	0	991.3	NA	0.0000		9999	0	0	0	0
2019/08/02 08:01:00	BASE	14.99	100	20.89	99	-7.4	61	-13.6	0	0	991.3	NA	0.0000		9999	0	0	0	0
2019/08/02 08:02:00	BASE	15.30	97	20.89	99	-7.5	61	-13.7	0	0	991.2	NA	0.0000		9999	0	0	0	0
2019/08/02 08:03:00	BASE	15.86	99	20.89	99	-7.6	62	-13.7	0	0	991.2	NA	0.0000		9999	0	0	0	0
2019/08/02 08:04:00	BASE	15.50	97	20.89	99	-7.6	62	-13.7	0	0	991.3	NA	0.0000		9999	0	0	0	0
2019/08/02 08:05:00	BASE	15.01	91	20.89	99	-7.7	62	-13.6	0	0	991.2	NA	0.0000		9999	0	0	0	0
2019/08/02 08:06:00	BASE	15.04	85	20.89	99	-7.7	62	-13.6	0	0	991.2	NA	0.0000		9999	9320	0	0	0
2019/08/02 08:07:00	BASE	15.55	83	20.89	99	-7.6	62	-13.6	0	0	991.2	NA	0.0000		9999	9510	0	0	0
2019/08/02 08:08:00	BASE	15.87	86	21.09	85	-7.5	61	-13.7	0	0	991.2	NA	0.0000		9999	9480	0	0	0
2019/08/02 08:09:00	BASE	16.96	87	21.09	85	-7.4	61	-13.7	0	0	991.2	NA	0.0000		9999	9510	0	0	0
2019/08/02 08:10:00	BASE	17.32	90	21.09	85	-7.3	60	-13.8	0	0	991.2	NA	0.0000		9999	9380	0	0	0
2019/08/02 08:11:00	BASE	17.09	92	21.09	85	-7.3	60	-13.8	0	0	991.2	NA	0.0000		9999	9190	0	0	0
2019/08/02 08:12:00	BASE	16.81	95	21.09	85	-7.3	60	-13.7	0	0	991.2	NA	0.0000		9999	8990	0	0	0
2019/08/02 08:13:00	BASE	16.17	96	21.09	85	-7.2	60	-13.6	0	0	991.2	NA	0.0000		9999	8990	0	0	0
2019/08/02 08:14:00	BASE	16.04	96	21.09	85	-7.2	61	-13.5	0	0	991.1	NA	0.0000		9999	8890	0	0	0
2019/08/02 08:15:00	BASE	15.86	99	21.09	85	-7.2	61	-13.5	0	0	991.2	NA	0.0000		9999	0	0	0	0
2019/08/02 08:16:00	BASE	15.11	99	21.09	85	-7.2	61	-13.4	0	0	991.1	NA	0.0000		9999	0	0	0	0
2019/08/02 08:17:00	BASE	15.62	89	21.09	85	-7.3	61	-13.4	0	0	991.0	NA	0.0000		9999	0	0	0	0
2019/08/02 08:18:00	BASE	16.16	86	19.14	93	-7.2	61	-13.4	0	0	991.1	NA	0.0000		9999	0	0	0	0
2019/08/02 08:19:00	BASE	15.92	87	19.60	100	-7.2	61	-13.4	0	0	991.1	NA	0.0000		9999	0	0	0	0
2019/08/02 08:20:00	BASE	17.32	87	20.47	88	-7.1	61	-13.4	0	0	991.0	NA	0.0000		9999	9970	0	0	0
2019/08/02 08:21:00	BASE	17.50	90	20.47	88	-7.0	60	-13.4	0	0	991.0	NA	0.0000		9999	9940	0	0	0
2019/08/02 08:22:00	BASE	16.02	94	20.47	88	-7.0	60	-13.5	0	0	991.0	NA	0.0000		9999	9970	0	0	0
2019/08/02 08:23:00	BASE	16.73	92	22.07	90	-7.0	60	-13.5	0	0	991.0	NA	0.0000		9999	9910	0	0	0
2019/08/02 08:24:00	BASE	18.20	91	22.07	90	-7.1	60	-13.5	0	0	991.0	NA	0.0000		9999	9880	0	0	0
2019/08/02 08:25:00	BASE	17.54	91	22.07	90	-7.1	61	-13.5	0	0	991.0	NA	0.0000		9999	9880	0	0	0
2019/08/02 08:26:00	BASE	17.18	85	22.07	90	-7.2	61	-13.4	0	0	990.9	NA	0.0000		9999	9940	0	0	0
2019/08/02 08:27:00	BASE	17.18	85	22.07	90	-7.2	62	-13.2	0	0	990.9	NA	0.0000		9999	9780	0	0	0
2019/08/02 08:28:00	BASE	17.24	90	22.07	90	-7.1	62	-13.0	0	0	990.9	NA	0.0000		9999	9650	0	0	0
2019/08/02 08:29:00	BASE	17.42	92	22.07	90	-7.0	62	-13.0	0	0	990.9	NA	0.0000		9999	9580	0	0	0
2019/08/02 08:30:00	BASE	16.33	95	22.07	90	-7.1	62	-13.0	0	0	990.9	NA	0.0000		9999	9510	0	0	0
2019/08/02 08:31:00	BASE	15.71	96	22.07	90	-7.1	62	-13.1	0	0	990.9	NA	0.0000		9999	9350	0	0	0
2019/08/02 08:32:00	BASE	15.79	93	22.07	90	-7.1	62	-13.1	0	0	990.8	NA	0.0000		9999	9220	0	0	0
2019/08/02 08:33:00	BASE	16.42	91	21.14	84	-7.1	63	-13.0	0	0	990.8	NA	0.0000		9999	9120	0	0	0
2019/08/02 08:34:00	BASE	17.43	93	21.14	84	-7.1	63	-13.0	0	0	990.8	NA	0.0000		9999	8990	0	0	0
2019/08/02 08:35:00	BASE	17.91	94	20.73	91	-7.1	63	-13.0	0	0	990.8	NA	0.0000		9999	8790	0	0	0
2019/08/02 08:36:00	BASE	16.24	98	20.73	91	-7.0	63	-12.9	0	0	990.8	NA	0.0000		9999	0	0	0	0
2019/08/02 08:37:00	BASE	15.74	98	20.73	91	-7.0	63	-12.9	0	0	990.8	NA	0.0000		9999	0	0	0	0
2019/08/02 08:38:00	BASE	16.80	95	20.73	91	-6.9	63	-12.9	0	0	990.8	NA	0.0000		9999	0	0	0	0
2019/08/02 08:39:00	BASE	16.97	94	20.73	91	-6.8	62	-12.8	0	0	990.8	NA	0.0000		9999	0	0	0	0
2019/08/02 08:40:00	BASE	16.63	91	20.73	91	-6.7	62	-12.8	0	0	990.9	NA	0.0000		9999	0	0	0	0
2019/08/02 08:41:00	BASE	14.93	94	20.73	91	-6.6	61	-12.9	0	0	990.9	NA	0.0000		9999	0	0	0	0
2019/08/02 08:42:00	BASE	13.77	93	20.73	91	-6.6	61	-12.9	0	0	990.8	NA	0.0000		9999	0	0	0	0
2019/08/02 08:43:00	BASE	15.45	88	20.73	91	-6.6	61	-13.0	0	0	990.7	NA	0.0000		9999	0	0	0	0
2019/08/02 08:44:00	BASE	17.58	86	21.30	87	-6.7	61	-13.0	0	0	990.7	NA	0.0000		9999	0	0	0	0
2019/08/02 08:45:00	BASE	16.85	87	21.30	87	-6.7	61	-13.1	0	0	990.7	NA	0.0000		9999	0	0	0	0
2019/08/02 08:46:00	BASE	16.84	88	21.30	87	-6.7	61	-13.1	0	0	990.7	NA	0.0000		9999	0	0	0	0
2019/08/02 08:47:00	BASE	18.56	89	21.30	87	-6.7	61	-13.0	0	0	990.7	NA	0.0000		9999	0	0	0	0
2019/08/02 08:48:00	BASE	18.59	91	21.30	87	-6.7	61	-13.0	0	0	990.8	NA	0.0000		9999	0	0	0	0
2019/08/02 08:49:00	BASE	17.92	94	21.30	87	-6.7	61	-13.1	0	0	990.8	NA	0.0000		9999	0	0	0	0
2019/08/02 08:50:00	BASE	17.24	98	21.30	87	-6.8	61	-13.0	0	0	990.8	NA	0.0000		9999	0	0	0	0
2019/08/02 08:51:00	BASE	15.36	99	21.30	87	-6.8	61	-13.0	0	0	990.8	NA	0.0000		9999	0	0	0	0
2019/08/02 08:52:00	BASE	13.99	94	21.30	87	-6.8	61	-13.0	0	0	990.8	NA	0.0000		9999	0	0	0	0
2019/08/02 08:53:00	BASE	14.38	93	21.30	87	-6.8	61	-13.0	0	0	990.7	NA	0.0000		9999	0	0	0	0
2019/08/02 08:54:00	BASE	15.04	98	21.04	83	-6.8	61	-13.0	0	0	990.7	NA	0.0000		9999	0	0	0	0
2019/08/02 08:55:00	BASE	15.75	99	21.04	83	-6.9	61	-13.0	0	0	990.7	NA	0.0000		9999	0	0	0	0
2019/08/02 08:56:00	BASE	16.44	102	20.78	87	-6.8	61	-13.0	0	0	990.7	NA	0.0000		9999	0	0	0	0
2019/08/02 08:57:00	BASE	16.10	105	19.86	87	-6.8	61	-13.0	0	0	990.7	NA	0.0000		9999	0	0	0	0
2019/08/02 08:58:00	BASE	14.80	107	19.70	99	-6.8	61	-13.1	0	0	990.7	NA	0.0000		9999	0	0	0	0
2019/08/02 08:59:00	BASE	13.28	109	19.09	99	-6.7	60	-13.1	0	0	990.8	NA	0.0000		9999	0	0	0	0
2019/08/02 09:00:00	BASE	13.62	107	19.09	99	-6.7	60	-13.2	0	0	990.7	NA	0.0000		9999	0	0	0	0
2019/08/02 09:01:00	BASE	15.84	104	19.09	99	-6.7	59	-13.4	0	0	990.6	NA	0.0000		9999	0	0	0	0
2019/08/02 09:02:00	BASE	16.86	102	19.09	99	-6.7	59	-13.4	0	0	990.6	NA	0.0000		9999	0	0	0	0
2019/08/02 09:03:00	BASE	15.66	100	19.09	99	-6.6	59	-13.4	0	0	990.7	NA	0.0000		9999	0	0	0	0
2019/08/02 09:04:00	BASE	13.88	102	19.09	99	-6.5	58	-13.5	0	0	990.8	NA	0.0000		9999	0	0	0	0
2019/08/02 09:05:00	BASE	12.67	104	18.83	98	-6.5	57	-13.6	0	0	990.8	NA	0.0000		9999	0	0	0	0
2019/08/02 09:06:00	BASE	11.29	105	18.83	98	-6.5	56	-13.8	0	0	990.8	NA	0.0000		9999	0	0	0	0
2019/08/02 09:07:00	BASE	11.07	98	18.83	98	-6.5	56	-14.0	0	0	990.8	NA	0.0000		9999	0	0	0	0
2019/08/02 09:08:00	BASE	11.55	95	18.83	98	-6.6	55	-14.1	0	0	990.8	NA	0.0000		9999	0	0	0	0
2019/08/02 09:09:00	BASE	10.62	97	18.83	98	-6.8	56	-14.2	0	0	990.8	NA	0.0000		9999	0	0	0	0
2019/08/02 09:10:00	BASE	10.38	90	18.83	98	-6.8	56	-14.1	0	0	990.8	NA	0.0000		9999	0	0	0	0
2019/08/02 09:11:00	BASE	9.96	91	18.62	98	-6.8	57	-14.0	0	0	990.8	NA	0.0000		9999	0	0	0	0
2019/08/02 09:12:01	BASE	9.10	94	16.77	99	-6.7	57	-13.9	0	0	990.8	NA	0.0000		9999	0	0	0	0
2019/08/02 09:13:00	BASE	8.99	96	14.56	101	-6.7	56	-13.9	0	0	990.9	NA	0.0000		9999	0	0	0	0
2019/08/02 09:14:00	BASE	10.08	92	14.56	101	-6.7	56	-14.0	0	0	990.8	NA	0.0000		9999	0	0	0	0
2019/08/02 09:15:00	BASE	10.93	88	13.22	84	-6.6	56	-14.0	0	0	990.8	NA	0.0000		9999	0	0	0	0
2019/08/02 09:16:00	BASE	10.25	92	13.22	84	-6.7	55	-14.1	0	0	990.9	NA	0.0000		9999	0	0	0	0
2019/08/02 09:17:00	BASE	9.74	93	12.91	75	-6.7	55	-14.1	0	0	990.9	NA	0.0000		9999	0	0	0	0
2019/08/02 09:18:00	BASE	9.74	97	12.91	75	-6.6	56	-14.1	0	0	990.8	NA	0.0000		9999	0	0	0	0
2019/08/02 09:19:00	BASE	10.00	108	12.91	75	-6.5	56	-13.9	0	0	990.8	NA	0.0000		9999	0	0	0	0
2019/08/02 09:20:00	BASE	9.17	111	12.71	81	-6.5	55	-14.0	0	0	990.8	NA	0.0000		9999	0	0	0	0
2019/08/02 09:21:00	BASE	8.43	108	12.71	81	-6.4	55	-14.0	0	0	990.7	NA	0.0000		9999	0	0	0	0
2019/08/02 09:22:00	BASE	9.13	113	12.71	81	-6.4	55	-14.0	0	0	990.7	NA	0.0000		9999	0	0	0	0
2019/08/02 09:23:00	BASE	10.88	119	14.56	118	-6.4	54	-14.2	0	0	990.6	NA	0.0000		9999	0	0	0	0
2019/08/02 09:24:00	BASE	11.85	123	14.56	118	-6.4	54	-14.2	0	0	990.7	NA	0.0000		9999	0	0	0	0
2019/08/02 09:25:00	BASE	10.36	124	14.56	118	-6.4	54	-14.2	0	0	990.7	NA	0.0000		9999	0	0	0	0
2019/08/02 09:26:00	BASE	9.11	129	14.56	118	-6.3	54	-14.2	0	0	990.7	NA	0.0000		9999	0	0	0	0
2019/08/02 09:27:00	BASE	9.05	133	14.56	118	-6.3	54	-14.2	0	0	990.7	NA	0.0000		9999	0	0	0	0
2019/08/02 09:28:00	BASE	9.38	127	14.56	118	-6.2	54	-14.0	0	0	990.7	NA	0.0000		9999	0	0	0	0
2019/08/02 09:29:00	BASE	9.30	119	14.56	118	-6.2	54	-13.9	0	0	990.7	NA	0.0000		9999	0	0	0	0
2019/08/02 09:30:00	BASE	8.76	111	14.56	118	-6.1	55	-13.8	0	0	990.6	NA	0.0000		9999	0	0	0	0
2019/08/02 09:31:00	BASE	8.63	108	14.56	118	-6.1	55	-13.7	0	0	990.5	NA	0.0000		9999	0	0	0	0
2019/08/02 09:32:00	BASE	8.95	107	14.56	118	-6.1	55	-13.8	0	0	990.5	NA	0.0000		9999	0	0	0	0
2019/08/02 09:33:00	BASE	9.76	106	12.55	118	-6.1	54	-13.9	0	0	990.4	NA	0.0000		9999	0	0	0	0
2019/08/02 09:34:00	BASE	10.17	107	11.11	108	-6.2	54	-14.0	0	0	990.4	NA	0.0000		9999	0	0	0	0
2019/08/02 09:35:00	BASE	9.80	104	11.11	108	-6.3	54	-14.0	0	0	990.4	NA	0.0000		9999	0	0	0	0
2019/08/02 09:36:00	BASE	9.77	104	12.55	111	-6.3	55	-13.9	0	0	990.4	NA	0.0000		9999	0	0	0	0
2019/08/02 09:37:01	BASE	10.73	107	12.55	111	-6.3	55	-13.8	0	0	990.4	NA	0.0000		9999	0	0	0	0
2019/08/02 09:38:00	BASE	10.96	100	12.55	111	-6.1	55	-13.7	0	0	990.4	NA	0.0000		9999	0	0	0	0
2019/08/02 09:39:00	BASE	9.69	89	13.12	73	-5.9	54	-13.6	0	0	990.4	NA	0.0000		9999	0	0	0	0
2019/08/02 09:40:00	BASE	8.75	91	13.12	73	-5.8	53	-13.7	0	0	990.4	NA	0.0000		9999	0	0	0	0
2019/08/02 09:41:00	BASE	8.03	99	13.12	73	-5.7	53	-13.9	0	0	990.4	NA	0.0000		9999	0	0	0	0
2019/08/02 09:42:00	BASE	7.24	110	13.12	73	-5.6	52	-14.0	0	0	990.4	NA	0.0000		9999	0	0	0	0
2019/08/02 09:43:00	BASE	8.47	115	13.12	73	-5.7	51	-14.1	0	0	990.4	NA	0.0000		9999	0	0	0	0
2019/08/02 09:44:00	BASE	9.30	117	13.12	73	-5.7	51	-14.2	0	0	990.4	NA	0.0000		9999	0	0	0	0
2019/08/02 09:45:00	BASE	8.61	122	13.12	73	-5.7	52	-14.1	0	0	990.4	NA	0.0000		9999	0	0	0	0
2019/08/02 09:46:00	BASE	8.81	117	13.12	73	-5.7	52	-14.1	0	0	990.4	NA	0.0000		9999	0	0	0	0
2019/08/02 09:47:00	BASE	9.17	117	13.12	73	-5.7	52	-14.1	0	0	990.4	NA	0.0000		9999	0	0	0	0
2019/08/02 09:48:00	BASE	9.54	118	13.12	73	-5.7	52	-14.1	0	0	990.4	NA	0.0000		9999	0	0	0	0
2019/08/02 09:49:00	BASE	9.39	124	13.07	114	-5.7	51	-14.1	0	0	990.4	NA	0.0000		9999	0	0	0	0
2019/08/02 09:50:00	BASE	8.50	143	13.07	114	-5.6	51	-14.1	0	0	990.4	NA	0.0000		9999	0	0	0	0
2019/08/02 09:51:00	BASE	8.40	155	13.07	114	-5.7	51	-14.1	0	0	990.4	NA	0.0000		9999	0	0	0	0
2019/08/02 09:52:00	BASE	8.10	154	13.07	114	-5.7	52	-14.1	0	0	990.4	NA	0.0000		9999	0	0	0	0
2019/08/02 09:53:00	BASE	7.52	147	13.07	114	-5.7	52	-14.0	0	0	990.4	NA	0.0000		9999	0	0	0	0
2019/08/02 09:54:00	BASE	7.72	142	13.07	114	-5.8	53	-14.0	0	0	990.4	NA	0.0000		9999	0	0	0	0
2019/08/02 09:55:00	BASE	8.33	143	13.07	114	-5.9	53	-13.9	0	0	990.4	NA	0.0000		9999	0	0	0	0
2019/08/02 09:56:00	BASE	8.20	137	13.07	114	-6.0	54	-13.7	0	0	990.4	NA	0.0000		9999	0	0	0	0
2019/08/02 09:57:00	BASE	6.83	130	13.07	114	-6.0	55	-13.6	0	0	990.4	NA	0.0000		9999	0	0	0	0
2019/08/02 09:58:00	BASE	5.51	136	12.40	129	-6.0	55	-13.6	0	0	990.4	NA	0.0000		9999	0	0	0	0
2019/08/02 09:59:00	BASE	5.58	139	9.72	143	-6.0	55	-13.5	0	0	990.4	NA	0.0000		9999	0	0	0	0
2019/08/02 10:00:00	BASE	5.67	132	9.47	150	-5.9	55	-13.5	0	0	990.4	NA	0.0000		9999	0	0	0	0
2019/08/02 10:01:00	BASE	5.45	135	9.41	146	-5.9	55	-13.6	0	0	990.4	NA	0.0000		9999	0	0	0	0
2019/08/02 10:02:00	BASE	7.92	130	11.99	115	-6.0	54	-13.7	0	0	990.4	NA	0.0000		9999	0	0	0	0
2019/08/02 10:03:00	BASE	10.98	120	12.96	112	-6.1	54	-13.8	0	0	990.4	NA	0.0000		9999	0	0	0	0
2019/08/02 10:04:00	BASE	11.75	117	13.58	108	-6.1	54	-13.9	0	0	990.4	NA	0.0000		9999	0	0	0	0
2019/08/02 10:05:00	BASE	10.12	114	13.58	108	-6.1	54	-13.9	0	0	990.5	NA	0.0000		9999	0	0	0	0
2019/08/02 10:06:00	BASE	8.73	121	13.58	108	-5.9	53	-13.9	0	0	990.4	NA	0.0000		9999	0	0	0	0
2019/08/02 10:07:00	BASE	8.40	129	13.58	108	-5.8	52	-14.0	0	0	990.4	NA	0.0000		9999	0	0	0	0
2019/08/02 10:08:00	BASE	8.01	130	13.58	108	-5.7	52	-14.1	0	0	990.4	NA	0.0000		9999	0	0	0	0
2019/08/02 10:09:00	BASE	7.33	125	13.58	108	-5.6	51	-14.1	0	0	990.4	NA	0.0000		9999	0	0	0	0
2019/08/02 10:10:00	BASE	6.58	130	13.58	108	-5.7	51	-14.2	0	0	990.4	NA	0.0000		9999	0	0	0	0
2019/08/02 10:11:00	BASE	6.54	140	13.58	108	-5.8	51	-14.3	0	0	990.4	NA	0.0000		9999	0	0	0	0
2019/08/02 10:12:00	BASE	7.28	143	13.58	108	-5.8	52	-14.2	0	0	990.3	NA	0.0000		9999	0	0	0	0
2019/08/02 10:13:00	BASE	9.30	144	13.58	108	-5.9	52	-14.1	0	0	990.2	NA	0.0000		9999	9150	0	0	0
2019/08/02 10:14:00	BASE	10.07	132	12.86	136	-5.9	53	-14.0	0	0	990.2	NA	0.0000		9999	9120	0	0	0
2019/08/02 10:15:00	BASE	9.59	119	12.86	136	-5.9	53	-13.9	0	0	990.1	NA	0.0000		9999	9120	0	0	0
2019/08/02 10:16:00	BASE	9.67	121	12.86	136	-5.9	53	-14.0	0	0	990.1	NA	0.0000		9999	9190	0	0	0
2019/08/02 10:17:00	BASE	9.18	121	12.86	136	-5.8	53	-14.0	0	0	990.1	NA	0.0000		9999	0	0	0	0
2019/08/02 10:18:00	BASE	8.26	125	12.86	136	-5.8	52	-14.0	0	0	990.1	NA	0.0000		9999	0	0	0	0
2019/08/02 10:19:00	BASE	8.31	125	12.86	136	-5.8	52	-14.1	0	0	990.1	NA	0.0000		9999	0	0	0	0
2019/08/02 10:20:00	BASE	8.63	122	12.86	136	-5.8	52	-14.1	0	0	990.0	NA	0.0000		9999	8240	0	0	0
2019/08/02 10:21:00	BASE	9.03	123	12.86	136	-5.7	52	-14.1	0	0	989.9	NA	0.0000		9999	0	0	0	0
2019/08/02 10:22:00	BASE	9.04	128	12.86	136	-5.7	52	-14.1	0	0	989.9	NA	0.0000		9999	8730	0	0	0
2019/08/02 10:23:00	BASE	9.30	128	12.86	110	-5.7	52	-14.1	0	0	989.9	NA	0.0000		9999	9020	0	0	0
2019/08/02 10:24:00	BASE	10.61	120	14.61	118	-5.8	52	-14.1	0	0	989.9	NA	0.0000		9999	8960	0	0	0
2019/08/02 10:25:00	BASE	12.32	117	14.61	118	-5.8	52	-14.1	0	0	989.9	NA	0.0000		9999	8960	0	0	0
2019/08/02 10:26:00	BASE	12.49	111	14.61	118	-5.8	53	-14.0	0	0	989.8	NA	0.0000		9999	9090	0	0	0
2019/08/02 10:27:00	BASE	11.50	110	14.61	118	-5.8	53	-13.9	0	0	989.8	NA	0.0000		9999	9190	0	0	0
2019/08/02 10:28:00	BASE	11.74	112	14.61	118	-5.8	53	-13.8	0	0	989.8	NA	0.0000		9999	8960	0	0	0
2019/08/02 10:29:00	BASE	12.33	111	14.61	118	-5.8	54	-13.7	0	0	989.8	NA	0.0000		9999	8730	0	0	0
2019/08/02 10:30:00	BASE	12.65	107	14.61	118	-5.8	54	-13.6	0	0	989.7	NA	0.0000		9999	8630	0	0	0
2019/08/02 10:31:00	BASE	12.30	104	14.61	118	-5.7	55	-13.4	0	0	989.7	NA	0.0000		9999	0	0	0	0
2019/08/02 10:32:00	BASE	11.50	104	14.61	118	-5.8	55	-13.4	0	0	989.7	NA	0.0000		9999	0	0	0	0
2019/08/02 10:33:00	BASE	11.98	101	14.61	118	-5.8	55	-13.4	0	0	989.7	NA	0.0000		9999	4660	0	0	0
2019/08/02 10:34:00	BASE	12.76	96	14.87	88	-5.7	55	-13.4	0	0	989.7	NA	0.0000		9999	0	0	0	0
2019/08/02 10:35:00	BASE	12.39	96	14.87	88	-5.6	54	-13.4	0	0	989.7	NA	0.0000		9999	8530	0	0	0
2019/08/02 10:36:00	BASE	12.49	105	14.87	88	-5.5	53	-13.6	0	0	989.7	NA	0.0000		9999	8370	0	0	0
2019/08/02 10:37:00	BASE	11.89	112	14.87	88	-5.4	52	-13.7	0	0	989.8	NA	0.0000		9999	0	0	0	0
2019/08/02 10:38:00	BASE	10.83	108	14.87	88	-5.3	51	-13.8	0	0	989.8	NA	0.0000		9999	0	0	0	0
2019/08/02 10:39:00	BASE	10.83	104	14.87	88	-5.4	51	-14.0	0	0	989.7	NA	0.0000		9999	0	0	0	0
2019/08/02 10:40:00	BASE	11.16	108	14.87	88	-5.5	50	-14.2	0	0	989.7	NA	0.0000		9999	0	0	0	0
2019/08/02 10:41:00	BASE	11.09	108	14.87	88	-5.6	50	-14.3	0	0	989.7	NA	0.0000		9999	4630	0	0	0
2019/08/02 10:42:00	BASE	12.00	110	14.87	88	-5.7	51	-14.4	0	0	989.7	NA	0.0000		9999	8600	0	0	0
2019/08/02 10:43:00	BASE	13.03	111	14.87	88	-5.8	51	-14.3	0	0	989.7	NA	0.0000		9999	4630	0	0	0
2019/08/02 10:44:00	BASE	12.45	103	14.76	111	-5.7	51	-14.2	0	0	989.7	NA	0.0000		9999	4560	0	0	0
2019/08/02 10:45:00	BASE	11.31	105	14.76	111	-5.7	51	-14.2	0	0	989.7	NA	0.0000		9999	4560	0	0	0
2019/08/02 10:46:00	BASE	11.89	113	14.92	115	-5.7	51	-14.2	0	0	989.6	NA	0.0000		9999	4430	0	0	0
2019/08/02 10:47:00	BASE	13.95	114	15.54	109	-5.6	52	-14.0	0	0	989.6	NA	0.0000		9999	4530	0	0	0
2019/08/02 10:48:00	BASE	14.14	109	15.54	109	-5.6	52	-13.9	0	0	989.6	NA	0.0000		9999	4400	0	0	0
2019/08/02 10:49:00	BASE	12.80	104	15.54	109	-5.7	52	-13.9	0	0	989.7	NA	0.0000		9999	4430	0	0	0
2019/08/02 10:50:00	BASE	11.91	102	15.54	109	-5.7	53	-13.8	0	0	989.7	NA	0.0000		9999	4490	0	0	0
2019/08/02 10:51:00	BASE	11.23	100	15.54	109	-5.7	53	-13.7	0	0	989.7	NA	0.0000		9999	4430	0	0	0
2019/08/02 10:52:00	BASE	10.68	102	15.54	109	-5.8	53	-13.8	0	0	989.7	NA	0.0000		9999	4560	0	0	0
2019/08/02 10:53:00	BASE	11.37	100	15.54	109	-5.9	54	-13.8	0	0	989.7	NA	0.0000		9999	4630	0	0	0
2019/08/02 10:54:00	BASE	11.10	94	15.54	109	-6.0	54	-13.7	0	0	989.7	NA	0.0000		9999	4590	0	0	0
2019/08/02 10:55:00	BASE	10.12	96	15.54	109	-6.0	54	-13.8	0	0	989.7	NA	0.0000		9999	4760	0	0	0
2019/08/02 10:56:00	BASE	11.25	100	15.54	109	-6.0	54	-13.8	0	0	989.7	NA	0.0000		9999	4630	0	0	0
2019/08/02 10:57:00	BASE	11.56	97	15.23	104	-5.9	53	-13.8	0	0	989.7	NA	0.0000		9999	4560	0	0	0
2019/08/02 10:58:00	BASE	10.31	93	13.94	98	-5.7	52	-14.0	0	0	989.7	NA	0.0000		9999	4660	0	0	0
2019/08/02 10:59:00	BASE	9.86	94	13.94	98	-5.6	52	-14.0	0	0	989.7	NA	0.0000		9999	4590	0	0	0
2019/08/02 11:00:00	BASE	11.20	96	13.94	98	-5.6	51	-14.1	0	0	989.6	NA	0.0000		9999	4630	0	0	0
2019/08/02 11:01:00	BASE	12.02	97	13.94	98	-5.5	51	-14.1	0	0	989.7	NA	0.0000		9999	4490	0	0	0
2019/08/02 11:02:00	BASE	11.07	99	13.94	98	-5.5	51	-14.2	0	0	989.7	NA	0.0000		9999	4530	0	0	0
2019/08/02 11:03:00	BASE	10.13	97	13.94	98	-5.5	50	-14.2	0	0	989.7	NA	0.0000		9999	4430	0	0	0
2019/08/02 11:04:00	BASE	9.81	97	13.94	98	-5.5	50	-14.2	0	0	989.7	NA	0.0000		9999	4270	0	0	0
2019/08/02 11:05:00	BASE	10.03	103	13.94	98	-5.4	50	-14.2	0	0	989.6	NA	0.0000		9999	4330	0	0	0
2019/08/02 11:06:00	BASE	10.24	108	13.74	86	-5.4	50	-14.2	0	0	989.6	NA	0.0000		9999	4230	0	0	0
2019/08/02 11:07:00	BASE	10.60	103	13.74	86	-5.5	50	-14.2	0	0	989.6	NA	0.0000		9999	4100	0	0	0
2019/08/02 11:08:00	BASE	11.98	99	14.35	102	-5.6	51	-14.2	0	0	989.5	NA	0.0000		9999	4070	0	0	0
2019/08/02 11:09:00	BASE	13.33	100	15.33	110	-5.6	51	-14.2	0	0	989.5	NA	0.0000		9999	4230	0	0	0
2019/08/02 11:10:00	BASE	12.68	100	15.33	110	-5.6	51	-14.1	0	0	989.6	NA	0.0000		9999	4170	0	0	0
2019/08/02 11:11:00	BASE	11.68	99	15.33	110	-5.5	51	-14.0	0	0	989.6	NA	0.0000		9999	4170	0	0	0
2019/08/02 11:12:00	BASE	10.61	96	15.33	110	-5.4	51	-13.9	0	0	989.6	NA	0.0000		9999	4130	0	0	0
2019/08/02 11:13:00	BASE	9.50	93	15.33	110	-5.3	51	-13.9	0	0	989.7	NA	0.0000		9999	4230	0	0	0
2019/08/02 11:14:00	BASE	9.16	95	15.33	110	-5.3	51	-13.8	0	0	989.6	NA	0.0000		9999	4200	0	0	0
2019/08/02 11:15:00	BASE	7.76	92	15.33	110	-5.2	51	-13.7	0	0	989.7	NA	0.0000		9999	4170	0	0	0
2019/08/02 11:16:00	BASE	6.37	94	15.33	110	-5.0	50	-13.8	0	0	989.7	NA	0.0000		9999	4200	0	0	0
2019/08/02 11:17:00	BASE	6.22	98	15.33	110	-4.8	49	-13.8	0	0	989.6	NA	0.0000		9999	4270	0	0	0
2019/08/02 11:18:00	BASE	5.31	91	15.33	110	-4.7	49	-13.9	0	0	989.7	NA	0.0000		9999	4230	0	0	0
2019/08/02 11:19:00	BASE	4.58	87	13.58	107	-4.5	48	-13.9	0	0	989.7	NA	0.0000		9999	4200	0	0	0
2019/08/02 11:20:00	BASE	4.23	81	12.24	101	-4.5	47	-14.1	0	0	989.6	NA	0.0000		9999	4270	0	0	0
2019/08/02 11:21:00	BASE	4.71	65	10.65	95	-4.5	47	-14.1	0	0	989.6	NA	0.0000		9999	4330	0	0	0
2019/08/02 11:22:00	BASE	4.92	33	10.29	94	-4.5	47	-14.1	0	0	989.6	NA	0.0000		9999	4300	0	0	0
2019/08/02 11:23:00	BASE	3.58	17	10.29	94	-4.5	48	-14.0	0	0	989.6	NA	0.0000		9999	4200	0	0	0
2019/08/02 11:24:00	BASE	2.98	15	8.59	110	-4.6	49	-13.8	0	0	989.5	NA	0.0000		9999	4170	0	0	0
2019/08/02 11:25:00	BASE	2.88	3	7.72	108	-4.6	50	-13.6	0	0	989.5	NA	0.0000		9999	4230	0	0	0
2019/08/02 11:26:00	BASE	2.61	346	7.61	103	-4.7	51	-13.3	0	0	989.5	NA	0.0000		9999	4170	0	0	0
2019/08/02 11:27:00	BASE	2.20	342	6.58	42	-4.7	52	-13.1	0	0	989.5	NA	0.0000		9999	4170	0	0	0
2019/08/02 11:28:00	BASE	2.19	335	6.58	42	-4.7	53	-12.9	0	0	989.5	NA	0.0000		9999	4130	0	0	0
2019/08/02 11:29:00	BASE	2.38	336	6.58	42	-4.7	53	-12.8	0	0	989.5	NA	0.0000		9999	4200	0	0	0
2019/08/02 11:30:00	BASE	2.38	337	6.58	42	-4.6	53	-12.8	0	0	989.5	NA	0.0000		9999	4070	0	0	0
2019/08/02 11:31:00	BASE	1.84	313	5.14	9	-4.6	52	-12.9	0	0	989.5	NA	0.0000		9999	3900	0	0	0
2019/08/02 11:32:00	BASE	1.76	312	3.55	314	-4.5	51	-13.1	0	0	989.5	NA	0.0000		9999	4460	0	0	0
2019/08/02 11:33:00	BASE	1.14	329	3.55	314	-4.4	50	-13.3	0	0	989.4	NA	0.0000		9999	3120	0	0	0
2019/08/02 11:34:00	BASE	0.00	19	3.55	314	-4.4	49	-13.5	0	0	989.4	NA	0.0000		9999	2990	0	0	0
2019/08/02 11:35:00	BASE	0.00	116	3.55	314	-4.4	49	-13.5	0	0	989.4	NA	0.0000		9999	3050	0	0	0
2019/08/02 11:36:00	BASE	0.04	145	3.55	314	-4.4	49	-13.6	0	0	989.4	NA	0.0000		9999	5220	0	0	0
2019/08/02 11:37:00	BASE	0.76	199	3.55	314	-4.5	49	-13.6	0	0	989.4	NA	0.0000		9999	5050	0	0	0
2019/08/02 11:38:00	BASE	1.44	240	3.55	314	-4.5	49	-13.5	0	0	989.4	NA	0.0000		9999	5050	0	0	0
2019/08/02 11:39:00	BASE	1.67	276	3.55	314	-4.4	49	-13.5	0	0	989.4	NA	0.0000		9999	5150	0	0	0
2019/08/02 11:40:00	BASE	1.94	297	2.83	319	-4.3	48	-13.6	0	0	989.4	NA	0.0000		9999	5280	0	0	0
2019/08/02 11:41:00	BASE	1.94	321	2.83	319	-4.4	48	-13.6	0	0	989.4	NA	0.0000		9999	4890	0	0	0
2019/08/02 11:42:00	BASE	2.73	328	3.76	318	-4.4	49	-13.6	0	0	989.4	NA	0.0000		9999	2490	0	0	0
2019/08/02 11:43:00	BASE	3.58	320	4.12	334	-4.4	49	-13.5	0	0	989.4	NA	0.0000		9999	5180	0	0	0
2019/08/02 11:44:00	BASE	3.65	336	4.37	338	-4.4	49	-13.6	0	0	989.5	NA	0.0000		9999	5580	0	0	0
2019/08/02 11:45:00	BASE	3.91	7	5.71	36	-4.3	49	-13.5	0	0	989.5	NA	0.0000		9999	3280	4790	0	0
2019/08/02 11:46:00	BASE	3.72	36	5.71	36	-4.3	48	-13.6	0	0	989.5	NA	0.0000		9999	5810	0	0	0
2019/08/02 11:47:00	BASE	3.85	61	5.71	36	-4.2	48	-13.6	0	0	989.5	NA	0.0000		9999	5580	0	0	0
2019/08/02 11:48:00	BASE	3.59	78	5.71	36	-4.2	48	-13.7	0	0	989.4	NA	0.0000		9999	5810	0	0	0
2019/08/02 11:49:00	BASE	2.33	72	5.71	36	-4.2	47	-13.7	0	0	989.4	NA	0.0000		9999	5910	0	0	0
2019/08/02 11:50:00	BASE	2.38	71	5.71	36	-4.1	47	-13.8	0	0	989.4	NA	0.0000		9999	5770	0	0	0
2019/08/02 11:51:00	BASE	3.03	82	5.71	36	-4.1	47	-13.8	0	0	989.4	NA	0.0000		9999	5870	0	0	0
2019/08/02 11:52:00	BASE	2.91	76	5.71	36	-4.1	46	-13.9	0	0	989.4	NA	0.0000		9999	5710	0	0	0
2019/08/02 11:53:00	BASE	2.35	77	5.71	36	-4.1	46	-14.0	0	0	989.3	NA	0.0000		9999	4660	0	0	0
2019/08/02 11:54:00	BASE	2.38	103	5.71	36	-4.0	45	-14.1	0	0	989.2	NA	0.0000		9999	4790	0	0	0
2019/08/02 11:55:00	BASE	1.58	119	5.25	79	-4.1	45	-14.2	0	0	989.2	NA	0.0000		9999	5120	0	0	0
2019/08/02 11:56:00	BASE	0.71	103	5.25	79	-4.2	46	-14.2	0	0	989.2	NA	0.0000		9999	5350	0	0	0
2019/08/02 11:57:00	BASE	1.48	91	4.01	86	-4.2	46	-14.1	0	0	989.2	NA	0.0000		9999	5510	0	0	0
2019/08/02 11:58:00	BASE	2.12	80	3.76	81	-4.3	46	-14.1	0	0	989.2	NA	0.0000		9999	5740	0	0	0
2019/08/02 11:59:00	BASE	2.43	59	3.76	81	-4.3	46	-14.1	0	0	989.1	NA	0.0000		9999	5940	0	0	0
2019/08/02 12:00:00	BASE	2.99	61	4.12	85	-4.2	46	-14.1	0	0	989.1	NA	0.0000		9999	6070	0	0	0
2019/08/02 12:01:00	BASE	2.75	74	4.12	85	-4.1	45	-14.2	0	0	989.1	NA	0.0000		9999	2850	0	0	0
2019/08/02 12:02:00	BASE	1.78	92	4.12	85	-3.9	44	-14.3	0	0	989.1	NA	0.0000		9999	5220	0	0	0
2019/08/02 12:03:00	BASE	0.78	125	4.12	85	-3.8	44	-14.3	0	0	989.2	NA	0.0000		9999	5580	0	0	0
2019/08/02 12:04:00	BASE	0.85	139	4.12	85	-3.8	44	-14.3	0	0	989.2	NA	0.0000		9999	4920	0	0	0
2019/08/02 12:05:00	BASE	1.00	129	4.12	85	-3.9	44	-14.2	0	0	989.2	NA	0.0000		9999	4760	0	0	0
2019/08/02 12:06:00	BASE	0.28	81	4.12	85	-4.0	45	-14.1	0	0	989.2	NA	0.0000		9999	5610	0	0	0
2019/08/02 12:07:00	BASE	1.00	32	4.12	85	-4.1	46	-14.0	0	0	989.2	NA	0.0000		9999	6230	0	0	0
2019/08/02 12:08:00	BASE	1.91	11	4.12	85	-4.1	46	-14.0	0	0	989.2	NA	0.0000		9999	6070	0	0	0
2019/08/02 12:09:00	BASE	1.22	355	4.12	85	-4.1	46	-13.9	0	0	989.2	NA	0.0000		9999	6200	0	0	0
2019/08/02 12:10:00	BASE	0.22	3	2.73	10	-4.0	46	-13.9	0	0	989.2	NA	0.0000		9999	6140	0	0	0
2019/08/02 12:11:00	BASE	0.00	14	2.73	10	-3.9	46	-13.9	0	0	989.2	NA	0.0000		9999	4920	0	0	0
2019/08/02 12:12:00	BASE	0.00	7	2.73	10	-3.8	45	-13.9	0	0	989.2	NA	0.0000		9999	4990	0	0	0
2019/08/02 12:13:00	BASE	0.36	336	2.73	10	-3.8	45	-13.9	0	0	989.2	NA	0.0000		9999	6040	0	0	0
2019/08/02 12:14:00	BASE	1.06	185	2.73	10	-3.9	46	-13.9	0	0	989.2	NA	0.0000		9999	4200	0	0	0
2019/08/02 12:15:00	BASE	0.92	200	2.73	10	-4.0	46	-13.9	0	0	989.2	NA	0.0000		9999	4630	5640	0	0
2019/08/02 12:16:00	BASE	0.26	248	2.73	10	-4.0	46	-13.9	0	0	989.1	NA	0.0000		9999	4760	0	0	0
2019/08/02 12:17:01	BASE	0.69	291	2.73	10	-3.9	46	-13.9	0	0	989.1	NA	0.0000		9999	4560	0	0	0
2019/08/02 12:18:00	BASE	1.70	315	2.37	346	-3.9	46	-13.8	0	0	989.1	NA	0.0000		9999	4660	0	0	0
2019/08/02 12:19:00	BASE	2.07	333	2.37	346	-3.8	46	-13.8	0	0	989.1	NA	0.0000		9999	4660	0	0	0
2019/08/02 12:20:00	BASE	1.82	350	2.37	346	-3.7	45	-13.9	0	0	989.1	NA	0.0000		9999	4490	0	0	0
2019/08/02 12:21:00	BASE	1.62	6	2.37	346	-3.7	45	-13.9	0	0	989.1	NA	0.0000		9999	4530	0	0	0
2019/08/02 12:22:00	BASE	1.68	12	2.37	346	-3.6	45	-13.8	0	0	989.2	NA	0.0000		9999	4560	0	0	0
2019/08/02 12:23:00	BASE	1.62	13	2.37	346	-3.6	45	-13.7	0	0	989.2	NA	0.0000		9999	4630	0	0	0
2019/08/02 12:24:00	BASE	1.40	23	2.37	346	-3.6	46	-13.7	0	0	989.2	NA	0.0000		9999	4860	0	0	0
2019/08/02 12:25:00	BASE	1.30	34	2.37	346	-3.6	46	-13.6	0	0	989.2	NA	0.0000		9999	4760	6000	9550	0
2019/08/02 12:26:00	BASE	1.32	39	2.37	346	-3.6	45	-13.7	0	0	989.2	NA	0.0000		9999	4070	6040	9510	0
2019/08/02 12:27:00	BASE	0.85	45	2.37	346	-3.5	45	-13.8	0	0	989.2	NA	0.0000		9999	4430	6300	0	0
2019/08/02 12:28:00	BASE	0.29	58	2.31	351	-3.5	45	-13.9	0	0	989.2	NA	0.0000		9999	3900	0	0	0
2019/08/02 12:29:00	BASE	0.97	79	2.42	103	-3.5	44	-13.9	0	0	989.2	NA	0.0000		9999	4170	0	0	0
2019/08/02 12:30:00	BASE	2.47	95	3.81	99	-3.6	45	-13.9	0	0	989.3	NA	0.0000		9999	4760	0	0	0
2019/08/02 12:31:00	BASE	4.36	95	7.00	87	-3.7	46	-13.7	0	0	989.4	NA	0.0000		9999	4760	0	0	0
2019/08/02 12:32:00	BASE	5.21	89	7.00	87	-3.8	47	-13.5	0	0	989.4	NA	0.0000		9999	4760	0	0	0
2019/08/02 12:33:00	BASE	5.05	92	7.00	87	-3.9	48	-13.3	0	0	989.4	NA	0.0000		9999	4630	0	0	0
2019/08/02 12:34:00	BASE	5.20	92	7.00	87	-4.0	49	-13.1	1	0	989.4	NA	0.0000		9999	4690	0	0	0
2019/08/02 12:35:00	BASE	5.20	94	7.00	87	-4.1	50	-13.0	1	0	989.4	NA	0.0000		9999	4720	0	0	0
2019/08/02 12:36:00	BASE	4.39	89	7.00	87	-4.1	50	-13.0	1	0	989.3	NA	0.0000		9999	4660	0	0	0
2019/08/02 12:37:00	BASE	2.93	82	7.00	87	-4.0	49	-13.1	1	0	989.2	NA	0.0000		9999	3450	0	0	0
2019/08/02 12:38:00	BASE	2.18	90	7.00	87	-3.9	48	-13.2	1	0	989.2	NA	0.0000		9999	4660	0	0	0
2019/08/02 12:39:00	BASE	1.08	85	7.00	87	-3.7	47	-13.3	1	0	989.2	NA	0.0000		9999	4590	0	0	0
2019/08/02 12:40:00	BASE	0.04	93	7.00	87	-3.5	46	-13.5	1	0	989.2	NA	0.0000		9999	4590	0	0	0
2019/08/02 12:41:00	BASE	0.00	108	6.33	87	-3.4	45	-13.6	1	0	989.2	NA	0.0000		9999	4590	0	0	0
2019/08/02 12:42:00	BASE	0.00	107	6.07	93	-3.3	44	-13.8	1	0	989.2	NA	0.0000		9999	4630	0	0	0
2019/08/02 12:43:00	BASE	0.32	115	6.07	93	-3.2	44	-13.9	1	0	989.2	NA	0.0000		9999	4630	0	0	0
2019/08/02 12:44:00	BASE	1.21	104	6.07	93	-3.3	44	-13.9	1	0	989.3	NA	0.0000		9999	4690	0	0	0
2019/08/02 12:45:00	BASE	1.61	87	4.58	91	-3.3	44	-13.9	1	0	989.2	NA	0.0000		9999	4690	0	0	0
2019/08/02 12:46:00	BASE	1.46	93	3.14	100	-3.4	44	-13.8	1	0	989.2	NA	0.0000		9999	4660	0	0	0
2019/08/02 12:47:00	BASE	1.43	101	3.14	100	-3.4	45	-13.7	1	0	989.2	NA	0.0000		9999	4660	0	0	0
2019/08/02 12:48:00	BASE	1.20	113	2.06	93	-3.5	46	-13.5	1	0	989.2	NA	0.0000		9999	3610	0	0	0
2019/08/02 12:49:00	BASE	0.61	123	2.06	93	-3.6	47	-13.4	1	0	989.2	NA	0.0000		9999	4660	0	0	0
2019/08/02 12:50:00	BASE	0.72	127	2.68	90	-3.7	47	-13.3	2	0	989.2	NA	0.0000		9999	4720	0	0	0
2019/08/02 12:51:00	BASE	2.11	100	3.70	79	-3.9	49	-13.1	2	0	989.2	NA	0.0000		9999	3410	4690	0	0
2019/08/02 12:52:00	BASE	2.38	60	3.70	79	-4.0	49	-13.0	2	0	989.2	NA	0.0000		9999	4760	0	0	0
2019/08/02 12:53:00	BASE	2.13	45	3.70	79	-3.9	49	-13.0	2	0	989.2	NA	0.0000		9999	3410	4790	0	0
2019/08/02 12:54:00	BASE	2.65	45	4.01	50	-3.8	49	-13.0	2	0	989.2	NA	0.0000		9999	4860	0	0	0
2019/08/02 12:55:00	BASE	2.65	35	4.01	50	-3.8	49	-12.9	2	0	989.2	NA	0.0000		9999	4920	0	0	0
2019/08/02 12:56:00	BASE	2.54	18	4.01	50	-3.6	49	-12.9	2	0	989.1	NA	0.0000		9999	4890	6170	0	0
2019/08/02 12:57:00	BASE	2.56	5	4.01	50	-3.6	49	-12.7	3	0	989.1	NA	0.0000		9999	4890	6000	0	0
2019/08/02 12:58:00	BASE	2.44	3	4.01	50	-3.7	50	-12.6	3	0	989.2	NA	0.0000		9999	4860	6040	0	0
2019/08/02 12:59:00	BASE	2.29	357	4.01	50	-3.7	51	-12.5	3	0	989.2	NA	0.0000		9999	4820	6070	0	0
2019/08/02 13:00:00	BASE	2.04	344	4.01	50	-3.8	51	-12.4	3	0	989.1	NA	0.0000		9999	4890	5810	0	0
2019/08/02 13:01:00	BASE	1.94	340	4.01	50	-3.8	51	-12.4	4	0	989.1	NA	0.0000		9999	4950	0	0	0
2019/08/02 13:02:00	BASE	2.20	328	4.01	50	-3.8	51	-12.5	4	0	989.1	NA	0.0000		9999	4920	0	0	0
2019/08/02 13:03:00	BASE	2.49	321	4.01	50	-3.7	51	-12.5	4	0	989.1	NA	0.0000		9999	4950	0	0	0
2019/08/02 13:04:00	BASE	1.89	336	3.04	41	-3.7	51	-12.4	4	0	989.1	NA	0.0000		9999	4950	6140	0	0
2019/08/02 13:05:00	BASE	0.88	5	2.93	320	-3.8	52	-12.3	5	0	989.1	NA	0.0000		9999	4990	0	0	0
2019/08/02 13:06:00	BASE	0.35	49	2.93	320	-3.8	52	-12.2	5	0	989.1	NA	0.0000		9999	5050	0	0	0
2019/08/02 13:07:00	BASE	0.05	88	2.93	320	-3.8	53	-12.1	5	0	989.1	NA	0.0000		9999	5050	0	0	0
2019/08/02 13:08:00	BASE	0.41	105	2.93	320	-3.8	53	-12.0	6	0	989.1	NA	0.0000		9999	5090	0	0	0
2019/08/02 13:09:00	BASE	1.06	113	2.93	320	-3.9	53	-12.1	6	0	989.1	NA	0.0000		9999	5050	0	0	0
2019/08/02 13:10:00	BASE	1.03	113	2.93	320	-3.8	52	-12.2	6	0	989.1	NA	0.0000		9999	5090	0	0	0
2019/08/02 13:11:00	BASE	0.56	108	2.93	320	-3.7	51	-12.3	6	0	989.1	NA	0.0000		9999	5050	0	0	0
2019/08/02 13:12:00	BASE	1.27	123	3.19	130	-3.6	51	-12.4	6	0	989.1	NA	0.0000		9999	5050	0	0	0
2019/08/02 13:13:00	BASE	2.29	140	3.19	140	-3.5	50	-12.4	7	0	989.1	NA	0.0000		9999	4990	0	0	0
2019/08/02 13:14:00	BASE	2.33	137	3.19	140	-3.6	50	-12.5	7	0	989.1	NA	0.0000		9999	5090	0	0	0
2019/08/02 13:15:00	BASE	2.36	129	3.50	142	-3.6	51	-12.4	7	0	989.1	NA	0.0000		9999	4990	5810	0	0
2019/08/02 13:16:00	BASE	3.35	118	5.45	118	-3.7	51	-12.4	7	0	989.1	NA	0.0000		9999	4920	6040	0	0
2019/08/02 13:17:00	BASE	4.44	100	5.45	118	-3.8	52	-12.2	7	0	989.1	NA	0.0000		9999	4990	0	0	0
2019/08/02 13:18:00	BASE	4.50	80	5.61	71	-3.9	53	-12.0	7	0	989.1	NA	0.0000		9999	5020	0	0	0
2019/08/02 13:19:00	BASE	3.47	74	5.61	71	-3.8	53	-11.9	7	0	989.1	NA	0.0000		9999	4950	0	0	0
2019/08/02 13:20:00	BASE	2.78	76	5.61	71	-3.6	53	-11.9	7	0	989.1	NA	0.0000		9999	4920	0	0	0
2019/08/02 13:21:00	BASE	3.33	74	5.61	71	-3.5	53	-11.9	7	0	989.1	NA	0.0000		9999	4860	0	0	0
2019/08/02 13:22:00	BASE	3.51	61	5.61	71	-3.4	52	-11.8	7	0	989.1	NA	0.0000		9999	4760	0	0	0
2019/08/02 13:23:00	BASE	3.27	48	5.61	71	-3.3	52	-11.8	7	0	989.1	NA	0.0000		9999	4760	0	0	0
2019/08/02 13:24:00	BASE	2.75	37	5.61	71	-3.3	52	-11.8	7	0	989.1	NA	0.0000		9999	4820	0	0	0
2019/08/02 13:25:00	BASE	2.19	26	5.61	71	-3.4	53	-11.6	7	0	989.1	NA	0.0000		9999	4820	0	0	0
2019/08/02 13:26:00	BASE	1.81	25	5.61	71	-3.4	54	-11.5	7	0	989.1	NA	0.0000		9999	4760	0	0	0
2019/08/02 13:27:00	BASE	1.43	29	5.61	71	-3.4	54	-11.4	7	0	989.1	NA	0.0000		9999	4860	0	0	0
2019/08/02 13:28:00	BASE	1.05	42	3.96	74	-3.4	54	-11.4	7	0	989.1	NA	0.0000		9999	4790	0	0	0
2019/08/02 13:29:00	BASE	1.05	54	3.96	74	-3.4	54	-11.4	7	0	989.1	NA	0.0000		9999	4790	0	0	0
2019/08/02 13:30:00	BASE	1.22	32	3.96	74	-3.5	54	-11.4	7	0	989.2	NA	0.0000		9999	4820	0	0	0
2019/08/02 13:31:00	BASE	0.57	359	3.50	44	-3.4	53	-11.6	8	0	989.2	NA	0.0000		9999	4890	0	0	0
2019/08/02 13:32:00	BASE	0.00	330	3.45	48	-3.4	53	-11.7	8	0	989.2	NA	0.0000		9999	4860	0	0	0
2019/08/02 13:33:00	BASE	0.00	304	3.19	20	-3.4	52	-11.7	8	0	989.2	NA	0.0000		9999	4790	0	0	0
2019/08/02 13:34:00	BASE	0.21	319	3.19	20	-3.4	52	-11.7	8	0	989.2	NA	0.0000		9999	4820	0	0	0
2019/08/02 13:35:00	BASE	0.61	7	1.85	20	-3.3	52	-11.7	8	0	989.2	NA	0.0000		9999	4820	0	0	0
2019/08/02 13:36:00	BASE	1.61	21	4.12	8	-3.3	52	-11.7	9	0	989.2	NA	0.0000		9999	4860	0	0	0
2019/08/02 13:37:00	BASE	3.07	12	4.12	8	-3.3	53	-11.6	9	0	989.2	NA	0.0000		9999	4820	0	0	0
2019/08/02 13:38:00	BASE	3.59	6	4.27	2	-3.4	53	-11.5	10	0	989.2	NA	0.0000		9999	4790	0	0	0
2019/08/02 13:39:00	BASE	3.99	15	5.14	19	-3.4	54	-11.4	10	0	989.2	NA	0.0000		9999	4890	5640	0	0
2019/08/02 13:40:00	BASE	4.26	16	5.14	19	-3.4	54	-11.4	11	0	989.1	NA	0.0000		9999	5120	0	0	0
2019/08/02 13:41:00	BASE	3.75	1	5.14	19	-3.5	55	-11.2	11	0	989.1	NA	0.0000		9999	5410	5770	0	0
2019/08/02 13:42:00	BASE	3.28	345	5.14	19	-3.4	55	-11.1	12	0	989.1	NA	0.0000		9999	5180	0	0	0
2019/08/02 13:43:00	BASE	3.28	349	5.14	19	-3.4	55	-11.1	13	0	989.1	NA	0.0000		9999	5450	5970	0	0
2019/08/02 13:44:00	BASE	3.61	2	5.14	19	-3.4	56	-11.0	14	0	989.1	NA	0.0000		9999	5480	6140	0	0
2019/08/02 13:45:00	BASE	4.12	10	5.35	20	-3.4	56	-10.9	15	0	989.1	NA	0.0000		9999	5540	0	0	0
2019/08/02 13:46:00	BASE	4.69	15	5.71	21	-3.4	56	-10.9	15	0	989.2	NA	0.0000		9999	5580	6140	0	0
2019/08/02 13:47:00	BASE	4.49	9	5.71	21	-3.5	57	-10.8	16	0	989.2	NA	0.0000		9999	5610	6170	0	0
2019/08/02 13:48:00	BASE	4.33	10	5.71	21	-3.5	58	-10.7	17	0	989.2	NA	0.0000		9999	6200	0	0	0
2019/08/02 13:49:00	BASE	3.88	5	5.71	21	-3.5	57	-10.7	18	0	989.2	NA	0.0000		9999	6000	0	0	0
2019/08/02 13:50:00	BASE	3.31	5	5.71	21	-3.5	57	-10.8	18	0	989.2	NA	0.0000		9999	6100	0	0	0
2019/08/02 13:51:00	BASE	3.36	30	5.71	21	-3.5	57	-10.8	19	0	989.2	NA	0.0000		9999	6200	0	0	0
2019/08/02 13:52:00	BASE	3.41	46	5.71	21	-3.5	56	-10.9	20	0	989.2	NA	0.0000		9999	4920	6200	10340	0
2019/08/02 13:53:00	BASE	2.46	42	5.71	21	-3.5	56	-11.0	21	0	989.2	NA	0.0000		9999	4920	6100	0	0
2019/08/02 13:54:00	BASE	0.72	352	5.71	21	-3.4	56	-11.0	21	0	989.1	NA	0.0000		9999	4950	6170	0	0
2019/08/02 13:55:00	BASE	0.13	260	5.71	21	-3.4	55	-11.1	22	0	989.1	NA	0.0000		9999	4920	6230	0	0
2019/08/02 13:56:00	BASE	0.13	276	5.25	26	-3.3	54	-11.2	22	0	989.1	NA	0.0000		9999	6000	10040	0	0
2019/08/02 13:57:00	BASE	0.00	292	5.25	26	-3.2	53	-11.4	23	0	989.1	NA	0.0000		9999	5970	0	0	0
2019/08/02 13:58:00	BASE	0.00	255	4.89	41	-3.2	53	-11.5	23	0	989.1	NA	0.0000		9999	4920	6040	0	0
2019/08/02 13:59:00	BASE	0.23	209	4.89	41	-3.2	53	-11.5	23	0	989.1	NA	0.0000		9999	4990	6100	0	0
2019/08/02 14:00:00	BASE	0.87	199	4.89	41	-3.3	54	-11.4	23	0	989.1	NA	0.0000		9999	5940	0	0	0
2019/08/02 14:01:00	BASE	1.19	202	4.89	41	-3.3	54	-11.2	24	0	989.1	NA	0.0000		9999	6040	0	0	0
2019/08/02 14:02:00	BASE	0.55	213	3.09	44	-3.4	55	-11.1	24	0	989.1	NA	0.0000		9999	6040	10010	0	0
2019/08/02 14:03:00	BASE	0.00	221	1.49	206	-3.4	56	-10.9	24	0	989.1	NA	0.0000		9999	6170	10010	0	0
2019/08/02 14:04:00	BASE	0.00	218	1.49	206	-3.5	57	-10.9	25	0	989.1	NA	0.0000		9999	6200	9380	10040	0
2019/08/02 14:05:00	BASE	0.00	222	1.49	206	-3.5	57	-10.9	25	0	989.1	NA	0.0000		9999	6170	9290	10070	0
2019/08/02 14:06:00	BASE	0.00	227	1.49	206	-3.6	57	-10.9	26	0	989.1	NA	0.0000		9999	9320	10070	0	0
2019/08/02 14:07:00	BASE	0.00	223	1.49	206	-3.6	57	-10.9	26	0	989.1	NA	0.0000		9999	8860	10140	0	0
2019/08/02 14:08:00	BASE	0.13	225	1.49	206	-3.6	57	-10.9	27	0	989.1	NA	0.0000		9999	6140	8890	10200	0
2019/08/02 14:09:00	BASE	0.13	223	1.49	206	-3.6	57	-11.0	27	0	989.1	NA	0.0000		9999	9090	0	0	0
2019/08/02 14:10:00	BASE	0.00	208	1.39	196	-3.5	56	-11.0	27	0	989.1	NA	0.0000		9999	9680	0	0	0
2019/08/02 14:11:00	BASE	0.00	209	1.08	233	-3.5	56	-11.0	28	0	989.1	NA	0.0000		9999	6040	9970	0	0
2019/08/02 14:12:00	BASE	0.05	236	1.08	256	-3.6	56	-11.1	28	0	989.1	NA	0.0000		9999	6170	10040	0	0
2019/08/02 14:13:00	BASE	0.67	264	1.65	282	-3.6	56	-11.1	28	0	989.1	NA	0.0000		9999	6070	9940	0	0
2019/08/02 14:14:00	BASE	1.29	277	1.65	282	-3.6	57	-11.0	28	0	989.1	NA	0.0000		9999	9510	0	0	0
2019/08/02 14:15:00	BASE	1.41	281	1.65	282	-3.6	57	-10.9	29	0	989.1	NA	0.0000		9999	9650	0	0	0
2019/08/02 14:16:00	BASE	1.57	290	2.01	304	-3.6	58	-10.8	29	0	989.1	NA	0.0000		9999	9740	0	0	0
2019/08/02 14:17:00	BASE	1.79	306	2.06	317	-3.5	58	-10.6	30	0	989.1	NA	0.0000		9999	9840	0	0	0
2019/08/02 14:18:00	BASE	1.89	319	2.06	317	-3.5	59	-10.5	30	0	989.1	NA	0.0000		9999	9880	10430	0	0
2019/08/02 14:19:00	BASE	1.76	333	2.06	317	-3.5	59	-10.4	30	0	989.1	NA	0.0000		9999	10010	10500	0	0
2019/08/02 14:20:00	BASE	1.51	337	2.06	317	-3.5	59	-10.3	30	0	989.1	NA	0.0000		9999	10010	0	0	0
2019/08/02 14:21:00	BASE	0.87	334	2.06	317	-3.5	59	-10.3	30	0	989.1	NA	0.0000		9999	9510	0	0	0
2019/08/02 14:22:00	BASE	0.24	337	2.06	317	-3.5	59	-10.3	30	0	989.1	NA	0.0000		9999	9970	0	0	0
2019/08/02 14:23:00	BASE	0.37	345	2.06	317	-3.5	60	-10.2	30	0	989.1	NA	0.0000		9999	9970	0	0	0
2019/08/02 14:24:00	BASE	0.41	341	2.06	317	-3.4	60	-10.1	30	0	989.1	NA	0.0000		9999	9970	0	0	0
2019/08/02 14:25:00	BASE	0.44	334	2.06	317	-3.4	60	-10.0	30	0	989.1	NA	0.0000		9999	9970	0	0	0
2019/08/02 14:26:00	BASE	1.11	338	2.06	317	-3.4	61	-9.9	30	0	989.1	NA	0.0000		9999	9940	0	0	0
2019/08/02 14:27:00	BASE	1.93	342	2.68	339	-3.4	61	-9.9	30	0	989.1	NA	0.0000		9999	10010	0	0	0
2019/08/02 14:28:00	BASE	2.37	348	2.68	339	-3.4	61	-9.8	30	0	989.1	NA	0.0000		9999	6230	10040	0	0
2019/08/02 14:29:00	BASE	2.53	6	2.88	14	-3.4	61	-9.9	30	0	989.1	NA	0.0000		9999	6170	10040	0	0
2019/08/02 14:30:00	BASE	2.71	16	2.88	9	-3.4	61	-9.9	30	0	989.1	NA	0.0000		9999	6100	10110	0	0
2019/08/02 14:31:00	BASE	2.80	19	2.98	31	-3.5	61	-10.0	29	0	989.1	NA	0.0000		9999	6040	0	0	0
2019/08/02 14:32:00	BASE	2.81	26	2.98	26	-3.5	61	-10.0	29	0	989.1	NA	0.0000		9999	5940	0	0	0
2019/08/02 14:33:00	BASE	2.77	21	2.98	18	-3.5	61	-10.0	28	0	989.1	NA	0.0000		9999	6040	0	0	0
2019/08/02 14:34:00	BASE	2.89	15	3.09	14	-3.6	61	-10.0	28	0	989.1	NA	0.0000		9999	6100	0	0	0
2019/08/02 14:35:00	BASE	3.09	18	3.45	23	-3.6	61	-10.0	27	0	989.1	NA	0.0000		9999	5610	0	0	0
2019/08/02 14:36:00	BASE	3.14	21	3.50	19	-3.6	62	-9.8	27	0	989.1	NA	0.0000		9999	5540	0	0	0
2019/08/02 14:37:00	BASE	3.02	17	3.50	19	-3.6	62	-9.8	26	0	989.1	NA	0.0000		9999	5940	0	0	0
2019/08/02 14:38:00	BASE	2.85	13	3.50	19	-3.6	62	-9.8	25	0	989.1	NA	0.0000		9999	5680	0	0	0
2019/08/02 14:39:00	BASE	2.71	11	3.50	19	-3.6	62	-9.9	25	0	989.1	NA	0.0000		9999	5910	0	0	0
2019/08/02 14:40:00	BASE	2.69	6	3.50	19	-3.6	61	-9.9	24	0	989.1	NA	0.0000		9999	5610	0	0	0
2019/08/02 14:41:00	BASE	2.60	3	3.50	19	-3.6	61	-10.0	23	0	989.1	NA	0.0000		9999	5810	0	0	0
2019/08/02 14:42:00	BASE	2.48	360	3.50	19	-3.6	61	-10.0	23	0	989.1	NA	0.0000		9999	5770	0	0	0
2019/08/02 14:43:00	BASE	2.49	1	3.50	19	-3.5	61	-10.0	22	0	989.1	NA	0.0000		9999	5510	0	0	0
2019/08/02 14:44:00	BASE	2.64	4	3.50	19	-3.5	61	-10.0	22	0	989.1	NA	0.0000		9999	5540	0	0	0
2019/08/02 14:45:00	BASE	2.73	4	3.50	19	-3.5	61	-10.0	22	0	989.1	NA	0.0000		9999	3870	0	0	0
2019/08/02 14:46:00	BASE	2.93	6	3.19	15	-3.5	61	-10.0	21	0	989.1	NA	0.0000		9999	3870	5870	0	0
2019/08/02 14:47:00	BASE	3.06	10	3.19	15	-3.5	61	-10.0	21	0	989.1	NA	0.0000		9999	3970	5090	5940	0
2019/08/02 14:48:00	BASE	2.93	11	3.19	15	-3.6	61	-10.0	21	0	989.1	NA	0.0000		9999	4000	4860	5910	0
2019/08/02 14:49:00	BASE	2.86	11	3.19	15	-3.6	62	-9.9	21	0	989.1	NA	0.0000		9999	4100	5870	0	0
2019/08/02 14:50:00	BASE	2.92	11	3.19	11	-3.7	63	-9.7	21	0	989.1	NA	0.0000		9999	4000	5870	0	0
2019/08/02 14:51:00	BASE	3.10	14	3.34	15	-3.8	64	-9.6	21	0	989.1	NA	0.0000		9999	3840	5710	0	0
2019/08/02 14:52:00	BASE	3.17	16	3.34	13	-3.9	65	-9.4	22	0	989.1	NA	0.0000		9999	3810	5510	0	0
2019/08/02 14:53:00	BASE	2.97	17	3.34	13	-3.9	66	-9.3	22	0	989.1	NA	0.0000		9999	3740	5640	0	0
2019/08/02 14:54:00	BASE	2.72	25	3.34	13	-3.9	66	-9.3	22	0	989.1	NA	0.0000		9999	3580	5740	0	0
2019/08/02 14:55:00	BASE	2.70	32	3.34	13	-3.9	66	-9.3	23	0	989.1	NA	0.0000		9999	3510	5940	0	0
2019/08/02 14:56:00	BASE	2.84	34	3.34	13	-3.9	66	-9.3	24	0	989.1	NA	0.0000		9999	3540	4820	5910	0
2019/08/02 14:57:00	BASE	2.91	36	3.34	13	-3.9	66	-9.3	24	0	989.1	NA	0.0000		9999	3640	4820	5810	0
2019/08/02 14:58:00	BASE	3.04	39	3.50	31	-3.9	66	-9.4	25	0	989.1	NA	0.0000		9999	3510	5810	0	0
2019/08/02 14:59:00	BASE	3.10	44	3.50	31	-3.9	66	-9.3	25	0	989.1	NA	0.0000		9999	3510	5740	0	0
2019/08/02 15:00:00	BASE	2.92	48	3.50	31	-3.9	66	-9.3	26	0	989.1	NA	0.0000		9999	3610	4820	0	0
2019/08/02 15:01:00	BASE	3.08	50	3.65	51	-3.9	65	-9.4	26	0	989.1	NA	0.0000		9999	3610	5740	0	0
2019/08/02 15:02:00	BASE	3.42	48	4.01	43	-3.8	65	-9.5	27	0	989.1	NA	0.0000		9999	3510	4630	0	0
2019/08/02 15:03:00	BASE	3.50	46	4.37	45	-3.8	64	-9.7	27	0	989.1	NA	0.0000		9999	3540	5540	0	0
2019/08/02 15:04:00	BASE	3.49	47	4.37	45	-3.8	62	-9.9	27	0	989.1	NA	0.0000		9999	4040	0	0	0
2019/08/02 15:05:00	BASE	3.34	52	4.37	45	-3.7	62	-10.0	26	0	989.1	NA	0.0000		9999	4100	5320	0	0
2019/08/02 15:06:00	BASE	3.00	48	4.37	45	-3.7	61	-10.1	26	0	989.1	NA	0.0000		9999	3250	4130	5120	0
2019/08/02 15:07:00	BASE	2.37	30	4.37	45	-3.7	61	-10.2	25	0	989.1	NA	0.0000		9999	3280	4790	5740	0
2019/08/02 15:08:00	BASE	1.97	12	4.37	45	-3.7	61	-10.2	25	0	989.1	NA	0.0000		9999	3180	4760	5810	0
2019/08/02 15:09:00	BASE	1.91	1	4.37	45	-3.6	60	-10.2	24	0	989.1	NA	0.0000		9999	3220	5090	0	0
2019/08/02 15:10:00	BASE	2.01	356	4.37	45	-3.6	59	-10.4	23	0	989.1	NA	0.0000		9999	3150	3940	5770	0
2019/08/02 15:11:00	BASE	2.33	350	4.37	45	-3.5	59	-10.5	23	0	989.1	NA	0.0000		9999	3220	5810	0	0
2019/08/02 15:12:00	BASE	2.39	356	4.37	45	-3.5	58	-10.6	23	0	989.1	NA	0.0000		9999	3280	4070	5810	0
2019/08/02 15:13:00	BASE	2.28	13	3.65	63	-3.5	57	-10.7	23	0	989.1	NA	0.0000		9999	3220	5840	0	0
2019/08/02 15:14:00	BASE	2.20	28	3.65	63	-3.5	57	-10.7	23	0	989.1	NA	0.0000		9999	3080	4400	0	0
2019/08/02 15:15:00	BASE	2.11	33	3.09	33	-3.5	57	-10.7	23	0	989.1	NA	0.0000		9999	3280	6040	0	0
2019/08/02 15:16:00	BASE	2.04	29	2.68	346	-3.5	57	-10.8	24	0	989.1	NA	0.0000		9999	3220	4330	0	0
2019/08/02 15:17:00	BASE	1.92	30	2.68	346	-3.5	57	-10.8	24	0	989.1	NA	0.0000		9999	3250	4360	5050	0
2019/08/02 15:18:00	BASE	1.82	34	2.68	346	-3.5	57	-10.8	25	0	989.1	NA	0.0000		9999	3150	4270	6000	0
2019/08/02 15:19:00	BASE	1.77	31	2.68	346	-3.5	57	-10.9	25	0	989.1	NA	0.0000		9999	3150	4230	6140	0
2019/08/02 15:20:00	BASE	1.67	27	2.68	346	-3.5	57	-10.9	26	0	989.1	NA	0.0000		9999	3150	4070	6230	0
2019/08/02 15:21:00	BASE	1.63	28	2.62	33	-3.5	57	-10.9	26	0	989.1	NA	0.0000		9999	3180	4200	6300	0
2019/08/02 15:22:00	BASE	1.86	30	2.62	33	-3.6	57	-10.9	27	0	989.1	NA	0.0000		9999	3280	4430	6400	0
2019/08/02 15:23:00	BASE	1.87	22	2.62	33	-3.6	57	-10.9	28	0	989.1	NA	0.0000		9999	3380	4630	6370	0
2019/08/02 15:24:00	BASE	2.00	17	2.62	33	-3.6	57	-10.8	29	0	989.1	NA	0.0000		9999	3310	6400	0	0
2019/08/02 15:25:00	BASE	1.89	18	2.52	21	-3.5	57	-10.8	29	0	989.1	NA	0.0000		9999	3280	6400	0	0
2019/08/02 15:26:00	BASE	1.79	16	2.52	14	-3.5	57	-10.8	30	0	989.1	NA	0.0000		9999	3310	6460	0	0
2019/08/02 15:27:00	BASE	1.65	14	2.52	14	-3.5	57	-10.7	30	0	989.1	NA	0.0000		9999	3740	6400	0	0
2019/08/02 15:28:00	BASE	1.79	356	4.06	343	-3.5	58	-10.7	31	0	989.1	NA	0.0000		9999	3670	0	0	0
2019/08/02 15:29:00	BASE	2.98	338	4.06	343	-3.5	58	-10.5	31	0	989.1	NA	0.0000		9999	6460	0	0	0
2019/08/02 15:30:00	BASE	3.67	335	4.06	343	-3.6	60	-10.3	31	0	989.1	NA	0.0000		9999	3640	5540	0	0
2019/08/02 15:31:00	BASE	3.91	335	4.48	335	-3.6	61	-10.0	31	0	989.1	NA	0.0000		9999	3350	6330	0	0
2019/08/02 15:32:00	BASE	4.18	337	4.48	335	-3.7	62	-9.8	31	0	989.1	NA	0.0000		9999	3310	4590	0	0
2019/08/02 15:33:00	BASE	4.31	337	4.84	337	-3.7	63	-9.7	30	0	989.1	NA	0.0000		9999	2620	4720	6270	0
2019/08/02 15:34:00	BASE	4.07	333	4.84	337	-3.7	63	-9.6	30	0	989.1	NA	0.0000		9999	2850	5450	0	0
2019/08/02 15:35:00	BASE	3.66	330	4.84	337	-3.6	63	-9.6	30	0	989.1	NA	0.0000		9999	2790	5350	0	0
2019/08/02 15:36:00	BASE	3.53	327	4.84	337	-3.6	63	-9.6	30	0	989.1	NA	0.0000		9999	2490	4490	0	0
2019/08/02 15:37:00	BASE	3.28	322	4.84	337	-3.6	63	-9.5	30	0	989.1	NA	0.0000		9999	2330	5940	0	0
2019/08/02 15:38:00	BASE	3.43	320	4.84	337	-3.6	64	-9.5	30	0	989.1	NA	0.0000		9999	2330	4400	5970	0
2019/08/02 15:39:00	BASE	4.05	318	4.84	337	-3.6	64	-9.4	30	0	989.1	NA	0.0000		9999	2200	4530	0	0
2019/08/02 15:40:00	BASE	4.41	322	4.84	337	-3.6	64	-9.3	30	0	989.1	NA	0.0000		9999	3640	5510	0	0
2019/08/02 15:41:00	BASE	4.35	328	4.84	337	-3.6	64	-9.3	30	0	989.1	NA	0.0000		9999	3310	5940	0	0
2019/08/02 15:42:00	BASE	4.07	331	4.84	337	-3.6	64	-9.4	30	0	989.1	NA	0.0000		9999	2130	5410	0	0
2019/08/02 15:43:00	BASE	4.12	330	4.78	322	-3.6	64	-9.5	30	0	989.1	NA	0.0000		9999	3540	5870	0	0
2019/08/02 15:44:00	BASE	4.44	329	4.89	333	-3.5	63	-9.6	30	0	989.2	NA	0.0000		9999	3580	5250	0	0
2019/08/02 15:45:00	BASE	4.43	331	4.89	333	-3.5	62	-9.7	30	0	989.1	NA	0.0000		9999	2360	5810	0	0
2019/08/02 15:46:00	BASE	4.77	340	6.07	342	-3.5	62	-9.8	31	0	989.1	NA	0.0000		9999	2430	5020	0	0
2019/08/02 15:47:00	BASE	5.49	347	7.15	349	-3.5	61	-9.9	32	0	989.1	NA	0.0000		9999	2260	3770	5810	0
2019/08/02 15:48:00	BASE	5.98	351	7.15	349	-3.4	61	-9.9	32	0	989.1	NA	0.0000		9999	2170	3580	5740	0
2019/08/02 15:49:00	BASE	5.72	352	7.15	349	-3.3	60	-10.0	33	0	989.1	NA	0.0000		9999	2230	5710	0	0
2019/08/02 15:50:00	BASE	4.84	359	7.15	349	-3.3	59	-10.2	33	0	989.1	NA	0.0000		9999	2230	5450	0	0
2019/08/02 15:51:00	BASE	4.79	0	7.15	349	-3.2	58	-10.3	34	0	989.1	NA	0.0000		9999	2030	4330	0	0
2019/08/02 15:52:00	BASE	5.07	358	7.15	349	-3.2	57	-10.4	34	0	989.1	NA	0.0000		9999	1900	3580	4590	0
2019/08/02 15:53:00	BASE	4.94	3	7.15	349	-3.2	57	-10.5	34	0	989.1	NA	0.0000		9999	1840	3610	4760	0
2019/08/02 15:54:00	BASE	4.68	10	7.15	349	-3.3	58	-10.4	34	0	989.1	NA	0.0000		9999	1840	2920	5580	0
2019/08/02 15:55:00	BASE	4.17	20	7.15	349	-3.3	58	-10.4	35	0	989.1	NA	0.0000		9999	1800	5540	6230	0
2019/08/02 15:56:00	BASE	3.87	20	7.15	349	-3.3	58	-10.3	35	0	989.1	NA	0.0000		9999	2890	5480	0	0
2019/08/02 15:57:00	BASE	3.87	19	6.74	350	-3.2	58	-10.3	35	0	989.1	NA	0.0000		9999	2950	5480	0	0
2019/08/02 15:58:00	BASE	3.81	19	5.61	2	-3.2	58	-10.2	35	0	989.1	NA	0.0000		9999	4560	5510	0	0
2019/08/02 15:59:00	BASE	4.33	14	5.61	2	-3.2	58	-10.2	35	0	989.1	NA	0.0000		9999	2920	5540	0	0
2019/08/02 16:00:00	BASE	5.06	7	5.61	2	-3.2	59	-10.2	35	0	989.1	NA	0.0000		9999	5580	0	0	0
2019/08/02 16:01:00	BASE	5.26	359	5.66	1	-3.2	59	-10.1	35	0	989.1	NA	0.0000		9999	5610	0	0	0
2019/08/02 16:02:00	BASE	5.19	352	6.43	352	-3.2	59	-10.1	36	0	989.1	NA	0.0000		9999	3050	5610	0	0
2019/08/02 16:03:00	BASE	5.68	352	6.48	346	-3.2	59	-10.1	36	0	989.1	NA	0.0000		9999	2920	5640	0	0
2019/08/02 16:04:00	BASE	6.16	351	6.79	352	-3.1	58	-10.1	37	0	989.1	NA	0.0000		9999	2920	5680	0	0
2019/08/02 16:05:00	BASE	6.22	350	6.79	352	-3.0	58	-10.2	38	0	989.1	NA	0.0000		9999	3480	5480	0	0
2019/08/02 16:06:00	BASE	6.48	349	6.94	353	-3.0	57	-10.2	39	0	989.1	NA	0.0000		9999	3770	5480	0	0
2019/08/02 16:07:01	BASE	6.48	347	6.94	353	-2.9	57	-10.3	40	0	989.1	NA	0.0000		9999	4130	5510	0	0
2019/08/02 16:08:00	BASE	6.48	349	6.94	353	-2.9	57	-10.3	41	0	989.1	NA	0.0000		9999	5540	0	0	0
2019/08/02 16:09:00	BASE	6.52	353	7.05	360	-2.9	57	-10.2	43	0	989.1	NA	0.0000		9999	5580	0	0	0
2019/08/02 16:10:00	BASE	6.56	355	7.15	354	-2.8	57	-10.2	44	0	989.1	NA	0.0000		9999	5640	0	0	0
2019/08/02 16:11:00	BASE	6.64	357	7.51	354	-2.8	57	-10.1	45	0	989.1	NA	0.0000		9999	5680	0	0	0
2019/08/02 16:12:00	BASE	6.55	359	7.51	354	-2.9	58	-10.1	46	0	989.1	NA	0.0000		9999	5710	0	0	0
2019/08/02 16:13:00	BASE	6.51	359	7.51	354	-2.9	58	-10.0	47	0	989.1	NA	0.0000		9999	4820	5710	0	0
2019/08/02 16:14:00	BASE	6.60	357	7.51	354	-2.9	58	-10.0	49	0	989.1	NA	0.0000		9999	4760	5380	0	0
2019/08/02 16:15:00	BASE	6.86	357	8.08	350	-2.9	58	-9.9	50	0	989.1	NA	0.0000		9999	4630	5380	5810	0
2019/08/02 16:16:00	BASE	6.71	357	8.08	350	-2.9	59	-9.9	51	0	989.1	NA	0.0000		9999	4560	5580	0	0
2019/08/02 16:17:00	BASE	6.60	352	8.08	350	-2.9	59	-9.8	51	0	989.1	NA	0.0000		9999	4530	5840	0	0
2019/08/02 16:18:00	BASE	6.80	351	8.08	350	-2.9	59	-9.8	52	0	989.1	NA	0.0000		9000	4460	0	0	0
2019/08/02 16:19:00	BASE	6.64	355	8.08	350	-2.9	60	-9.7	53	0	989.1	NA	0.0000		9999	4530	0	0	0
2019/08/02 16:20:00	BASE	6.70	358	8.08	350	-2.9	60	-9.6	53	0	989.1	NA	0.0000		9999	4530	0	0	0
2019/08/02 16:21:00	BASE	7.23	355	8.18	1	-2.9	61	-9.4	54	0	989.1	NA	0.0000		9999	4490	0	0	0
2019/08/02 16:22:00	BASE	7.50	348	8.18	1	-2.9	61	-9.3	54	0	989.1	NA	0.0000		9999	4430	0	0	0
2019/08/02 16:23:00	BASE	7.10	346	8.18	1	-2.9	62	-9.2	54	0	989.1	NA	0.0000		9999	4400	0	0	0
2019/08/02 16:24:00	BASE	7.07	345	8.18	352	-2.9	63	-9.0	55	0	989.1	NA	0.0000		9999	4430	0	0	0
2019/08/02 16:25:00	BASE	7.02	348	8.18	352	-2.9	63	-8.9	56	0	989.1	NA	0.0000		9999	4400	0	0	0
2019/08/02 16:26:00	BASE	6.80	352	8.18	352	-2.9	64	-8.8	57	0	989.1	NA	0.0000		9000	4400	0	0	0
2019/08/02 16:27:00	BASE	6.98	355	8.18	352	-2.9	64	-8.8	58	0	989.1	NA	0.0000		9000	4530	0	0	0
2019/08/02 16:28:00	BASE	6.82	352	8.18	352	-2.9	64	-8.7	59	0	989.1	NA	0.0000		9999	4590	0	0	0
2019/08/02 16:29:00	BASE	6.47	350	8.18	352	-2.9	65	-8.6	61	0	989.1	NA	0.0000		9999	4130	0	0	0
2019/08/02 16:30:00	BASE	6.35	352	8.18	352	-2.9	66	-8.5	62	0	989.1	NA	0.0000		9999	4270	22870	0	0
2019/08/02 16:31:00	BASE	6.18	354	8.18	352	-3.0	66	-8.3	64	0	989.1	NA	0.0000		9999	3810	0	0	0
2019/08/02 16:32:00	BASE	5.78	349	8.18	352	-3.0	67	-8.2	65	0	989.1	NA	0.0000		9999	3770	0	0	0
2019/08/02 16:33:00	BASE	5.64	343	8.18	352	-3.0	68	-8.1	67	0	989.2	NA	0.0000		9999	3710	0	0	0
2019/08/02 16:34:00	BASE	6.06	341	7.82	351	-3.0	68	-8.0	68	0	989.2	NA	0.0000		9999	3540	0	0	0
2019/08/02 16:35:00	BASE	5.91	343	7.82	351	-3.0	69	-7.9	68	0	989.2	NA	0.0000		9999	3540	0	0	0
2019/08/02 16:36:00	BASE	5.55	346	7.82	351	-3.0	69	-7.9	68	0	989.2	NA	0.0000		9999	3540	0	0	0
2019/08/02 16:37:00	BASE	5.40	345	7.15	350	-3.0	70	-7.8	67	0	989.2	NA	0.0000		9999	4790	0	0	0
2019/08/02 16:38:00	BASE	5.13	344	7.05	352	-3.0	70	-7.7	66	0	989.2	NA	0.0000		9999	4720	0	0	0
2019/08/02 16:39:00	BASE	5.13	344	6.94	2	-3.0	70	-7.7	65	0	989.2	NA	0.0000		9999	4690	0	0	0
2019/08/02 16:40:00	BASE	5.05	340	6.74	338	-3.0	70	-7.6	63	0	989.2	NA	0.0000		9999	4490	0	0	0
2019/08/02 16:41:00	BASE	5.27	338	6.69	340	-3.0	71	-7.6	62	0	989.2	NA	0.0000		9999	4400	0	0	0
2019/08/02 16:42:00	BASE	5.24	341	6.69	340	-3.0	71	-7.5	61	0	989.3	NA	0.0000		9999	4170	0	0	0
2019/08/02 16:43:00	BASE	4.83	345	6.69	340	-3.0	71	-7.5	61	0	989.3	NA	0.0000		9999	3970	0	0	0
2019/08/02 16:44:00	BASE	4.77	348	6.22	340	-3.0	71	-7.5	60	0	989.4	NA	0.0000		9000	3870	0	0	0
2019/08/02 16:45:00	BASE	4.43	352	6.22	340	-3.0	72	-7.4	59	0	989.4	NA	0.0000		9000	3940	0	0	0
2019/08/02 16:46:00	BASE	3.78	354	6.22	340	-3.0	72	-7.4	58	0	989.4	NA	0.0000		9999	0	0	0	4360
2019/08/02 16:47:00	BASE	3.82	357	6.22	340	-3.0	72	-7.4	57	0	989.4	NA	0.0000		9999	0	0	0	4400
2019/08/02 16:48:00	BASE	4.17	358	6.22	340	-3.0	72	-7.3	55	0	989.4	NA	0.0000	HZ	9999	0	0	0	4560
2019/08/02 16:49:00	BASE	4.34	4	6.22	340	-3.0	72	-7.3	53	0	989.3	NA	0.0000	HZ	9000	0	0	0	4590
2019/08/02 16:50:00	BASE	4.29	8	6.22	340	-3.0	73	-7.2	52	0	989.4	NA	0.0000	HZ	9999	0	0	0	4950
2019/08/02 16:51:00	BASE	3.73	359	5.71	344	-3.0	73	-7.2	50	0	989.2	NA	0.0000	HZ	9000	0	0	0	4230
2019/08/02 16:52:00	BASE	3.02	4	5.04	347	-3.1	74	-7.1	49	0	989.3	NA	0.0000	HZ	8000	0	0	0	4360
2019/08/02 16:53:00	BASE	3.13	14	4.99	8	-3.1	74	-7.1	48	0	989.2	NA	0.0000	UP	9000	0	0	0	4430
2019/08/02 16:54:00	BASE	3.83	17	4.99	8	-3.1	74	-7.1	46	0	989.2	NA	0.0000	UP	8000	0	0	0	4790
2019/08/02 16:55:00	BASE	3.74	19	4.99	8	-3.1	74	-7.1	45	0	989.2	NA	0.0000	UP	8000	0	0	0	4820
2019/08/02 16:56:00	BASE	3.24	24	4.99	8	-3.2	75	-7.0	45	0	989.2	NA	0.0000	UP	8000	0	0	0	4170
2019/08/02 16:57:00	BASE	3.64	28	4.99	8	-3.2	75	-7.0	44	0	989.2	NA	0.0000	UP	8000	0	0	0	4330
2019/08/02 16:58:00	BASE	4.50	25	5.30	20	-3.2	75	-7.0	44	0	989.2	NA	0.0000	UP	9000	0	0	0	4360
2019/08/02 16:59:00	BASE	5.05	22	5.97	16	-3.2	75	-7.0	43	0	989.2	NA	0.0000	UP	9999	0	0	0	4820
2019/08/02 17:00:00	BASE	4.81	19	5.97	16	-3.3	75	-7.0	43	0	989.2	NA	0.0000	UP	9999	0	0	0	4720
2019/08/02 17:01:00	BASE	4.29	19	5.97	16	-3.3	75	-7.0	43	0	989.2	NA	0.0000	UP	9000	0	0	0	4360
2019/08/02 17:02:00	BASE	4.34	21	5.97	16	-3.3	76	-7.0	43	0	989.2	NA	0.0000	UP	9000	0	0	0	4400
2019/08/02 17:03:00	BASE	4.73	21	5.97	16	-3.3	76	-6.9	43	0	989.2	NA	0.0000	UP	9000	0	0	0	4560
2019/08/02 17:04:00	BASE	4.85	21	5.97	16	-3.3	76	-6.8	44	0	989.2	NA	0.0000	UP	9000	0	0	0	4990
2019/08/02 17:05:00	BASE	4.35	27	5.97	16	-3.3	77	-6.8	44	0	989.2	NA	0.0000	UP	9000	0	0	0	5120
2019/08/02 17:06:00	BASE	4.08	32	5.97	16	-3.3	77	-6.7	44	0	989.2	NA	0.0000	UP	9000	0	0	0	5050
2019/08/02 17:07:00	BASE	4.53	26	5.97	16	-3.3	77	-6.7	44	0	989.2	NA	0.0000	UP	9000	3770	0	0	0
2019/08/02 17:08:00	BASE	4.90	26	5.97	16	-3.3	77	-6.7	44	0	989.3	NA	0.0000	UP	9000	0	0	0	4790
2019/08/02 17:09:00	BASE	4.75	29	5.50	23	-3.3	77	-6.8	44	0	989.4	NA	0.0000	UP	9000	0	0	0	4950
2019/08/02 17:10:00	BASE	4.57	25	5.50	23	-3.3	77	-6.8	44	0	989.4	NA	0.0000	UP	9000	3670	0	0	0
2019/08/02 17:11:00	BASE	4.47	24	5.50	23	-3.4	77	-6.8	45	0	989.4	NA	0.0000	UP	9000	3640	0	0	0
2019/08/02 17:12:00	BASE	4.93	30	5.71	29	-3.4	77	-6.8	45	0	989.4	NA	0.0000	UP	9000	2620	0	0	0
2019/08/02 17:13:00	BASE	5.37	34	5.86	39	-3.5	77	-6.9	45	0	989.4	NA	0.0000	UP	9000	2620	0	0	0
2019/08/02 17:14:00	BASE	4.83	36	5.86	39	-3.5	77	-7.0	44	0	989.4	NA	0.0000	UP	9000	2530	0	0	0
2019/08/02 17:15:00	BASE	4.37	37	5.86	39	-3.6	77	-7.0	44	0	989.4	NA	0.0000	UP	9000	3610	0	0	0
2019/08/02 17:16:00	BASE	4.88	39	5.86	39	-3.6	77	-7.1	44	0	989.3	NA	0.0000	UP	9999	3580	0	0	0
2019/08/02 17:17:00	BASE	5.29	40	5.86	39	-3.7	77	-7.2	43	0	989.3	NA	0.0000	UP	9999	3540	0	0	0
2019/08/02 17:18:00	BASE	5.17	38	5.92	33	-3.7	76	-7.2	42	0	989.3	NA	0.0000	UP	9000	3580	22410	0	0
2019/08/02 17:19:00	BASE	5.07	38	5.92	33	-3.7	76	-7.3	42	0	989.4	NA	0.0000	UP	8000	2460	0	0	0
2019/08/02 17:20:00	BASE	5.28	38	5.92	33	-3.7	76	-7.3	41	0	989.4	NA	0.0000	-SN	9000	3540	0	0	0
2019/08/02 17:21:00	BASE	5.24	33	5.92	33	-3.7	76	-7.3	40	0	989.4	NA	0.0000	-SN	9000	0	0	0	4460
2019/08/02 17:22:00	BASE	4.91	26	5.92	33	-3.7	77	-7.2	40	0	989.4	NA	0.0000	-SN	9000	0	0	0	4560
2019/08/02 17:23:00	BASE	4.75	24	5.92	33	-3.6	77	-7.1	40	0	989.4	NA	0.0000	-SN	9000	0	0	0	4530
2019/08/02 17:24:00	BASE	4.60	25	5.92	33	-3.6	77	-7.0	40	0	989.4	NA	0.0000	-SN	9000	0	0	0	4100
2019/08/02 17:25:00	BASE	4.41	24	5.92	33	-3.5	78	-6.9	39	0	989.4	NA	0.0000	-SN	9000	0	0	0	4560
2019/08/02 17:26:00	BASE	4.26	23	5.92	33	-3.5	78	-6.7	39	0	989.4	NA	0.0000	-SN	9000	0	0	0	4590
2019/08/02 17:27:00	BASE	4.11	26	5.92	33	-3.5	78	-6.7	38	0	989.5	NA	0.0000	-SN	6000	0	0	0	4590
2019/08/02 17:28:00	BASE	4.15	34	5.81	36	-3.4	79	-6.6	38	0	989.5	NA	0.0000	-SN	4500	0	0	0	4590
2019/08/02 17:29:00	BASE	4.43	39	5.66	31	-3.5	79	-6.6	37	0	989.4	NA	0.0000	-SN	6000	0	0	0	4300
2019/08/02 17:30:00	BASE	4.44	41	5.50	34	-3.5	79	-6.6	36	0	989.4	NA	0.0000	-SN	6000	0	0	0	4300
2019/08/02 17:31:00	BASE	4.15	44	5.04	28	-3.5	79	-6.6	35	0	989.4	NA	0.0000	-SN	9999	0	0	0	4230
2019/08/02 17:32:00	BASE	3.70	43	5.04	28	-3.6	80	-6.6	34	0	989.4	NA	0.0000	-SN	9999	0	0	0	4130
2019/08/02 17:33:00	BASE	3.29	43	4.89	35	-3.6	80	-6.5	33	0	989.5	NA	0.0000	-SN	9000	0	0	0	4170
2019/08/02 17:34:00	BASE	3.11	51	4.89	35	-3.6	80	-6.5	32	0	989.5	NA	0.0000	-SN	8000	0	0	0	4130
2019/08/02 17:35:00	BASE	2.89	57	4.89	35	-3.5	80	-6.4	31	0	989.5	NA	0.0000	-SN	7000	0	0	0	4040
2019/08/02 17:36:00	BASE	2.48	57	4.89	35	-3.5	81	-6.3	30	0	989.4	NA	0.0000	-SN	8000	0	0	0	3710
2019/08/02 17:37:00	BASE	2.12	55	4.89	35	-3.5	81	-6.3	29	0	989.4	NA	0.0000	-SN	9000	0	0	0	3280
2019/08/02 17:38:00	BASE	1.96	52	4.89	35	-3.4	81	-6.3	28	0	989.5	NA	0.0000	-SN	9000	0	0	0	3150
2019/08/02 17:39:00	BASE	1.76	42	4.78	43	-3.4	81	-6.2	28	0	989.5	NA	0.0000	-SN	9999	0	0	0	3180
2019/08/02 17:40:00	BASE	1.63	17	4.32	45	-3.4	81	-6.2	27	0	989.5	NA	0.0000	-SN	9999	0	0	0	3250
2019/08/02 17:41:00	BASE	1.59	356	3.76	42	-3.4	81	-6.2	27	0	989.5	NA	0.0000	-SN	9999	0	0	0	3020
2019/08/02 17:42:00	BASE	1.36	350	3.55	50	-3.3	81	-6.2	27	0	989.5	NA	0.0000	-SN	9999	0	0	0	2850
2019/08/02 17:43:00	BASE	0.92	343	3.24	54	-3.3	81	-6.1	27	0	989.6	NA	0.0000	-SN	9999	0	0	0	2760
2019/08/02 17:44:00	BASE	1.24	339	2.88	58	-3.2	80	-6.1	27	0	989.6	NA	0.0000	-SN	9999	0	0	0	2690
2019/08/02 17:45:00	BASE	1.55	331	2.57	37	-3.2	80	-6.1	27	0	989.6	NA	0.0000	-SN	9000	0	0	0	2660
2019/08/02 17:46:00	BASE	1.14	329	2.37	43	-3.2	80	-6.1	27	0	989.6	NA	0.0000	-SN	9000	0	0	0	2660
2019/08/02 17:47:00	BASE	0.49	330	2.37	43	-3.2	80	-6.1	27	0	989.6	NA	0.0000	-SN	7000	0	0	0	2690
2019/08/02 17:48:00	BASE	0.00	327	2.01	330	-3.2	80	-6.1	27	0	989.6	NA	0.0000	-SN	7000	0	0	0	2760
2019/08/02 17:49:00	BASE	0.00	321	2.01	330	-3.2	80	-6.1	27	0	989.6	NA	0.0000	-SN	7000	0	0	0	2720
2019/08/02 17:50:00	BASE	0.00	323	2.01	330	-3.2	80	-6.1	28	0	989.6	NA	0.0000	-SN	8000	0	0	0	2990
2019/08/02 17:51:00	BASE	0.00	320	2.01	330	-3.2	80	-6.1	28	0	989.6	NA	0.0000	-SN	9999	0	0	0	3050
2019/08/02 17:52:00	BASE	0.21	315	2.01	330	-3.2	80	-6.1	28	0	989.6	NA	0.0000	-SN	9000	0	0	0	2690
2019/08/02 17:53:00	BASE	0.68	318	2.01	330	-3.2	80	-6.1	28	0	989.6	NA	0.0000	-SN	8000	0	0	0	2590
2019/08/02 17:54:00	BASE	0.92	321	1.49	322	-3.2	81	-6.0	28	0	989.6	NA	0.0000	-SN	6000	0	0	0	2590
2019/08/02 17:55:00	BASE	0.44	325	1.34	331	-3.1	81	-6.0	27	0	989.6	NA	0.0000	-SN	6000	0	0	0	2690
2019/08/02 17:56:00	BASE	0.00	320	1.29	320	-3.2	81	-6.0	27	0	989.6	NA	0.0000	-SN	8000	0	0	0	2890
2019/08/02 17:57:00	BASE	0.00	308	1.29	320	-3.2	81	-6.0	27	0	989.6	NA	0.0000	-SN	9000	0	0	0	2850
2019/08/02 17:58:00	BASE	0.00	304	1.29	320	-3.2	81	-5.9	27	0	989.6	NA	0.0000	-SN	9000	0	0	0	5480
2019/08/02 17:59:00	BASE	0.00	304	1.29	320	-3.2	81	-5.9	27	0	989.6	NA	0.0000	-SN	8000	0	0	0	5540
2019/08/02 18:00:00	BASE	0.00	304	1.29	320	-3.2	82	-5.9	27	0	989.6	NA	0.0000	-SN	5000	0	0	0	5640
2019/08/02 18:01:00	BASE	0.00	304	1.29	320	-3.2	82	-5.8	27	0	989.6	NA	0.0000	-SN	5000	0	0	0	5540
2019/08/02 18:02:00	BASE	0.00	304	1.29	320	-3.2	82	-5.8	27	0	989.6	NA	0.0000	-SN	6000	0	0	0	5280
2019/08/02 18:03:00	BASE	0.00	305	1.29	320	-3.2	82	-5.8	27	0	989.6	NA	0.0000	-SN	7000	0	0	0	8200
2019/08/02 18:04:00	BASE	0.00	305	M	M	-3.2	82	-5.8	27	0	989.6	NA	0.0000	-SN	9999	0	0	0	8370
2019/08/02 18:05:00	BASE	0.00	301	M	M	-3.2	83	-5.7	27	0	989.6	NA	0.0000	-SN	9999	0	0	0	8010
2019/08/02 18:06:00	BASE	0.00	297	M	M	-3.2	83	-5.7	27	0	989.6	NA	0.0000	-SN	9999	3380	0	0	0
2019/08/02 18:07:00	BASE	0.00	289	M	M	-3.2	83	-5.7	28	0	989.6	NA	0.0000	-SN	9999	3310	0	0	0
2019/08/02 18:08:00	BASE	0.00	281	M	M	-3.2	83	-5.7	28	0	989.6	NA	0.0000	-SN	9999	3310	0	0	0
2019/08/02 18:09:00	BASE	0.00	281	M	M	-3.2	83	-5.7	28	0	989.5	NA	0.0000	-SN	9999	3280	0	0	0
2019/08/02 18:10:00	BASE	0.00	274	M	M	-3.3	83	-5.7	27	0	989.5	NA	0.0000	-SN	9999	3180	0	0	0
2019/08/02 18:11:00	BASE	0.00	189	M	M	-3.3	83	-5.8	27	0	989.5	NA	0.0000	-SN	9999	3280	0	0	0
2019/08/02 18:12:00	BASE	0.00	142	M	M	-3.4	83	-5.8	27	0	989.6	NA	0.0000	-SN	9999	3180	0	0	0
2019/08/02 18:13:00	BASE	0.00	140	M	M	-3.4	84	-5.8	27	0	989.5	NA	0.0000		9999	3220	0	0	0
2019/08/02 18:14:00	BASE	0.00	140	M	M	-3.5	84	-5.8	26	0	989.5	NA	0.0000	HZ	9999	3220	0	0	0
2019/08/02 18:15:00	BASE	0.00	140	M	M	-3.5	84	-5.8	26	0	989.6	NA	0.0000	HZ	9999	3120	0	0	0
2019/08/02 18:16:00	BASE	0.00	141	M	M	-3.4	84	-5.7	26	0	989.6	NA	0.0000	HZ	9000	3150	0	0	0
2019/08/02 18:17:00	BASE	0.00	142	M	M	-3.4	84	-5.6	26	0	989.6	NA	0.0000	HZ	9000	3150	0	0	0
2019/08/02 18:18:00	BASE	0.00	142	M	M	-3.4	85	-5.6	25	0	989.6	NA	0.0000	HZ	9000	3020	0	0	0
2019/08/02 18:19:00	BASE	0.00	147	M	M	-3.3	85	-5.5	25	0	989.6	NA	0.0000	BR	9999	3150	0	0	0
2019/08/02 18:20:00	BASE	0.00	200	M	M	-3.3	85	-5.5	25	0	989.6	NA	0.0000	BR	9999	3080	0	0	0
2019/08/02 18:21:00	BASE	0.00	242	M	M	-3.3	85	-5.5	25	0	989.7	NA	0.0000	BR	9999	3080	0	0	0
2019/08/02 18:22:00	BASE	0.00	243	M	M	-3.3	85	-5.5	24	0	989.7	NA	0.0000		9999	3050	0	0	0
2019/08/02 18:23:00	BASE	0.00	243	M	M	-3.3	85	-5.5	24	0	989.7	NA	0.0000		9999	3080	0	0	0
2019/08/02 18:24:00	BASE	0.00	243	M	M	-3.3	85	-5.4	24	0	989.7	NA	0.0000		9999	3180	0	0	0
2019/08/02 18:25:00	BASE	0.00	243	M	M	-3.3	85	-5.4	23	0	989.7	NA	0.0000		9999	3120	0	0	0
2019/08/02 18:26:00	BASE	0.00	243	M	M	-3.4	86	-5.4	22	0	989.7	NA	0.0000		9999	3120	0	0	0
2019/08/02 18:27:00	BASE	0.00	243	M	M	-3.4	86	-5.4	22	0	989.7	NA	0.0000		9999	3150	0	0	0
2019/08/02 18:28:00	BASE	0.00	243	M	M	-3.4	86	-5.4	22	0	989.7	NA	0.0000		9999	3150	0	0	0
2019/08/02 18:29:00	BASE	0.00	262	M	M	-3.4	86	-5.4	21	0	989.7	NA	0.0000		9999	3080	0	0	0
2019/08/02 18:30:00	BASE	0.00	309	M	M	-3.4	86	-5.3	21	0	989.7	NA	0.0000	-SN	9999	3080	0	0	0
2019/08/02 18:31:00	BASE	0.00	330	M	M	-3.4	87	-5.3	21	0	989.8	NA	0.0000	-SN	9999	3050	0	0	0
2019/08/02 18:32:00	BASE	0.00	327	M	M	-3.4	87	-5.3	22	0	989.8	NA	0.0000	-SN	9999	3080	0	0	0
2019/08/02 18:33:00	BASE	0.13	314	1.08	305	-3.4	87	-5.2	22	0	989.8	NA	0.0000	-SN	9999	3120	0	0	0
2019/08/02 18:34:00	BASE	0.31	303	1.13	301	-3.3	87	-5.1	22	0	989.8	NA	0.0000	-SN	9999	3050	0	0	0
2019/08/02 18:35:00	BASE	0.67	297	1.44	293	-3.3	88	-5.1	23	0	989.8	NA	0.0000	-SN	9999	3150	0	0	0
2019/08/02 18:36:00	BASE	1.11	295	1.44	293	-3.3	88	-5.0	24	0	989.8	NA	0.0000	-SN	6000	3150	0	0	0
2019/08/02 18:37:00	BASE	1.22	297	1.44	293	-3.3	88	-5.0	25	0	989.8	NA	0.0000	-SN BR	6000	3120	0	0	0
2019/08/02 18:38:00	BASE	0.75	300	1.44	293	-3.3	88	-4.9	26	0	989.8	NA	0.0000	-SN BR	6000	3220	0	0	0
2019/08/02 18:39:00	BASE	0.14	303	1.44	293	-3.3	89	-4.9	28	0	989.8	NA	0.0000	-SN BR	7000	3180	0	0	0
2019/08/02 18:40:00	BASE	0.00	310	1.44	293	-3.3	89	-4.9	30	0	989.8	NA	0.0000	-SN BR	7000	1120	0	0	0
2019/08/02 18:41:00	BASE	0.00	345	1.44	293	-3.3	89	-4.8	31	0	989.9	NA	0.0000	-SN BR	6000	950	0	0	0
2019/08/02 18:42:00	BASE	0.00	25	1.44	293	-3.3	90	-4.8	33	0	989.8	NA	0.0000	-SN BR	7000	660	0	0	0
2019/08/02 18:43:00	BASE	0.00	41	1.44	293	-3.3	90	-4.8	36	0	989.8	NA	0.0000	-SN BR	9999	460	0	0	0
2019/08/02 18:44:00	BASE	0.00	46	1.44	293	-3.3	90	-4.7	38	0	989.8	NA	0.0000	-SN BR	5000	360	0	0	0
2019/08/02 18:45:00	BASE	0.00	47	1.39	301	-3.4	90	-4.7	41	0	989.8	NA	0.0000	-SN BR	2700	330	0	0	0
2019/08/02 18:46:00	BASE	0.00	48	1.39	301	-3.4	90	-4.8	44	0	989.8	NA	0.0000	-SN BR	2700	300	0	0	0
2019/08/02 18:47:00	BASE	0.00	48	1.18	296	-3.4	91	-4.8	46	0	989.8	NA	0.0000	-SN BR	2400	330	0	0	0
2019/08/02 18:48:00	BASE	0.00	49	M	M	-3.5	91	-4.8	48	0	989.8	NA	0.0000	-SN BR	2600	330	0	0	0
2019/08/02 18:49:00	BASE	0.00	74	M	M	-3.5	91	-4.7	49	0	989.8	NA	0.0000	-SN BR	2800	330	0	0	0
2019/08/02 18:50:00	BASE	0.00	111	M	M	-3.5	91	-4.7	49	0	989.8	NA	0.0000	-SN BR	2300	330	0	0	0
2019/08/02 18:51:00	BASE	0.00	124	M	M	-3.5	92	-4.7	48	0	989.8	NA	0.0000	-SN BR	2300	360	0	0	0
2019/08/02 18:52:00	BASE	0.00	126	M	M	-3.5	92	-4.6	47	0	989.8	NA	0.0000	-SN BR	2300	360	0	0	0
2019/08/02 18:53:00	BASE	0.00	142	M	M	-3.5	92	-4.6	45	0	989.8	NA	0.0000	-SN BR	2300	360	0	0	0
2019/08/02 18:54:00	BASE	0.00	160	M	M	-3.5	93	-4.5	41	0	989.8	NA	0.0000	-SN BR	2100	0	0	0	3670
2019/08/02 18:55:00	BASE	0.00	163	M	M	-3.5	93	-4.5	38	0	989.8	NA	0.0000	-SN BR	2000	330	0	0	0
2019/08/02 18:56:00	BASE	0.00	171	M	M	-3.5	93	-4.4	35	0	989.8	NA	0.0000	-SN BR	1700	330	0	0	0
2019/08/02 18:57:00	BASE	0.00	184	M	M	-3.5	93	-4.4	32	0	989.9	NA	0.0000	-SN BR	1800	360	0	0	0
2019/08/02 18:58:00	BASE	0.00	194	M	M	-3.5	94	-4.4	30	0	989.9	NA	0.0000	-SN BR	2100	330	0	0	0
2019/08/02 18:59:00	BASE	0.00	200	M	M	-3.5	94	-4.4	27	0	989.9	NA	0.0000	-SN BR	2100	360	0	0	0
2019/08/02 19:00:00	BASE	0.00	200	M	M	-3.5	94	-4.3	24	0	989.9	NA	0.0000	-SN BR	2200	2950	0	0	0
2019/08/02 19:01:00	BASE	0.00	200	M	M	-3.5	94	-4.3	22	0	989.9	NA	0.0000	-SN BR	2800	390	0	0	0
2019/08/02 19:02:00	BASE	0.00	200	M	M	-3.5	95	-4.2	21	0	990.0	NA	0.0000	-SN BR	3800	360	0	0	0
2019/08/02 19:03:00	BASE	0.00	199	M	M	-3.5	95	-4.2	20	0	990.0	NA	0.0000	-SN BR	3800	2920	0	0	0
2019/08/02 19:04:00	BASE	0.00	197	M	M	-3.5	95	-4.2	18	0	990.1	NA	0.0000	-SN BR	2500	2950	0	0	0
2019/08/02 19:05:00	BASE	0.00	196	M	M	-3.5	95	-4.2	18	0	990.1	NA	0.0000	-SN BR	3900	2950	0	0	0
2019/08/02 19:06:00	BASE	0.00	196	M	M	-3.5	95	-4.2	17	0	990.1	NA	0.0000	-SN BR	4900	2990	0	0	0
2019/08/02 19:07:00	BASE	0.00	192	M	M	-3.5	95	-4.2	16	0	990.1	NA	0.0000	-SN BR	5000	2950	0	0	0
2019/08/02 19:08:00	BASE	0.00	185	M	M	-3.5	95	-4.2	16	0	990.1	NA	0.0000	-SN BR	4000	2950	0	0	0
2019/08/02 19:09:00	BASE	0.00	183	M	M	-3.5	96	-4.1	16	0	990.1	NA	0.0000	-SN BR	9999	2890	0	0	0
2019/08/02 19:10:00	BASE	0.00	183	M	M	-3.5	96	-4.1	16	0	990.1	NA	0.0000	-SN BR	9999	2920	0	0	0
2019/08/02 19:11:00	BASE	0.00	183	M	M	-3.5	96	-4.1	15	0	990.1	NA	0.0000	-SN BR	9999	1410	0	0	0
2019/08/02 19:12:00	BASE	0.00	183	M	M	-3.5	96	-4.1	15	0	990.0	NA	0.0000	-SN BR	9999	0	0	0	3900
2019/08/02 19:13:00	BASE	0.00	173	M	M	-3.5	96	-4.1	15	0	990.0	NA	0.0000	-SN BR	9999	720	0	0	0
2019/08/02 19:14:00	BASE	0.00	158	M	M	-3.5	96	-4.1	16	0	989.9	NA	0.0000	-SN BR	8000	0	0	0	3150
2019/08/02 19:15:00	BASE	0.00	145	M	M	-3.5	96	-4.1	16	0	989.9	NA	0.0000	-SN BR	6000	0	0	0	2850
2019/08/02 19:16:00	BASE	0.00	138	M	M	-3.5	96	-4.1	17	0	989.9	NA	0.0000	-SN BR	9999	1840	0	0	0
2019/08/02 19:17:00	BASE	0.27	139	1.18	140	-3.6	96	-4.1	19	0	989.9	NA	0.0000	-SN BR	9999	790	0	0	0
2019/08/02 19:18:00	BASE	0.76	139	1.39	138	-3.6	96	-4.1	20	0	989.9	NA	0.0000	-SN BR	6000	620	0	0	0
2019/08/02 19:19:00	BASE	1.13	138	1.39	138	-3.6	97	-4.1	22	0	989.9	NA	0.0000	-SN BR	5000	460	0	0	0
2019/08/02 19:20:00	BASE	0.73	135	1.39	138	-3.6	97	-4.1	24	0	989.9	NA	0.0000	-SN BR	9000	0	0	0	2300
2019/08/02 19:21:00	BASE	0.09	132	1.39	138	-3.7	97	-4.1	25	0	990.0	NA	0.0000	-SN BR	8000	0	0	0	2260
2019/08/02 19:22:00	BASE	0.00	128	1.39	138	-3.7	97	-4.1	26	0	990.0	NA	0.0000	-SN BR	4200	0	0	0	2200
2019/08/02 19:23:00	BASE	0.00	125	1.39	138	-3.7	97	-4.1	26	0	990.1	NA	0.0000	-SN BR	2100	0	0	0	2200
2019/08/02 19:24:00	BASE	0.22	129	1.39	138	-3.7	97	-4.1	26	0	990.1	NA	0.0000	-SN BR	1800	0	0	0	2260
2019/08/02 19:25:00	BASE	0.82	135	1.39	138	-3.7	97	-4.1	25	0	990.1	NA	0.0000	-SN BR	1900	0	0	0	2200
2019/08/02 19:26:00	BASE	1.29	137	1.44	138	-3.7	97	-4.1	24	0	990.1	NA	0.0000	-SN BR	2000	0	0	0	2360
2019/08/02 19:27:00	BASE	1.36	137	1.65	135	-3.7	97	-4.1	22	0	990.1	NA	0.0000	-SN BR	1900	0	0	0	2490
2019/08/02 19:28:00	BASE	1.19	132	1.65	135	-3.7	97	-4.1	20	0	990.1	NA	0.0000	-SN BR	2200	0	0	0	3220
2019/08/02 19:29:00	BASE	0.75	118	1.65	135	-3.7	97	-4.1	19	0	990.1	NA	0.0000	-SN BR	2200	0	0	0	2100
2019/08/02 19:30:00	BASE	0.74	113	1.65	135	-3.7	97	-4.1	18	0	990.1	NA	0.0000	-SN BR	2000	0	0	0	2230
2019/08/02 19:31:00	BASE	1.28	122	2.01	130	-3.7	97	-4.1	17	0	990.1	NA	0.0000	-SN BR	2100	0	0	0	2200
2019/08/02 19:32:00	BASE	1.64	124	2.01	130	-3.7	97	-4.1	17	0	990.1	NA	0.0000	-SN BR	2000	0	0	0	2260
2019/08/02 19:33:00	BASE	1.77	122	2.06	129	-3.7	97	-4.2	16	0	990.1	NA	0.0000	-SN BR	2100	0	0	0	2620
2019/08/02 19:34:00	BASE	1.98	124	2.68	128	-3.8	97	-4.1	15	0	990.2	NA	0.0000	-SN BR	2300	0	0	0	2130
2019/08/02 19:35:00	BASE	2.47	124	2.98	116	-3.8	97	-4.1	13	0	990.2	NA	0.0000	-SN BR	2300	0	0	0	3740
2019/08/02 19:36:00	BASE	2.75	122	2.98	116	-3.8	98	-4.1	12	0	990.2	NA	0.0000	-SN BR	2200	0	0	0	3840
2019/08/02 19:37:00	BASE	2.61	124	2.98	116	-3.8	98	-4.1	11	0	990.2	NA	0.0000	-SN BR	2100	0	0	0	2260
2019/08/02 19:38:00	BASE	2.51	123	2.98	116	-3.8	98	-4.1	11	0	990.2	NA	0.0000	-SN BR	1900	0	0	0	1870
2019/08/02 19:39:00	BASE	2.42	116	2.98	116	-3.8	98	-4.1	10	0	990.2	NA	0.0000	-SN BR	1900	0	0	0	3580
2019/08/02 19:40:00	BASE	2.06	111	2.98	116	-3.8	98	-4.1	10	0	990.2	NA	0.0000	-SN BR	2000	0	0	0	2100
2019/08/02 19:41:00	BASE	1.45	107	2.98	116	-3.8	98	-4.1	10	0	990.3	NA	0.0000	-SN BR	1700	0	0	0	2400
2019/08/02 19:42:00	BASE	0.88	103	2.98	116	-3.8	98	-4.1	10	0	990.3	NA	0.0000	-SN BR	1700	0	0	0	5610
2019/08/02 19:43:00	BASE	0.32	102	2.98	116	-3.8	98	-4.1	9	0	990.3	NA	0.0000	-SN BR	1800	0	0	0	4890
2019/08/02 19:44:00	BASE	0.09	105	2.98	116	-3.8	98	-4.1	8	0	990.3	NA	0.0000	-SN BR	1800	0	0	0	1770
2019/08/02 19:45:00	BASE	0.35	104	2.88	121	-3.8	98	-4.1	7	0	990.3	NA	0.0000	-SN BR	1700	0	0	0	1940
2019/08/02 19:46:00	BASE	0.35	96	2.62	113	-3.8	98	-4.0	7	0	990.3	NA	0.0000	-SN BR	1700	0	0	0	1940
2019/08/02 19:47:00	BASE	0.09	92	2.62	113	-3.8	98	-4.0	6	0	990.3	NA	0.0000	-SN BR	1900	0	0	0	1800
2019/08/02 19:48:00	BASE	0.00	92	2.52	116	-3.8	99	-4.0	5	0	990.3	NA	0.0000	-SN BR	2100	0	0	0	1840
2019/08/02 19:49:00	BASE	0.00	89	1.95	109	-3.8	99	-4.0	5	0	990.3	NA	0.0000	-SN BR	2000	0	0	0	2170
2019/08/02 19:50:00	BASE	0.00	81	1.44	105	-3.8	99	-4.0	4	0	990.3	NA	0.0000	-SN BR	1900	0	0	0	2000
2019/08/02 19:51:00	BASE	0.00	76	1.13	95	-3.9	99	-4.0	4	0	990.3	NA	0.0000	-SN BR	2100	0	0	0	2030
2019/08/02 19:52:00	BASE	0.13	75	1.13	95	-3.9	99	-4.0	3	0	990.3	NA	0.0000	-SN BR	2000	0	0	0	1970
2019/08/02 19:53:00	BASE	0.63	73	1.18	71	-3.9	100	-4.0	3	0	990.3	NA	0.0000	-SN BR	2200	0	0	0	3770
2019/08/02 19:54:00	BASE	0.63	78	1.18	71	-3.9	100	-3.9	3	0	990.3	NA	0.0000	-SN BR	2300	330	2790	0	0
2019/08/02 19:55:00	BASE	0.27	93	1.18	71	-4.0	100	-4.0	3	0	990.3	NA	0.0000	-SN BR	2400	330	2760	0	0
2019/08/02 19:56:00	BASE	0.17	108	1.18	71	-4.0	100	-4.0	3	0	990.3	NA	0.0000	-SN BR	2400	2760	0	0	0
2019/08/02 19:57:00	BASE	0.13	108	1.18	71	-4.0	100	-4.0	3	0	990.3	NA	0.0000	-SN BR	2200	300	0	0	0
2019/08/02 19:58:00	BASE	0.35	98	1.34	91	-4.1	100	-4.1	3	0	990.4	NA	0.0000	-SN BR	2300	300	0	0	0
2019/08/02 19:59:00	BASE	1.13	91	1.85	89	-4.1	100	-4.1	3	0	990.4	NA	0.0000	-SN BR	2900	330	2620	0	0
2019/08/02 20:00:00	BASE	1.69	87	1.85	89	-4.1	100	-4.1	2	0	990.4	NA	0.0000	-SN BR	3700	260	2560	0	0
2019/08/02 20:01:00	BASE	1.62	83	1.85	89	-4.1	100	-4.1	2	0	990.4	NA	0.0000	-SN BR	3800	260	2490	0	0
2019/08/02 20:02:00	BASE	1.48	83	1.85	89	-4.1	100	-4.1	2	0	990.4	NA	0.0000	-SN BR	3000	200	2400	0	0
2019/08/02 20:03:00	BASE	1.32	86	1.85	89	-4.1	100	-4.1	2	0	990.4	NA	0.0000	-SN BR	3000	230	2400	0	0
2019/08/02 20:04:00	BASE	1.37	86	1.85	89	-4.1	100	-4.1	2	0	990.4	NA	0.0000	-SN BR	4300	230	2560	0	0
2019/08/02 20:05:00	BASE	1.34	83	1.85	89	-4.2	100	-4.2	1	0	990.4	NA	0.0000	-SN BR	6000	260	2530	0	0
2019/08/02 20:06:00	BASE	1.12	80	1.85	89	-4.2	100	-4.2	1	0	990.4	NA	0.0000	-SN BR	6000	300	2330	0	0
2019/08/02 20:07:00	BASE	0.95	77	1.85	89	-4.2	100	-4.2	1	0	990.4	NA	0.0000	-SN BR	9999	300	2330	0	0
2019/08/02 20:08:00	BASE	0.91	78	1.85	89	-4.2	100	-4.2	1	0	990.4	NA	0.0000	-SN BR	9000	260	1280	0	0
2019/08/02 20:09:00	BASE	0.69	80	1.75	85	-4.2	100	-4.2	1	0	990.4	NA	0.0000	-SN BR	9999	300	1180	0	0
2019/08/02 20:10:00	BASE	0.27	84	1.70	81	-4.2	100	-4.2	1	0	990.4	NA	0.0000	-SN BR	9999	260	2260	0	0
2019/08/02 20:11:00	BASE	0.04	93	1.65	80	-4.2	100	-4.2	0	0	990.4	NA	0.0000	-SN BR	9999	300	2260	0	0
2019/08/02 20:12:00	BASE	0.00	106	1.65	80	-4.2	100	-4.2	0	0	990.4	NA	0.0000	-SN BR	9999	330	2430	0	0
2019/08/02 20:13:00	BASE	0.55	111	1.65	80	-4.2	100	-4.2	0	0	990.4	NA	0.0000	-SN BR	9999	300	2360	0	0
2019/08/02 20:14:00	BASE	1.18	114	1.44	101	-4.2	100	-4.2	0	0	990.4	NA	0.0000	-SN BR	9999	330	0	0	0
2019/08/02 20:15:00	BASE	0.87	118	1.44	101	-4.3	100	-4.3	0	0	990.4	NA	0.0000	-SN BR	9999	330	0	0	0
2019/08/02 20:16:00	BASE	0.28	120	1.44	101	-4.3	100	-4.3	0	0	990.4	NA	0.0000	-SN	9999	360	0	0	0
2019/08/02 20:17:00	BASE	0.30	124	1.44	101	-4.3	100	-4.3	0	0	990.4	NA	0.0000	-SN	9999	360	0	0	0
2019/08/02 20:18:00	BASE	0.66	126	1.44	127	-4.3	100	-4.3	0	0	990.4	NA	0.0000	-SN	9999	2330	0	0	0
2019/08/02 20:19:00	BASE	0.80	128	1.44	127	-4.3	100	-4.3	0	0	990.4	NA	0.0000	-SN	9999	2330	0	0	0
2019/08/02 20:20:00	BASE	0.39	122	1.44	127	-4.3	100	-4.3	0	0	990.4	NA	0.0000	-SN	9999	2300	0	0	0
2019/08/02 20:21:00	BASE	0.04	108	1.44	127	-4.3	100	-4.3	0	0	990.4	NA	0.0000	-SN	9999	2230	0	0	0
2019/08/02 20:22:00	BASE	0.04	103	1.44	127	-4.3	100	-4.3	0	0	990.4	NA	0.0000	-SN	9999	2260	0	0	0
2019/08/02 20:23:00	BASE	0.00	104	1.44	127	-4.3	100	-4.3	0	0	990.4	NA	0.0000	-SN	9999	2300	0	0	0
2019/08/02 20:24:00	BASE	0.00	104	1.44	127	-4.4	100	-4.4	0	0	990.5	NA	0.0000	-SN	9999	2260	0	0	0
2019/08/02 20:25:00	BASE	0.00	104	1.44	127	-4.3	100	-4.3	0	0	990.5	NA	0.0000	-SN	9999	2300	0	0	0
2019/08/02 20:26:00	BASE	0.00	106	1.44	127	-4.3	100	-4.3	0	0	990.4	NA	0.0000	-SN	9999	2260	0	0	0
2019/08/02 20:27:00	BASE	0.61	106	1.70	99	-4.2	100	-4.2	0	0	990.5	NA	0.0000	-SN	9999	2260	0	0	0
2019/08/02 20:28:00	BASE	1.50	105	1.95	95	-4.2	100	-4.2	0	0	990.5	NA	0.0000	-SN	9999	2300	0	0	0
2019/08/02 20:29:00	BASE	1.65	111	1.95	121	-4.2	100	-4.2	0	0	990.5	NA	0.0000	-SN	9999	2170	0	0	0
2019/08/02 20:30:00	BASE	1.89	111	2.73	110	-4.2	100	-4.2	0	0	990.5	NA	0.0000		9999	2130	2760	0	0
2019/08/02 20:31:00	BASE	2.50	106	3.45	102	-4.3	100	-4.3	0	0	990.4	NA	0.0000		9999	2100	0	0	0
2019/08/02 20:32:00	BASE	3.10	102	3.76	107	-4.4	100	-4.4	0	0	990.4	NA	0.0000		9999	1210	2130	0	0
2019/08/02 20:33:00	BASE	3.32	97	3.76	107	-4.4	100	-4.4	0	0	990.4	NA	0.0000		9999	2590	0	0	0
2019/08/02 20:34:00	BASE	3.14	91	3.76	107	-4.5	100	-4.5	0	0	990.4	NA	0.0000		9999	2100	2760	0	0
2019/08/02 20:35:00	BASE	2.61	83	3.76	107	-4.5	100	-4.5	0	0	990.4	NA	0.0000		9999	2620	0	0	0
2019/08/02 20:36:00	BASE	2.27	82	3.76	107	-4.5	100	-4.5	0	0	990.4	NA	0.0000		9999	2100	2760	0	0
2019/08/02 20:37:00	BASE	2.70	87	3.76	107	-4.5	100	-4.5	0	0	990.4	NA	0.0000		9999	2030	2790	0	0
2019/08/02 20:38:00	BASE	2.60	88	3.76	107	-4.4	100	-4.4	0	0	990.4	NA	0.0000		9999	2230	2790	0	0
2019/08/02 20:39:00	BASE	2.02	98	3.76	107	-4.4	100	-4.4	0	0	990.4	NA	0.0000		9999	2100	2690	0	0
2019/08/02 20:40:00	BASE	1.44	101	3.76	107	-4.4	100	-4.4	0	0	990.4	NA	0.0000		9999	2760	0	0	0
2019/08/02 20:41:00	BASE	1.21	102	3.76	107	-4.3	100	-4.3	0	0	990.4	NA	0.0000		9999	2070	2820	0	0
2019/08/02 20:42:00	BASE	1.21	106	3.55	82	-4.3	100	-4.3	0	0	990.4	NA	0.0000		9999	2070	3020	0	0
2019/08/02 20:43:00	BASE	0.74	104	3.55	82	-4.2	100	-4.2	0	0	990.4	NA	0.0000		9999	3020	0	0	0
2019/08/02 20:44:00	BASE	0.20	102	3.24	85	-4.2	100	-4.2	0	0	990.4	NA	0.0000		9999	3050	0	0	0
2019/08/02 20:45:00	BASE	0.00	103	3.24	85	-4.1	100	-4.1	0	0	990.5	NA	0.0000		9999	2260	3220	0	0
2019/08/02 20:46:00	BASE	0.00	100	3.24	85	-4.1	100	-4.1	0	0	990.5	NA	0.0000		9999	1940	3220	0	0
2019/08/02 20:47:00	BASE	0.00	88	2.52	92	-4.1	100	-4.1	0	0	990.5	NA	0.0000		9999	2030	0	0	0
2019/08/02 20:48:00	BASE	0.80	84	2.88	92	-4.0	100	-4.0	0	0	990.4	NA	0.0000		9999	2100	6100	0	0
2019/08/02 20:49:00	BASE	1.89	89	2.93	85	-4.0	100	-4.0	0	0	990.4	NA	0.0000		9999	2070	6040	0	0
2019/08/02 20:50:00	BASE	2.27	94	3.09	102	-4.1	100	-4.1	0	0	990.4	NA	0.0000		9999	2170	6040	0	0
2019/08/02 20:51:00	BASE	2.33	97	3.09	102	-4.2	100	-4.2	0	0	990.4	NA	0.0000		9999	2130	5970	0	0
2019/08/02 20:52:00	BASE	2.08	96	3.09	102	-4.3	100	-4.3	0	0	990.4	NA	0.0000		9999	5910	0	0	0
2019/08/02 20:53:00	BASE	1.58	105	3.09	102	-4.3	100	-4.3	0	0	990.4	NA	0.0000		9999	5810	0	0	0
2019/08/02 20:54:00	BASE	1.04	109	3.09	102	-4.3	100	-4.3	0	0	990.4	NA	0.0000		9999	5770	0	0	0
2019/08/02 20:55:00	BASE	1.58	103	3.09	102	-4.4	100	-4.4	0	0	990.4	NA	0.0000		9999	5740	0	0	0
2019/08/02 20:56:00	BASE	2.33	97	3.09	107	-4.4	100	-4.4	0	0	990.4	NA	0.0000		9999	5740	0	0	0
2019/08/02 20:57:00	BASE	2.41	90	3.09	87	-4.3	100	-4.3	0	0	990.4	NA	0.0000		9999	5710	0	0	0
2019/08/02 20:58:00	BASE	2.73	92	3.34	93	-4.4	100	-4.4	0	0	990.4	NA	0.0000		9999	2170	5770	0	0
2019/08/02 20:59:00	BASE	3.00	97	3.34	93	-4.4	100	-4.4	0	0	990.4	NA	0.0000		9999	5710	0	0	0
2019/08/02 21:00:00	BASE	3.34	97	3.86	100	-4.3	100	-4.3	0	0	990.4	NA	0.0000		9999	2620	5710	0	0
2019/08/02 21:01:00	BASE	3.68	96	4.32	94	-4.3	100	-4.3	0	0	990.4	NA	0.0000		9999	2820	5680	0	0
2019/08/02 21:02:00	BASE	3.88	98	4.48	94	-4.3	100	-4.3	0	0	990.4	NA	0.0000		9999	2200	2850	5680	0
2019/08/02 21:03:00	BASE	3.67	100	4.48	94	-4.3	100	-4.3	0	0	990.4	NA	0.0000		9999	5680	0	0	0
2019/08/02 21:04:00	BASE	3.52	101	4.48	94	-4.3	100	-4.3	0	0	990.4	NA	0.0000		9999	2100	2850	5610	0
2019/08/02 21:05:00	BASE	3.49	105	4.48	94	-4.3	100	-4.3	0	0	990.4	NA	0.0000		9999	2130	5610	0	0
2019/08/02 21:06:00	BASE	3.47	108	4.58	110	-4.4	100	-4.4	0	0	990.4	NA	0.0000		9999	2130	2760	5480	0
2019/08/02 21:07:00	BASE	3.69	107	4.58	110	-4.4	100	-4.4	0	0	990.4	NA	0.0000		9999	2820	5450	0	0
2019/08/02 21:08:00	BASE	4.04	106	4.84	108	-4.5	100	-4.5	0	0	990.4	NA	0.0000		9999	2790	5410	0	0
2019/08/02 21:09:00	BASE	3.89	105	4.84	108	-4.5	100	-4.5	0	0	990.4	NA	0.0000		9999	2920	5410	0	0
2019/08/02 21:10:00	BASE	3.06	105	4.84	108	-4.5	100	-4.5	0	0	990.4	NA	0.0000		9999	5450	0	0	0
2019/08/02 21:11:00	BASE	2.89	103	4.84	108	-4.5	100	-4.5	0	0	990.4	NA	0.0000		9999	2950	5410	0	0
2019/08/02 21:12:00	BASE	2.93	104	4.84	108	-4.4	100	-4.4	0	0	990.4	NA	0.0000		9999	2990	5410	0	0
2019/08/02 21:13:00	BASE	2.98	106	4.84	108	-4.4	100	-4.4	0	0	990.4	NA	0.0000		9999	2990	5380	0	0
2019/08/02 21:14:00	BASE	3.04	105	4.84	108	-4.3	100	-4.3	0	0	990.4	NA	0.0000		9999	2200	2920	5350	0
2019/08/02 21:15:00	BASE	2.93	107	4.84	108	-4.3	100	-4.3	0	0	990.4	NA	0.0000		9999	2200	2920	5350	0
2019/08/02 21:16:00	BASE	3.15	111	4.84	108	-4.3	100	-4.3	0	0	990.4	NA	0.0000		9999	2260	2890	5380	0
2019/08/02 21:17:00	BASE	3.38	114	4.84	108	-4.3	100	-4.3	0	0	990.5	NA	0.0000		9999	2200	2850	5380	0
2019/08/02 21:18:00	BASE	3.29	115	4.42	110	-4.3	100	-4.3	0	0	990.5	NA	0.0000		9999	2920	5320	0	0
2019/08/02 21:19:00	BASE	3.10	117	3.91	109	-4.4	100	-4.4	0	0	990.5	NA	0.0000		9999	2890	5320	0	0
2019/08/02 21:20:00	BASE	2.99	120	3.91	109	-4.5	100	-4.5	0	0	990.5	NA	0.0000		9999	2950	5250	0	0
2019/08/02 21:21:00	BASE	3.02	124	3.76	108	-4.6	100	-4.6	0	0	990.5	NA	0.0000		9999	2950	5320	0	0
2019/08/02 21:22:00	BASE	2.91	126	3.76	108	-4.6	100	-4.6	0	0	990.5	NA	0.0000		9999	2920	5350	0	0
2019/08/02 21:23:00	BASE	2.51	123	3.76	108	-4.6	100	-4.6	0	0	990.5	NA	0.0000		9999	3020	5380	0	0
2019/08/02 21:24:00	BASE	2.33	118	3.76	108	-4.5	100	-4.5	0	0	990.5	NA	0.0000		9999	1800	2990	5350	0
2019/08/02 21:25:00	BASE	2.43	104	3.76	108	-4.5	100	-4.5	0	0	990.5	NA	0.0000		9999	2990	5280	0	0
2019/08/02 21:26:00	BASE	2.00	90	3.76	108	-4.5	100	-4.5	0	0	990.6	NA	0.0000		9999	1800	3080	5220	0
2019/08/02 21:27:00	BASE	1.66	90	3.45	111	-4.5	100	-4.5	0	0	990.6	NA	0.0000		9999	1640	3050	5220	0
2019/08/02 21:28:00	BASE	2.16	103	3.50	115	-4.6	100	-4.6	0	0	990.7	NA	0.0000		9999	1740	0	0	0
2019/08/02 21:29:00	BASE	2.31	109	3.50	115	-4.6	100	-4.6	0	0	990.7	NA	0.0000		9999	1710	2990	0	0
2019/08/02 21:30:00	BASE	2.56	112	3.65	117	-4.6	100	-4.6	0	0	990.7	NA	0.0000		9999	1610	0	0	0
2019/08/02 21:31:00	BASE	2.38	111	3.65	117	-4.7	100	-4.7	0	0	990.7	NA	0.0000		9999	1710	5050	0	0
2019/08/02 21:32:00	BASE	1.81	101	3.65	117	-4.7	100	-4.7	0	0	990.7	NA	0.0000		9999	1770	5050	0	0
2019/08/02 21:33:00	BASE	2.07	107	3.65	117	-4.7	100	-4.7	0	0	990.7	NA	0.0000		9999	2760	4990	0	0
2019/08/02 21:34:00	BASE	3.06	113	4.94	115	-4.8	100	-4.8	0	0	990.6	NA	0.0000		9999	2660	4920	0	0
2019/08/02 21:35:00	BASE	3.74	115	4.94	115	-4.8	100	-4.8	0	0	990.5	NA	0.0000		9999	4950	0	0	0
2019/08/02 21:36:00	BASE	3.89	119	4.94	115	-4.8	100	-4.8	0	0	990.5	NA	0.0000		9999	1770	4990	0	0
2019/08/02 21:37:00	BASE	5.04	120	6.58	119	-4.7	100	-4.7	0	0	990.5	NA	0.0000		9999	1610	0	0	0
2019/08/02 21:38:00	BASE	5.72	120	6.58	119	-4.6	100	-4.6	0	0	990.5	NA	0.0000		9999	4920	0	0	0
2019/08/02 21:39:00	BASE	4.66	117	6.58	119	-4.4	100	-4.4	0	0	990.5	NA	0.0000		9999	1670	4890	0	0
2019/08/02 21:40:00	BASE	3.57	107	6.58	119	-4.3	100	-4.3	0	0	990.5	NA	0.0000		9999	1570	4860	0	0
2019/08/02 21:41:00	BASE	3.38	111	6.58	119	-4.2	100	-4.2	0	0	990.6	NA	0.0000		9999	1570	0	0	0
2019/08/02 21:42:00	BASE	2.87	123	6.58	119	-4.1	100	-4.1	0	0	990.7	NA	0.0000		9999	1640	0	0	0
2019/08/02 21:43:00	BASE	3.48	120	6.58	119	-4.1	100	-4.1	0	0	990.6	NA	0.0000		9999	1740	2560	4890	0
2019/08/02 21:44:00	BASE	5.23	122	6.58	119	-4.0	100	-4.0	0	0	990.5	NA	0.0000		9999	1610	2170	4760	0
2019/08/02 21:45:00	BASE	5.07	124	6.58	119	-4.0	100	-4.0	0	0	990.6	NA	0.0000		9999	1640	0	0	0
2019/08/02 21:46:00	BASE	3.85	113	6.58	119	-4.0	100	-4.0	0	0	990.6	NA	0.0000		9999	1610	4760	0	0
2019/08/02 21:47:00	BASE	4.18	112	6.48	120	-4.1	100	-4.1	0	0	990.5	NA	0.0000		9999	1740	4790	0	0
2019/08/02 21:48:00	BASE	5.49	120	6.33	119	-4.2	100	-4.2	0	0	990.5	NA	0.0000		9999	1640	0	0	0
2019/08/02 21:49:00	BASE	5.43	120	6.33	119	-4.2	100	-4.2	0	0	990.5	NA	0.0000		9999	1670	4720	0	0
2019/08/02 21:50:00	BASE	4.49	125	6.33	119	-4.2	100	-4.2	0	0	990.5	NA	0.0000		9999	1510	4760	0	0
2019/08/02 21:51:00	BASE	4.09	123	6.33	119	-4.2	100	-4.2	0	0	990.5	NA	0.0000		9999	1570	4820	0	0
2019/08/02 21:52:00	BASE	4.73	115	6.33	119	-4.2	100	-4.2	0	0	990.5	NA	0.0000		9999	1480	4630	0	0
2019/08/02 21:53:00	BASE	5.81	118	7.15	121	-4.2	100	-4.2	0	0	990.5	NA	0.0000		9999	1610	4530	0	0
2019/08/02 21:54:00	BASE	6.54	119	7.25	117	-4.2	100	-4.2	0	0	990.5	NA	0.0000		9999	1640	4490	0	0
2019/08/02 21:55:00	BASE	7.10	118	7.77	116	-4.2	100	-4.2	0	0	990.5	NA	0.0000		9999	4430	0	0	0
2019/08/02 21:56:00	BASE	7.03	122	7.77	116	-4.2	100	-4.2	0	0	990.5	NA	0.0000		9999	4460	0	0	0
2019/08/02 21:57:00	BASE	6.14	122	7.77	116	-4.1	100	-4.1	0	0	990.5	NA	0.0000		9999	1640	4530	0	0
2019/08/02 21:58:00	BASE	5.85	111	7.77	116	-4.2	100	-4.2	0	0	990.5	NA	0.0000		9999	4400	0	0	0
2019/08/02 21:59:00	BASE	5.78	106	7.77	116	-4.2	100	-4.2	0	0	990.5	NA	0.0000		9999	1540	4530	0	0
2019/08/02 22:00:00	BASE	4.82	96	7.77	116	-4.2	100	-4.2	0	0	990.5	NA	0.0000		9999	4400	0	0	0
2019/08/02 22:01:00	BASE	4.41	97	7.77	116	-4.2	100	-4.2	0	0	990.5	NA	0.0000		9999	4490	0	0	0
2019/08/02 22:02:00	BASE	4.86	114	7.77	116	-4.2	100	-4.2	0	0	990.5	NA	0.0000		9999	4490	0	0	0
2019/08/02 22:03:00	BASE	4.58	116	7.77	116	-4.2	100	-4.2	0	0	990.5	NA	0.0000		9999	4660	0	0	0
2019/08/02 22:04:00	BASE	3.60	112	7.77	116	-4.1	100	-4.1	0	0	990.5	NA	0.0000		9999	4460	0	0	0
2019/08/02 22:05:00	BASE	3.88	108	7.51	124	-4.0	100	-4.0	0	0	990.5	NA	0.0000		9999	4300	0	0	0
2019/08/02 22:06:00	BASE	4.40	112	6.58	106	-4.0	100	-4.0	0	0	990.5	NA	0.0000		9999	4360	0	0	0
2019/08/02 22:07:00	BASE	4.60	123	6.58	106	-4.0	100	-4.0	0	0	990.5	NA	0.0000		9999	4430	0	0	0
2019/08/02 22:08:00	BASE	5.05	131	6.38	117	-4.0	100	-4.0	0	0	990.4	NA	0.0000		9999	4200	0	0	0
2019/08/02 22:09:00	BASE	5.63	139	6.84	141	-4.0	100	-4.0	0	0	990.4	NA	0.0000		9999	4040	0	0	0
2019/08/02 22:10:00	BASE	6.15	140	6.89	139	-4.1	100	-4.1	0	0	990.4	NA	0.0000		9999	4270	0	0	0
2019/08/02 22:11:00	BASE	5.31	128	6.89	139	-4.1	100	-4.1	0	0	990.4	NA	0.0000		9999	4200	0	0	0
2019/08/02 22:12:00	BASE	4.61	128	6.89	139	-4.1	100	-4.1	0	0	990.4	NA	0.0000		9999	4270	0	0	0
2019/08/02 22:13:00	BASE	4.80	141	6.89	139	-4.2	100	-4.2	0	0	990.4	NA	0.0000		9999	4430	0	0	0
2019/08/02 22:14:00	BASE	5.48	147	7.25	150	-4.2	100	-4.2	0	0	990.3	NA	0.0000		9999	4130	0	0	0
2019/08/02 22:15:00	BASE	6.39	149	7.25	150	-4.3	100	-4.3	0	0	990.3	NA	0.0000		9999	4490	0	0	0
2019/08/02 22:16:00	BASE	6.37	141	7.25	150	-4.3	100	-4.3	0	0	990.3	NA	0.0000		9999	4330	0	0	0
2019/08/02 22:17:00	BASE	6.60	136	8.80	141	-4.3	100	-4.3	0	0	990.2	NA	0.0000		9999	4630	0	0	0
2019/08/02 22:18:00	BASE	7.85	142	9.21	142	-4.3	100	-4.3	0	0	990.2	NA	0.0000		9999	1310	0	0	0
2019/08/02 22:19:00	BASE	8.26	138	9.21	142	-4.3	100	-4.3	0	0	990.2	NA	0.0000		9999	1380	4100	0	0
2019/08/02 22:20:00	BASE	6.61	130	9.21	142	-4.3	100	-4.3	0	0	990.2	NA	0.0000		9999	1570	4130	0	0
2019/08/02 22:21:00	BASE	4.32	137	9.21	142	-4.2	100	-4.2	0	0	990.3	NA	0.0000		9999	1610	4230	0	0
2019/08/02 22:22:00	BASE	3.81	123	9.21	142	-4.2	100	-4.2	0	0	990.3	NA	0.0000		9999	1540	4130	0	0
2019/08/02 22:23:00	BASE	4.32	100	9.21	142	-4.2	100	-4.2	0	0	990.3	NA	0.0000		9999	1640	4040	0	0
2019/08/02 22:24:00	BASE	4.65	119	9.21	142	-4.2	100	-4.2	0	0	990.3	NA	0.0000		9999	1970	0	0	0
2019/08/02 22:25:00	BASE	4.86	138	9.21	142	-4.3	100	-4.3	0	0	990.3	NA	0.0000		9999	3970	0	0	0
2019/08/02 22:26:00	BASE	4.56	139	9.21	142	-4.3	100	-4.4	0	0	990.3	NA	0.0000		9999	3940	0	0	0
2019/08/02 22:27:00	BASE	5.62	137	9.52	145	-4.3	100	-4.4	0	0	990.3	NA	0.0000		9999	4000	0	0	0
2019/08/02 22:28:00	BASE	6.94	137	9.52	145	-4.3	100	-4.3	0	0	990.3	NA	0.0000		9999	4130	0	0	0
2019/08/02 22:29:00	BASE	6.21	130	9.52	145	-4.3	100	-4.3	0	0	990.3	NA	0.0000		9999	4200	0	0	0
2019/08/02 22:30:00	BASE	5.82	123	9.52	145	-4.4	100	-4.4	0	0	990.4	NA	0.0000		9999	4070	0	0	0
2019/08/02 22:31:00	BASE	5.40	125	9.52	145	-4.3	100	-4.3	0	0	990.4	NA	0.0000		9999	3940	0	0	0
2019/08/02 22:32:00	BASE	5.16	133	9.52	145	-4.3	100	-4.3	0	0	990.4	NA	0.0000		9999	3940	0	0	0
2019/08/02 22:33:00	BASE	3.65	125	9.52	145	-4.3	100	-4.3	0	0	990.4	NA	0.0000		9999	3900	0	0	0
2019/08/02 22:34:00	BASE	2.96	115	9.52	145	-4.3	100	-4.3	0	0	990.4	NA	0.0000		9999	4000	4460	0	0
2019/08/02 22:35:00	BASE	4.41	122	9.52	145	-4.2	100	-4.2	0	0	990.4	NA	0.0000		9999	4490	0	0	0
2019/08/02 22:36:00	BASE	4.41	124	9.52	145	-4.2	100	-4.2	0	0	990.4	NA	0.0000		9999	4070	4760	0	0
2019/08/02 22:37:00	BASE	3.99	113	7.97	123	-4.2	100	-4.2	0	0	990.4	NA	0.0000		9999	4070	0	0	0
2019/08/02 22:38:00	BASE	4.28	78	7.97	123	-4.2	100	-4.2	0	0	990.4	NA	0.0000		9999	3740	0	0	0
2019/08/02 22:39:00	BASE	4.70	55	7.97	123	-4.2	100	-4.2	0	0	990.4	NA	0.0000		9999	3510	4400	0	0
2019/08/02 22:40:00	BASE	4.30	59	6.84	139	-4.2	100	-4.2	0	0	990.4	NA	0.0000		9999	3580	0	0	0
2019/08/02 22:41:00	BASE	3.68	72	6.84	139	-4.1	100	-4.1	0	0	990.4	NA	0.0000		9999	3510	0	0	0
2019/08/02 22:42:00	BASE	3.37	102	5.61	50	-4.1	100	-4.1	0	0	990.4	NA	0.0000		9999	3450	0	0	0
2019/08/02 22:43:00	BASE	3.76	126	5.61	50	-4.1	100	-4.1	0	0	990.4	NA	0.0000		9999	3380	0	0	0
2019/08/02 22:44:00	BASE	3.77	125	5.61	50	-4.1	100	-4.1	0	0	990.5	NA	0.0000		9999	3450	0	0	0
2019/08/02 22:45:00	BASE	4.00	123	5.61	50	-4.1	100	-4.1	0	0	990.5	NA	0.0000		9999	3280	0	0	0
2019/08/02 22:46:00	BASE	4.75	129	5.61	50	-4.1	100	-4.1	0	0	990.4	NA	0.0000		9999	3150	0	0	0
2019/08/02 22:47:01	BASE	5.02	138	5.61	146	-4.1	100	-4.1	0	0	990.4	NA	0.0000		9999	3250	0	0	0
2019/08/02 22:48:01	BASE	5.13	147	5.61	151	-4.1	100	-4.1	0	0	990.4	NA	0.0000		9999	3280	0	0	0
2019/08/02 22:49:01	BASE	4.64	152	5.61	151	-4.2	100	-4.2	0	0	990.5	NA	0.0000		9999	3120	0	0	0
2019/08/02 22:50:01	BASE	4.00	144	5.61	151	-4.3	100	-4.3	0	0	990.5	NA	0.0000		9999	2920	0	0	0
2019/08/02 22:51:01	BASE	4.14	129	5.61	151	-4.4	100	-4.4	0	0	990.5	NA	0.0000		9999	2950	0	0	0
2019/08/02 22:52:01	BASE	4.29	121	5.61	151	-4.5	100	-4.5	0	0	990.5	NA	0.0000		9999	2990	0	0	0
2019/08/02 22:53:01	BASE	5.29	118	7.46	116	-4.5	100	-4.5	0	0	990.5	NA	0.0000		9999	2850	0	0	0
2019/08/02 22:54:01	BASE	6.66	118	7.46	116	-4.4	100	-4.4	0	0	990.5	NA	0.0000		9999	2820	4630	0	0
2019/08/02 22:55:01	BASE	6.58	120	7.46	116	-4.3	100	-4.3	0	0	990.4	NA	0.0000		9999	2790	4460	0	0
2019/08/02 22:56:01	BASE	5.58	117	7.46	116	-4.2	100	-4.2	0	0	990.4	NA	0.0000		9999	2760	4400	0	0
2019/08/02 22:57:01	BASE	5.39	106	7.46	116	-4.0	100	-4.0	0	0	990.4	NA	0.0000		9999	2720	4200	0	0
2019/08/02 22:58:01	BASE	5.96	104	7.46	116	-4.0	100	-4.0	0	0	990.5	NA	0.0000		9999	2790	4130	0	0
2019/08/02 22:59:01	BASE	5.91	106	7.46	116	-4.0	100	-4.0	0	0	990.5	NA	0.0000		9999	2890	4070	0	0
2019/08/02 23:00:01	BASE	5.89	104	7.46	116	-3.9	100	-3.9	0	0	990.5	NA	0.0000		9999	3870	0	0	0
2019/08/02 23:01:01	BASE	5.66	97	7.46	116	-4.0	100	-4.0	0	0	990.5	NA	0.0000		9999	3510	0	0	0
2019/08/02 23:02:01	BASE	4.73	85	7.46	116	-4.0	100	-4.0	0	0	990.5	NA	0.0000		9999	3540	0	0	0
2019/08/02 23:03:01	BASE	3.93	89	7.36	119	-4.0	100	-4.0	0	0	990.5	NA	0.0000		9999	3480	0	0	0
2019/08/02 23:04:01	BASE	3.22	101	7.05	117	-4.0	100	-4.0	0	0	990.6	NA	0.0000		9999	3350	0	0	0
2019/08/02 23:05:01	BASE	2.36	106	6.94	108	-3.9	100	-3.9	0	0	990.7	NA	0.0000		9999	3180	0	0	0
2019/08/02 23:06:01	BASE	1.67	113	6.94	108	-3.8	100	-3.8	0	0	990.7	NA	0.0000		9999	3250	0	0	0
2019/08/02 23:07:01	BASE	1.76	134	6.94	108	-3.7	100	-3.7	0	0	990.7	NA	0.0000		9999	3050	3840	0	0
2019/08/02 23:08:01	BASE	2.41	159	6.89	110	-3.7	100	-3.7	0	0	990.7	NA	0.0000		9999	3050	3770	0	0
2019/08/02 23:09:01	BASE	4.50	165	7.72	166	-3.7	100	-3.7	0	0	990.6	NA	0.0000		9999	3050	0	0	0
2019/08/02 23:10:01	BASE	5.86	161	7.72	166	-3.7	100	-3.7	0	0	990.7	NA	0.0000		9999	3020	0	0	0
2019/08/02 23:11:01	BASE	6.13	158	7.87	155	-3.7	100	-3.7	0	0	990.7	NA	0.0000		9999	2950	3580	0	0
2019/08/02 23:12:01	BASE	6.57	159	7.87	155	-3.8	100	-3.8	0	0	990.7	NA	0.0000		9999	2990	3540	0	0
2019/08/02 23:13:01	BASE	6.25	161	7.87	155	-3.8	100	-3.8	0	0	990.7	NA	0.0000		9999	2890	0	0	0
2019/08/02 23:14:01	BASE	6.00	158	7.87	155	-3.8	100	-3.8	0	0	990.7	NA	0.0000		9999	2990	0	0	0
2019/08/02 23:15:01	BASE	5.87	153	7.87	155	-3.9	100	-3.9	0	0	990.6	NA	0.0000		9999	2920	0	0	0
2019/08/02 23:16:01	BASE	5.67	150	7.87	155	-3.9	100	-3.9	0	0	990.5	NA	0.0000		9999	2850	3740	0	0
2019/08/02 23:17:01	BASE	4.94	149	7.87	155	-3.9	100	-3.9	0	0	990.6	NA	0.0000		9999	2850	0	0	0
2019/08/02 23:18:01	BASE	4.22	150	7.87	155	-4.0	100	-4.0	0	0	990.6	NA	0.0000		9999	2850	0	0	0
2019/08/02 23:19:00	BASE	3.51	146	7.87	155	-4.0	100	-4.0	0	0	990.5	NA	0.0000		9999	2760	0	0	0
2019/08/02 23:20:00	BASE	2.97	132	7.87	155	-3.9	100	-3.9	0	0	990.5	NA	0.0000		9999	2850	0	0	0
2019/08/02 23:21:00	BASE	2.38	96	6.74	161	-3.9	100	-3.9	0	0	990.6	NA	0.0000		9999	2850	4070	6500	0
2019/08/02 23:22:00	BASE	1.66	72	6.53	161	-3.8	100	-3.8	0	0	990.7	NA	0.0000		9999	2890	4230	6500	0
2019/08/02 23:23:00	BASE	1.65	69	6.38	153	-3.7	100	-3.7	0	0	990.7	NA	0.0000		9999	2920	4360	0	0
2019/08/02 23:24:00	BASE	1.62	58	6.38	153	-3.6	100	-3.6	0	0	990.7	NA	0.0000		9999	2920	0	0	0
2019/08/02 23:25:00	BASE	1.55	80	5.71	150	-3.5	100	-3.5	0	0	990.7	NA	0.0000		9999	2850	4590	0	0
2019/08/02 23:26:00	BASE	1.67	111	4.89	151	-3.5	100	-3.5	0	0	990.7	NA	0.0000		9999	4760	0	0	0
2019/08/02 23:27:00	BASE	1.64	120	4.42	150	-3.6	100	-3.7	0	0	990.7	NA	0.0000		9999	4860	0	0	0
2019/08/02 23:28:00	BASE	1.48	129	4.06	147	-3.7	99	-3.8	0	0	990.7	NA	0.0000		9999	5120	0	0	0
2019/08/02 23:29:00	BASE	1.31	140	3.45	129	-3.8	99	-3.9	0	0	990.7	NA	0.0000		9999	5090	0	0	0
2019/08/02 23:30:00	BASE	1.46	143	2.73	84	-3.8	98	-4.1	0	0	990.7	NA	0.0000		9999	5050	0	0	0
2019/08/02 23:31:00	BASE	1.71	148	2.16	123	-3.8	97	-4.2	0	0	990.7	NA	0.0000		9999	5120	0	0	0
2019/08/02 23:32:00	BASE	1.93	148	2.21	145	-3.8	96	-4.3	0	0	990.7	NA	0.0000		9999	3180	0	0	0
2019/08/02 23:33:00	BASE	2.24	135	2.83	126	-3.7	95	-4.4	0	0	990.6	NA	0.0000		9999	3350	5220	0	0
2019/08/02 23:34:00	BASE	2.30	119	2.98	122	-3.7	94	-4.5	0	0	990.6	NA	0.0000		9999	3250	5320	0	0
2019/08/02 23:35:00	BASE	2.24	116	2.98	122	-3.6	93	-4.6	0	0	990.5	NA	0.0000		9999	2590	3220	5320	0
2019/08/02 23:36:00	BASE	3.04	124	5.61	127	-3.6	92	-4.7	0	0	990.5	NA	0.0000		9999	2430	3020	0	0
2019/08/02 23:37:00	BASE	4.03	122	5.61	127	-3.6	91	-4.9	0	0	990.6	NA	0.0000		9999	2920	0	0	0
2019/08/02 23:38:00	BASE	3.97	114	5.61	127	-3.7	90	-5.1	0	0	990.7	NA	0.0000		9999	2300	2990	0	0
2019/08/02 23:39:00	BASE	3.78	114	5.61	127	-3.7	89	-5.3	0	0	990.7	NA	0.0000		9999	2300	0	0	0
2019/08/02 23:40:00	BASE	4.84	117	6.22	119	-3.9	89	-5.4	0	0	990.7	NA	0.0000		9999	2170	2950	0	0
2019/08/02 23:41:00	BASE	5.43	118	6.22	119	-3.9	89	-5.5	0	0	990.7	NA	0.0000		9999	2170	2850	0	0
2019/08/02 23:42:00	BASE	4.54	113	6.22	119	-3.8	89	-5.4	0	0	990.7	NA	0.0000		9999	2170	0	0	0
2019/08/02 23:43:00	BASE	3.54	101	6.22	119	-3.7	89	-5.2	0	0	990.7	NA	0.0000		9999	2430	3250	0	0
2019/08/02 23:44:00	BASE	3.28	93	6.22	119	-3.6	90	-5.1	0	0	990.7	NA	0.0000		9999	2360	0	0	0
2019/08/02 23:45:00	BASE	4.17	103	6.22	119	-3.5	89	-5.0	0	0	990.7	NA	0.0000		9999	2070	0	0	0
2019/08/02 23:46:00	BASE	4.67	107	6.22	119	-3.6	89	-5.1	0	0	990.7	NA	0.0000		9999	2170	2990	4530	0
2019/08/02 23:47:00	BASE	3.90	104	6.22	119	-3.6	89	-5.2	0	0	990.7	NA	0.0000		9999	2300	4660	0	0
2019/08/02 23:48:00	BASE	3.03	112	6.22	119	-3.7	89	-5.3	0	0	990.8	NA	0.0000		9999	2330	4760	0	0
2019/08/02 23:49:00	BASE	2.90	122	6.22	119	-3.8	89	-5.4	0	0	990.7	NA	0.0000		9999	2460	4760	0	0
2019/08/02 23:50:00	BASE	3.98	124	5.97	122	-3.9	90	-5.3	0	0	990.7	NA	0.0000		9999	2430	4460	0	0
2019/08/02 23:51:00	BASE	4.88	120	5.50	93	-3.8	90	-5.2	0	0	990.8	NA	0.0000		9999	2360	4460	0	0
2019/08/02 23:52:00	BASE	4.97	118	6.38	117	-3.8	91	-5.0	0	0	990.8	NA	0.0000		9999	2430	4400	4820	0
2019/08/02 23:53:00	BASE	5.82	120	6.94	122	-3.7	92	-4.9	0	0	990.8	NA	0.0000		9999	2400	4430	4820	0
2019/08/02 23:54:00	BASE	5.99	119	6.94	122	-3.7	93	-4.7	0	0	990.8	NA	0.0000		9999	4330	0	0	0
2019/08/02 23:55:00	BASE	5.39	123	6.94	122	-3.7	93	-4.6	0	0	990.7	NA	0.0000		9999	4530	0	0	0
2019/08/02 23:56:00	BASE	5.55	127	7.20	126	-3.7	94	-4.5	0	0	990.7	NA	0.0000		9999	4560	0	0	0
2019/08/02 23:57:00	BASE	5.41	125	7.20	126	-3.7	95	-4.4	0	0	990.8	NA	0.0000		9999	4660	0	0	0
2019/08/02 23:58:00	BASE	5.26	124	7.20	126	-3.7	96	-4.3	0	0	990.8	NA	0.0000		9999	4590	0	0	0
2019/08/02 23:59:00	BASE	5.30	122	7.20	126	-3.7	97	-4.2	0	0	990.8	NA	0.0000		9999	4560	0	0	0